ECMWFNIL_250_spd_000.txt.gz
Wind_Speed
42 42 42 43 44 45 47 49 51 53 55 55 51 48 52 59 66 70 68 63 58 59 61 64 69 73 74 73 71 70 68 66 62 56 51 48 45 44 44 45 48 50
44 44 44 45 46 47 49 51 53 54 57 57 53 50 53 60 68 70 67 62 60 61 62 65 70 73 75 75 73 71 70 70 66 61 55 51 47 45 44 44 46 48
45 46 47 48 48 49 51 53 54 56 58 58 54 53 56 61 68 70 66 62 62 63 64 67 71 74 76 77 76 73 72 71 69 64 59 54 49 46 44 43 44 46
46 47 49 52 52 52 53 55 56 57 60 59 55 56 59 63 68 70 67 64 64 65 66 67 71 74 76 77 78 76 73 72 71 67 63 57 50 46 43 41 41 44
47 48 51 54 56 56 56 58 59 59 61 60 57 58 62 65 68 71 69 67 66 66 66 68 71 75 76 78 78 77 74 73 73 70 65 59 52 46 42 39 39 41
46 48 53 57 58 59 60 61 61 61 62 61 58 61 65 66 68 71 71 69 67 67 68 69 72 75 77 77 77 77 75 74 74 72 68 62 55 48 43 40 38 39
46 50 54 58 60 61 62 63 64 63 63 62 61 65 68 66 67 71 71 69 68 67 69 72 74 77 79 77 76 76 76 75 75 75 70 64 57 50 45 42 40 39
48 53 56 59 61 63 64 65 65 63 63 64 66 70 68 65 68 72 71 70 70 70 72 75 77 79 79 77 76 76 76 76 77 76 72 66 59 52 47 45 43 40
50 56 58 61 63 65 67 67 65 63 65 68 71 73 70 67 69 73 71 71 72 72 74 77 78 78 78 78 78 78 78 78 79 78 74 68 60 54 49 47 45 44
53 58 60 62 65 66 69 69 65 65 69 72 74 75 72 69 71 73 72 72 74 74 75 77 78 79 80 80 80 80 80 81 82 81 77 70 63 56 51 48 47 46
57 62 64 65 67 69 72 71 68 70 73 75 77 78 74 70 72 74 72 73 75 75 76 78 79 81 83 83 82 81 83 84 84 83 79 73 66 59 53 50 48 47
65 69 69 67 68 73 78 74 70 71 73 76 80 79 73 70 73 74 73 74 76 77 77 79 82 84 84 85 83 83 86 86 84 83 81 75 68 61 55 51 49 48
71 69 66 67 71 78 82 75 68 70 74 76 78 74 69 69 74 76 75 77 79 79 79 81 84 85 85 86 84 85 87 85 83 86 84 77 70 62 57 53 51 50
69 63 66 72 76 81 81 72 67 72 75 75 72 68 67 71 75 77 78 80 80 80 81 84 86 86 85 85 84 87 90 86 86 90 88 80 72 65 59 56 54 53
68 68 74 77 77 79 75 68 68 74 75 72 68 67 71 74 76 79 81 82 82 82 84 86 87 86 86 85 86 91 93 88 89 93 91 82 74 67 62 60 58 57
69 71 76 75 72 70 66 64 70 76 75 72 70 71 75 76 77 81 84 85 85 84 86 88 87 87 87 87 91 95 94 90 92 95 91 83 75 69 64 62 61 61
70 69 73 71 63 60 61 65 73 77 76 73 72 74 77 78 81 85 88 88 86 85 88 89 87 87 88 91 94 95 92 91 93 95 90 83 76 70 66 64 63 63
66 65 65 61 56 58 63 69 74 76 74 71 72 76 79 83 87 89 89 88 86 86 89 89 89 91 94 96 96 95 93 93 93 92 87 81 77 72 68 66 66 66
60 59 58 56 59 64 68 72 75 73 70 70 73 79 84 88 89 88 88 87 86 88 90 92 94 98 100 98 97 97 96 94 91 88 84 79 76 73 71 69 69 69
51 52 54 58 63 68 71 75 75 71 69 73 78 84 88 90 88 87 87 87 88 90 93 96 99 101 100 98 98 99 97 93 89 84 80 77 77 76 74 73 72 71
44 51 60 65 68 72 75 76 74 72 73 77 82 88 90 89 87 86 87 88 89 91 95 100 102 101 99 98 99 98 95 91 86 81 79 80 81 80 78 76 74 72
48 57 65 70 72 75 76 76 75 76 78 82 87 90 90 88 87 86 88 89 89 91 95 100 101 100 99 99 99 97 93 88 83 80 82 84 84 84 81 79 75 71
57 64 70 73 75 77 78 78 78 80 83 87 90 90 89 87 87 88 90 91 91 93 97 100 100 100 100 100 100 97 93 88 84 83 85 88 88 86 83 79 75 71
62 69 73 74 75 77 78 79 80 84 88 91 90 89 88 87 89 91 93 94 95 97 100 101 101 101 101 101 100 98 93 89 85 85 88 91 90 87 83 78 74 70
65 69 70 72 74 77 78 80 83 88 91 90 89 88 88 89 92 95 96 97 98 100 101 102 102 101 102 101 100 97 93 88 86 88 90 92 90 87 82 77 72 69
67 70 73 76 78 80 82 85 88 90 91 89 87 88 89 92 94 97 98 99 99 101 102 102 102 102 102 101 99 95 91 88 88 90 92 92 90 85 81 77 72 68

ECMWFNIL_250_spd_003.txt.gz
Wind_Speed
46 46 46 45 43 42 41 41 40 42 45 48 50 53 55 55 56 56 55 54 56 59 62 64 63 59 58 59 60 61 64 66 67 67 68 69 69 70 73 72 67 65
47 46 46 45 44 42 40 39 40 43 46 49 52 54 57 58 58 58 58 58 59 62 65 67 65 58 58 61 61 63 65 67 68 68 68 69 69 71 76 77 72 68
47 46 45 44 43 42 40 39 41 43 47 50 53 56 58 60 59 59 61 62 62 63 66 67 64 58 58 62 64 65 68 69 69 68 70 71 71 74 79 79 75 71
46 44 43 43 42 41 40 41 43 45 49 52 55 57 60 61 60 60 64 64 62 62 66 66 61 58 60 65 67 68 71 72 71 70 71 72 74 78 82 80 78 75
45 43 41 42 42 42 43 44 46 49 52 56 58 59 62 62 60 62 67 65 60 62 66 64 60 61 64 67 68 70 74 74 72 71 72 74 77 81 85 83 81 79
45 43 42 42 43 45 46 48 50 53 56 59 60 61 62 61 61 66 69 65 59 62 66 64 62 63 66 68 69 73 76 75 73 73 74 76 79 84 87 87 84 82
46 45 45 44 46 48 49 52 55 57 59 62 62 63 64 62 63 68 69 63 59 62 66 65 63 64 66 68 71 75 76 75 73 74 76 78 81 86 89 89 87 85
48 48 49 50 51 53 55 57 59 61 63 64 66 67 65 63 65 68 68 61 57 61 66 65 63 64 66 69 73 76 75 74 74 75 77 79 83 88 91 91 89 88
52 52 53 55 56 57 59 60 61 64 67 68 68 67 64 63 66 68 66 58 56 61 65 64 63 65 68 72 74 76 76 75 75 76 78 81 85 90 93 93 92 90
56 56 58 59 60 62 63 63 65 68 71 72 70 67 64 66 68 67 60 54 56 62 65 64 65 66 70 74 76 77 77 76 76 77 79 82 87 91 94 95 94 92
59 60 61 63 64 65 65 66 69 72 73 72 70 68 68 69 68 62 54 52 58 62 64 65 67 69 73 76 78 79 78 77 77 79 81 85 89 92 95 96 95 93
60 61 62 64 65 66 66 68 71 72 73 71 70 70 71 70 66 57 51 53 59 62 65 68 70 73 76 79 81 80 79 78 80 82 85 88 91 94 96 97 97 95
60 61 61 63 65 67 69 71 72 72 71 70 70 70 69 67 62 54 52 57 62 65 67 69 71 76 79 81 83 82 80 81 83 85 87 90 92 95 98 99 99 97
61 60 61 65 68 70 72 71 70 69 69 68 67 68 68 64 57 54 56 61 65 68 69 70 74 78 81 83 85 84 82 84 87 88 89 91 94 98 100 101 101 100
62 61 63 68 71 72 70 68 65 65 66 66 65 66 65 59 56 57 60 65 69 70 71 72 77 81 83 85 86 86 86 88 90 89 90 93 96 100 102 103 103 102
63 63 67 71 71 68 64 63 62 62 65 63 61 60 59 57 58 60 63 68 72 73 73 76 80 83 85 86 88 89 89 91 91 91 93 95 98 100 103 105 106 105
64 65 67 67 66 64 63 62 61 65 68 62 55 54 55 56 58 61 67 72 75 76 78 80 83 85 86 87 89 90 91 92 93 93 95 98 100 102 105 107 107 106
62 62 60 57 57 63 66 65 66 73 73 61 51 49 51 54 60 65 71 74 76 78 81 83 85 86 87 88 89 91 93 95 95 95 98 100 102 104 106 108 108 106
53 55 55 52 54 60 64 66 70 73 67 57 51 52 56 61 68 72 74 76 78 80 83 84 85 86 87 90 91 93 96 96 96 98 100 102 103 105 108 109 108 106
51 52 52 52 57 61 61 61 62 61 57 56 57 60 64 69 73 75 76 77 80 83 84 85 87 89 91 93 94 96 98 98 98 99 101 103 104 106 110 110 107 106
49 47 48 51 56 58 57 54 55 57 60 62 63 65 68 72 75 76 77 79 82 85 86 89 92 94 95 96 98 100 100 98 98 99 102 104 105 109 111 110 107 107
44 44 49 52 54 56 56 55 57 63 66 68 69 72 76 79 82 82 81 82 85 87 90 94 97 99 100 100 101 100 98 97 97 100 103 104 107 111 113 110 109 108
41 44 50 53 54 57 59 60 64 68 69 71 75 78 80 82 84 84 84 86 89 93 96 98 100 102 102 100 98 97 96 97 100 102 104 106 110 113 112 110 110 110
41 44 49 50 50 55 61 63 66 69 72 76 81 83 84 85 84 84 85 89 93 97 99 99 99 100 99 97 96 97 97 99 101 102 104 108 112 113 111 111 112 111
41 47 52 51 50 56 63 65 67 70 74 77 81 82 83 84 85 86 89 94 98 100 100 99 99 99 98 97 97 98 99 100 102 103 106 110 112 111 111 112 113 112
44 51 55 55 57 62 66 67 69 71 70 73 79 82 82 85 88 91 95 97 98 98 98 99 98 98 99 99 99 100 101 102 103 105 108 111 110 110 112 113 113 112

ECMWFNIL_250_spd_006.txt.gz
Wind_Speed
40 41 41 41 41 41 41 41 41 41 41 41 41 41 41 43 45 47 50 54 56 58 59 58 55 52 51 54 54 49 46 47 48 46 48 52 56 59 61 63 64 64
42 43 44 44 44 44 43 42 41 41 41 42 43 44 45 46 48 51 54 57 59 60 59 58 55 51 52 54 55 50 47 48 49 47 48 53 56 59 62 65 67 67
45 46 46 47 47 47 46 45 44 43 43 45 46 47 48 50 51 54 57 58 59 60 59 57 53 51 52 55 55 50 46 48 50 49 50 54 57 61 63 66 69 72
47 48 49 49 50 49 49 48 47 46 46 47 48 49 50 51 53 55 56 58 59 59 58 56 54 52 53 55 53 49 47 49 50 50 52 56 60 62 65 68 72 75
47 48 49 50 51 51 50 50 49 48 48 48 50 51 51 53 54 56 57 58 59 58 57 56 55 54 55 55 52 49 49 50 51 53 56 59 62 64 66 69 73 76
47 48 48 49 51 52 51 51 50 50 51 52 52 53 53 55 57 58 59 58 57 56 56 56 55 55 56 56 53 51 51 52 54 56 59 62 66 68 69 72 75 77
48 48 48 49 50 51 52 53 53 54 55 56 55 54 54 57 59 60 59 56 54 54 56 56 56 57 57 57 55 53 53 55 57 59 62 66 69 71 72 74 77 79
48 49 50 50 51 52 54 55 56 57 59 59 58 55 56 58 59 57 56 54 53 55 58 59 58 58 59 59 56 55 56 58 60 62 65 69 72 74 75 76 78 81
49 51 52 53 53 54 55 57 59 60 61 61 58 56 56 56 54 54 55 55 56 58 61 63 61 59 59 58 56 56 58 61 63 66 68 71 74 76 77 78 81 83
51 52 55 56 56 56 58 59 62 63 63 61 57 55 55 52 50 54 57 57 59 61 63 64 63 61 59 57 56 58 61 63 66 68 70 74 76 78 79 80 82 84
52 54 58 59 58 57 59 62 65 64 60 57 54 54 53 49 51 59 61 60 61 62 64 66 64 61 59 57 58 61 63 65 68 71 74 78 79 79 80 82 83 85
54 56 60 60 58 58 61 65 66 62 58 53 51 52 52 50 56 64 65 63 62 61 64 66 63 60 59 60 60 62 64 67 71 75 79 81 80 79 81 82 84 86
57 58 57 55 55 58 62 63 59 57 57 55 51 52 54 56 60 65 66 64 61 59 62 63 60 58 59 59 61 63 67 72 77 80 81 80 79 80 82 83 85 88
59 57 52 51 56 61 60 56 53 55 58 58 57 57 58 60 61 62 63 62 57 56 57 57 56 57 59 62 65 70 74 78 79 79 79 79 80 82 84 86 88 91
56 52 50 54 59 61 57 54 56 60 61 61 60 59 59 61 62 62 62 59 56 54 55 56 58 61 66 69 72 75 76 77 77 78 80 83 85 85 86 89 92 94
51 48 52 56 57 58 58 59 62 65 66 64 61 60 61 62 64 66 64 61 60 57 56 60 64 67 70 72 74 75 76 78 81 83 85 86 87 87 89 92 94 95
49 49 52 53 52 55 57 57 59 62 64 64 62 61 62 63 65 67 65 64 63 59 59 63 66 68 71 73 75 77 79 81 84 85 86 87 88 90 92 93 94 96
50 49 49 48 48 49 50 50 53 57 61 63 62 61 61 62 64 64 63 63 61 59 62 65 68 70 73 75 78 80 81 81 83 85 88 90 92 92 93 94 95 97
50 48 45 42 41 44 49 52 54 57 60 62 61 61 61 62 63 62 61 61 62 62 65 68 71 74 76 79 82 82 80 82 87 91 93 94 93 93 93 95 97 100
50 47 42 38 38 44 51 54 56 57 58 58 59 60 60 61 62 63 63 66 67 67 67 69 73 77 80 83 83 81 82 87 92 96 96 95 94 94 94 96 99 103
51 46 40 35 38 46 50 52 56 58 57 57 58 59 58 59 62 66 69 71 70 69 69 72 76 81 84 85 84 84 87 91 94 96 97 96 96 95 96 99 102 105
53 49 43 38 40 47 51 52 56 59 58 56 57 58 58 60 63 66 71 73 72 71 74 79 83 86 88 88 87 88 90 92 94 95 95 95 95 96 99 101 104 107
55 52 48 43 42 46 51 51 52 54 53 53 55 58 61 63 64 67 71 74 76 78 82 85 88 89 90 90 89 89 90 92 93 93 93 94 95 98 101 103 106 109
58 52 48 44 41 41 45 46 46 47 49 50 53 59 62 63 64 67 71 75 78 82 85 88 89 89 89 90 90 89 89 89 90 91 93 94 96 99 102 105 108 109
58 51 46 42 38 36 37 38 39 43 48 51 54 59 61 62 63 67 71 76 80 83 84 85 85 85 85 85 84 83 84 86 89 92 94 96 99 102 104 107 109 108
57 51 45 42 38 36 35 35 36 40 46 52 58 62 63 65 69 72 75 78 79 79 80 80 79 78 78 78 79 81 85 88 91 93 96 100 103 105 107 110 109 108

ECMWFNIL_250_spd_009.txt.gz
Wind_Speed
37 37 37 37 37 37 37 37 37 37 37 38 39 40 41 42 43 44 45 46 47 47 45 44 45 45 43 42 42 44 46 47 46 45 46 48 50 49 48 47 48 50
39 39 39 39 38 38 38 38 38 39 39 40 41 42 43 44 45 46 47 47 48 47 45 45 44 42 41 43 45 48 50 49 46 45 46 49 50 50 49 49 50 52
41 41 41 40 39 39 39 40 41 42 42 43 44 45 46 46 46 48 48 46 45 44 44 44 41 40 43 47 49 52 52 49 47 46 47 48 50 50 49 49 51 54
42 42 42 42 41 41 42 42 43 45 45 46 47 48 48 47 48 50 48 43 41 41 42 43 40 41 46 49 51 54 52 50 48 48 48 49 50 50 50 51 53 55
43 43 43 43 43 44 45 45 47 47 48 49 48 47 48 49 50 50 46 41 41 43 44 45 43 44 48 51 54 56 53 51 50 49 49 49 49 50 51 52 54 54
44 44 44 44 45 46 47 47 49 50 50 50 47 45 48 50 50 48 44 43 45 47 47 47 47 50 52 55 57 57 53 51 50 49 49 48 48 49 50 52 53 56
44 45 46 46 46 48 49 50 51 51 51 50 47 46 48 49 48 45 44 45 47 49 50 51 52 55 56 57 57 55 52 50 49 48 48 47 47 48 49 53 56 60
45 46 47 48 50 51 52 52 51 51 51 50 48 49 51 51 47 44 44 46 48 50 53 54 56 57 57 56 55 53 51 50 49 47 46 46 47 50 53 57 61 63
47 48 49 51 53 52 51 51 51 53 54 51 49 52 56 56 50 44 46 48 50 52 52 53 55 56 55 55 53 52 52 52 52 49 47 49 52 56 60 62 62 63
48 50 51 53 53 53 54 53 53 55 55 51 51 57 60 57 51 47 48 49 51 52 50 50 52 53 54 54 52 52 53 54 54 53 53 56 58 60 62 63 63 64
49 50 50 51 52 54 55 53 53 55 54 52 56 60 57 52 49 47 47 48 51 53 50 49 50 52 54 55 54 54 54 55 58 59 60 60 59 60 62 63 66 69
50 51 51 50 51 53 53 52 53 55 54 55 59 59 53 49 49 47 47 49 52 53 50 49 50 53 56 57 57 56 56 59 62 63 62 60 60 62 64 67 71 74
51 51 49 48 50 51 51 52 54 54 54 56 56 54 51 50 50 50 50 52 52 50 47 47 50 53 56 59 60 59 61 64 66 65 64 64 65 67 69 71 75 77
51 49 45 44 47 50 52 54 55 54 55 55 54 53 52 51 53 54 53 51 50 47 47 49 52 54 56 59 60 60 64 68 69 69 68 69 70 70 71 74 77 79
48 46 42 39 40 45 52 55 54 53 54 55 55 55 54 54 57 56 53 51 49 48 50 53 55 56 58 60 61 63 67 70 70 70 70 71 71 70 72 76 79 81
47 44 39 33 31 37 48 53 54 55 57 58 57 56 56 58 59 56 53 52 51 50 52 54 55 56 58 61 63 66 69 70 70 70 71 71 71 72 74 78 81 84
48 44 39 32 28 31 40 47 53 58 60 59 57 55 56 59 59 54 50 50 50 50 51 53 54 56 60 63 65 67 69 70 71 72 73 74 75 76 78 80 84 87
49 46 41 35 30 31 39 48 56 61 62 60 58 57 59 61 58 52 48 48 51 52 52 53 53 57 63 66 66 68 70 71 73 75 76 77 78 79 81 83 86 89
49 48 45 41 38 39 45 51 55 59 61 61 60 61 63 63 60 56 53 52 54 54 53 55 57 61 66 68 68 70 72 72 75 77 78 78 79 81 84 86 88 90
50 51 50 49 47 47 49 51 53 56 57 58 60 61 63 63 63 61 56 53 55 56 57 60 62 64 66 67 67 69 70 72 75 78 80 81 82 83 86 88 90 91
53 54 54 55 54 54 54 54 54 55 57 57 58 58 59 59 59 57 52 50 54 58 61 64 66 65 66 66 66 68 71 74 77 81 85 86 86 86 88 90 92 92
57 57 58 59 60 60 59 57 56 56 57 58 57 55 55 54 52 52 53 54 57 61 64 68 71 71 70 69 68 70 75 79 84 87 90 90 89 89 90 91 93 93
60 60 61 62 63 63 61 59 58 57 57 57 55 51 49 49 49 52 56 59 61 64 68 71 74 76 75 73 73 76 81 86 89 92 94 93 92 92 93 93 95 96
63 63 64 65 65 64 63 61 59 58 56 53 49 47 48 50 51 54 60 66 68 70 72 73 74 76 76 78 80 82 86 89 91 93 94 94 94 94 95 95 96 98
66 66 67 67 67 66 64 62 60 58 55 52 51 53 55 55 56 58 62 66 68 71 74 74 75 75 77 78 80 82 85 87 90 92 93 94 95 96 97 97 98 99
69 69 68 68 68 66 64 63 60 57 54 52 53 57 59 60 61 64 66 68 70 72 73 75 77 78 79 80 81 83 86 89 91 92 94 96 97 98 98 98 98 100

ECMWFNIL_250_spd_012.txt.gz
Wind_Speed
32 33 34 35 35 36 36 36 36 37 37 38 39 41 42 42 41 39 36 36 38 40 43 42 38 36 37 39 40 41 42 43 45 46 47 47 46 45 44 44 43 40
33 34 35 35 36 37 37 37 37 39 39 40 42 43 43 41 40 40 38 37 39 43 46 45 40 38 39 40 41 42 44 46 46 47 47 47 46 45 43 43 43 41
34 35 36 37 37 38 38 38 39 40 42 42 42 42 42 40 40 41 40 40 41 44 48 46 41 40 41 41 42 44 46 46 45 45 46 46 46 45 44 45 45 42
35 36 37 38 38 39 40 40 41 42 44 44 42 41 40 39 40 42 42 42 43 45 47 45 41 40 41 42 43 45 46 46 45 44 44 46 48 46 45 47 46 44
36 37 38 39 40 41 41 42 43 44 45 44 42 41 39 38 40 42 43 43 44 46 46 43 39 38 40 42 43 45 46 46 45 44 45 48 49 47 47 49 48 47
38 39 39 41 42 43 43 44 45 46 46 45 43 40 39 39 41 43 45 45 45 46 44 40 38 39 40 41 42 43 45 45 45 45 47 49 49 48 49 50 51 49
39 40 41 43 43 44 44 46 47 48 48 46 43 40 40 40 41 44 47 48 47 45 42 39 40 41 41 41 42 43 43 43 45 46 48 49 48 49 52 53 54 52
41 42 43 43 44 45 46 48 49 50 49 47 43 42 41 40 41 44 47 48 46 43 41 40 41 43 43 43 43 43 42 42 44 46 48 48 48 51 54 56 56 56
43 44 44 44 44 45 47 50 51 51 51 47 43 40 38 38 41 44 47 47 43 41 42 43 43 45 46 45 44 43 42 43 45 46 48 49 50 53 56 56 58 59
44 45 45 45 45 47 49 51 52 52 48 43 39 37 37 40 45 47 48 47 45 43 44 45 47 49 49 45 43 43 43 44 46 46 48 51 53 55 56 56 60 62
45 45 45 45 47 49 50 50 50 48 41 36 36 38 40 45 49 50 49 48 47 46 46 48 49 49 47 43 42 43 43 44 46 48 50 53 54 55 57 59 62 64
45 46 46 45 47 48 48 48 49 46 39 36 39 42 46 49 50 50 50 49 49 48 50 50 50 48 44 40 40 41 41 43 47 50 52 54 55 57 59 62 63 64
47 47 46 45 45 47 49 51 50 47 43 43 45 47 48 50 49 49 50 50 50 51 52 52 51 48 43 39 39 41 41 44 47 50 54 57 58 59 61 62 64 64
48 49 47 45 43 43 47 50 48 46 46 47 46 47 47 48 50 53 54 55 56 57 57 56 53 48 44 42 43 45 47 48 50 52 56 60 61 62 63 65 66 67
50 50 48 46 43 40 43 50 53 51 51 51 50 51 51 52 55 57 57 58 60 61 61 61 60 57 54 52 53 55 56 54 53 55 60 63 65 66 67 68 67 66
52 52 49 48 46 41 42 50 56 56 55 54 54 54 54 56 58 59 59 58 59 60 62 63 64 64 63 62 64 65 62 56 55 59 63 65 67 68 69 68 66 65
53 53 51 49 48 46 45 48 52 54 55 55 56 56 57 57 60 61 61 60 60 61 62 62 63 64 64 63 64 63 60 57 58 61 65 68 69 69 68 66 64 64
54 53 51 50 49 49 48 48 49 51 53 54 56 58 58 59 60 63 64 63 64 64 64 64 63 63 62 60 59 57 57 58 60 63 67 69 68 68 67 65 65 66
55 53 52 51 50 50 50 50 51 52 53 55 57 58 59 60 62 64 65 65 66 66 65 65 64 63 62 61 58 56 56 58 62 64 67 68 68 67 67 67 69 71
57 55 53 52 52 52 52 52 53 54 56 58 60 61 62 63 64 66 66 66 67 67 65 64 64 63 62 60 59 57 57 59 63 65 67 68 68 68 69 71 73 75
60 58 56 55 54 54 54 54 56 57 59 61 63 64 65 66 68 69 67 65 65 64 63 63 64 64 62 61 61 61 61 63 66 68 70 71 71 72 74 75 75 75
63 61 59 58 56 56 55 56 58 59 61 63 65 66 67 68 69 69 66 64 62 62 62 62 62 63 64 65 65 65 65 67 69 71 74 76 77 78 77 76 74 75
64 63 62 61 59 58 58 59 60 61 63 65 67 68 68 68 67 66 65 64 62 61 61 62 63 64 66 68 68 67 68 70 72 74 76 78 81 81 77 72 72 74
64 64 63 63 62 61 61 61 63 64 66 68 69 69 67 66 65 65 64 63 61 59 60 61 63 66 69 71 72 72 73 73 75 78 80 81 83 81 74 69 73 79
65 64 64 64 64 64 64 64 66 67 69 70 70 68 65 64 65 65 64 62 60 60 60 62 63 66 68 71 74 76 77 78 79 82 83 85 85 82 77 77 81 85
66 65 64 64 65 66 67 68 68 68 68 68 67 67 66 66 66 65 63 62 61 62 63 65 66 67 68 70 73 76 79 81 84 85 86 86 86 85 84 82 81 81

ECMWFNIL_250_spd_015.txt.gz
Wind_Speed
27 28 28 28 29 29 29 29 30 31 32 33 33 34 36 36 37 37 37 35 34 33 34 34 35 35 36 37 37 36 34 34 36 38 39 40 40 41 41 40 39 40
29 30 30 30 31 31 30 31 32 33 34 35 35 36 38 38 39 39 38 37 36 35 35 35 36 37 38 37 37 35 34 34 35 37 39 41 42 43 43 41 40 41
31 31 32 32 32 32 32 32 33 34 36 37 38 38 39 41 41 40 39 38 37 37 36 36 37 39 39 38 36 34 34 34 35 37 38 38 41 43 43 41 42 43
32 33 33 34 34 34 33 34 34 35 37 39 39 40 41 42 42 41 41 40 39 38 37 36 37 39 39 38 36 35 35 36 37 38 37 37 40 42 42 42 42 41
34 35 35 35 35 35 35 35 36 37 39 40 41 41 42 42 43 43 42 40 37 36 36 37 39 41 41 40 38 37 38 39 40 41 40 40 40 40 41 42 41 38
36 37 37 37 36 37 37 37 38 39 40 41 43 43 43 43 43 43 40 36 33 33 36 38 41 44 45 45 43 41 40 41 43 43 42 41 40 39 39 40 38 39
38 39 38 38 38 38 39 39 40 41 42 43 45 44 44 44 45 45 43 38 35 37 39 41 45 48 49 49 48 46 44 45 46 45 44 42 40 40 40 40 41 44
39 40 40 39 40 40 41 41 42 43 44 44 46 46 47 47 47 47 47 45 42 42 43 46 50 51 51 50 50 50 50 51 51 49 47 43 40 42 44 44 46 47
40 41 41 42 42 43 43 43 43 44 45 45 47 48 49 50 48 45 44 44 44 45 46 49 50 50 49 51 52 52 53 55 55 52 48 45 43 46 47 48 49 49
42 43 43 44 45 46 45 45 45 46 46 47 49 50 51 52 48 44 42 41 43 45 47 49 49 49 50 52 52 52 53 55 54 50 47 46 47 50 51 52 52 52
44 45 45 46 47 48 48 46 46 47 47 48 51 53 54 53 50 47 45 44 44 45 47 49 49 49 50 51 51 51 51 53 54 52 51 53 56 57 57 57 56 56
46 47 47 48 50 51 50 49 48 49 49 48 50 52 54 55 53 51 48 47 47 47 47 49 50 50 51 52 52 52 53 54 55 56 57 60 62 62 61 59 58 58
47 48 50 50 52 53 53 52 51 51 51 51 51 51 52 54 54 52 50 48 47 47 48 50 52 53 54 54 55 56 57 59 60 60 61 62 63 63 61 60 59 58
50 51 52 52 53 54 54 55 54 53 53 53 53 53 53 53 53 53 52 51 50 50 51 53 55 56 57 58 60 60 61 62 63 63 63 62 63 62 61 59 58 57
52 53 53 54 55 55 55 56 55 55 56 56 55 55 54 53 54 53 53 53 53 54 54 55 57 58 59 61 62 64 64 65 64 63 62 61 61 60 59 57 57 56
55 55 55 55 56 56 57 57 56 56 57 57 56 56 55 54 54 54 54 54 55 56 57 58 58 60 61 62 65 66 66 64 63 63 62 61 61 60 58 57 57 56
58 58 57 57 57 57 58 58 58 57 57 57 56 56 55 55 54 54 54 55 56 57 58 59 60 62 63 65 65 65 64 63 64 64 64 63 63 63 61 60 59 60
61 61 60 59 59 58 58 59 59 58 58 57 57 56 56 56 55 55 55 55 56 57 58 60 62 64 64 65 64 62 62 63 64 64 65 64 64 65 65 64 64 64
64 63 61 61 60 60 60 60 60 59 59 59 58 58 57 57 56 55 55 56 57 58 60 61 63 64 63 63 61 60 61 62 62 64 64 63 64 66 68 68 69 69
65 64 63 63 62 62 61 61 61 61 60 60 59 59 59 58 58 57 56 57 58 60 62 62 63 64 63 61 60 59 60 63 64 64 63 62 64 67 68 70 72 73
67 66 65 65 65 64 63 62 63 63 62 61 61 60 60 60 59 58 58 59 60 61 63 63 63 63 61 59 58 60 63 65 66 66 64 65 67 69 70 72 74 75
69 69 68 69 68 67 66 65 65 65 64 63 63 62 61 61 60 60 60 61 61 63 64 64 63 62 60 59 59 62 65 67 67 67 67 68 69 70 72 74 75 75
71 71 72 72 71 69 68 68 68 67 66 65 65 64 62 61 62 62 62 63 63 65 66 66 64 63 62 62 62 65 68 70 69 69 70 71 72 72 73 73 74 74
73 73 74 74 73 71 71 71 70 69 68 67 66 65 64 64 64 65 66 66 66 67 68 68 66 66 66 66 67 70 72 73 73 74 75 76 77 78 78 77 76 75
74 75 75 75 73 72 72 72 72 71 69 68 67 66 66 66 66 68 69 69 69 70 71 70 69 70 70 71 72 74 75 76 77 78 79 80 80 81 82 81 79 77
76 76 76 76 75 74 74 73 71 70 70 69 68 67 68 68 68 70 71 72 72 73 73 72 71 71 72 73 74 76 77 79 80 80 80 81 81 82 81 80 78 77

ECMWFNIL_250_spd_018.txt.gz
Wind_Speed
24 24 24 24 24 24 25 26 27 29 30 31 32 32 33 34 35 37 38 39 38 38 39 38 38 38 36 33 32 32 35 38 39 40 40 40 39 38 39 40 42 42
26 25 25 25 25 25 26 27 28 30 31 33 33 34 35 35 36 38 40 40 39 40 40 40 40 39 36 34 34 35 37 39 40 41 41 41 41 42 42 43 45 45
27 26 26 26 26 26 27 28 30 31 32 33 34 35 36 36 37 39 41 42 42 42 41 41 41 39 37 37 38 39 40 40 40 40 41 41 42 44 45 45 46 46
29 28 28 27 28 28 29 30 31 33 33 34 35 36 37 37 38 39 41 43 44 44 44 43 42 40 38 37 38 40 42 42 42 42 42 43 44 46 46 46 46 46
31 31 30 29 29 30 31 32 34 34 35 35 36 37 38 38 39 40 41 43 44 45 46 45 44 43 41 38 37 40 43 43 44 44 44 43 45 47 48 48 47 46
33 33 32 31 32 32 33 34 36 36 37 37 37 38 39 40 41 42 43 44 45 46 47 47 46 45 44 42 41 42 44 45 45 46 46 46 46 47 49 49 48 46
34 34 34 33 34 35 36 37 37 38 39 39 39 40 41 41 42 43 44 46 47 47 48 48 48 47 46 45 44 44 44 45 45 46 48 49 50 50 51 51 50 48
36 36 35 35 37 38 38 38 39 40 41 41 41 42 43 43 44 44 46 47 48 48 49 49 50 49 48 46 46 44 44 44 45 46 49 51 53 54 54 54 54 53
38 38 38 39 40 40 40 41 41 42 42 43 43 43 44 45 45 46 47 48 49 49 49 50 50 50 49 49 48 47 45 45 46 48 51 53 55 56 57 58 58 58
40 40 41 42 43 43 43 43 44 44 44 44 45 46 46 47 48 48 48 49 50 50 50 51 51 51 50 50 50 49 48 48 49 51 53 55 57 58 59 59 60 59
42 43 44 45 45 45 45 46 46 46 46 46 47 47 48 49 49 50 50 50 51 52 52 52 51 51 51 51 50 50 50 51 53 55 56 57 58 59 59 59 60 59
45 46 47 48 47 47 48 48 48 49 49 48 48 49 50 51 51 51 52 52 53 54 54 53 52 52 52 51 50 50 52 53 55 56 57 57 58 59 60 59 60 59
48 49 50 50 50 49 49 50 50 51 51 51 50 50 51 52 52 53 53 54 55 55 55 55 54 53 53 52 51 50 52 54 56 57 57 57 58 60 59 59 60 59
50 52 53 53 52 51 51 52 52 52 53 53 53 52 52 52 53 55 56 56 56 57 57 56 56 55 54 53 52 51 53 55 56 57 58 58 59 59 57 57 59 58
53 54 55 55 55 54 53 53 54 54 54 55 56 55 54 54 54 56 58 59 58 57 58 58 57 57 56 55 53 52 53 55 57 58 59 60 58 55 55 58 59 59
55 57 57 58 57 56 56 55 55 55 55 56 57 58 57 57 56 57 58 60 59 59 59 59 59 59 58 57 55 54 55 56 58 60 59 58 55 54 57 60 61 61
57 59 59 60 60 59 58 57 57 56 56 57 58 58 59 59 59 58 58 59 60 60 60 60 60 59 58 57 56 56 56 57 59 60 59 57 55 55 58 62 63 65
59 60 61 62 62 61 60 59 59 58 58 59 59 59 60 60 60 60 60 59 59 60 61 61 60 59 59 59 58 57 57 58 60 60 60 60 59 59 61 65 67 68
61 62 62 63 63 63 62 61 61 60 61 61 61 61 61 61 61 62 62 61 60 60 60 59 59 60 61 61 60 58 58 59 60 61 61 61 61 63 66 68 69 70
63 63 64 64 64 64 64 63 63 63 64 64 64 64 64 64 64 64 64 63 62 60 58 58 59 59 60 61 62 61 60 60 61 61 58 57 59 65 69 70 71 72
65 65 65 65 66 66 65 66 66 66 67 67 68 68 68 67 67 66 66 65 62 60 59 61 62 61 61 62 63 64 63 62 62 62 59 59 64 69 71 72 73 74
67 67 67 67 67 67 67 68 68 69 70 70 71 71 71 71 70 69 68 65 62 62 63 64 65 65 65 65 66 66 66 65 65 66 65 66 70 72 73 74 75 75
69 69 69 68 68 68 69 70 71 71 72 73 74 74 74 74 73 72 70 67 65 65 66 67 67 68 68 69 69 69 69 68 69 70 70 71 72 73 74 75 76 77
71 71 70 69 69 70 71 72 73 73 74 75 76 77 78 78 76 73 70 68 67 67 68 69 70 70 70 71 71 71 70 70 71 72 73 73 74 75 76 77 78 79
72 72 72 71 71 72 72 73 74 75 76 77 78 79 79 77 75 72 69 68 68 69 70 71 71 71 71 71 71 71 71 71 73 74 74 75 76 77 79 79 80 81
74 73 73 73 73 74 74 75 76 76 77 78 79 80 79 76 73 71 69 69 70 71 71 72 72 72 72 72 71 72 72 73 74 75 76 77 78 79 80 81 82 83

ECMWFNIL_250_spd_021.txt.gz
Wind_Speed
21 21 20 20 20 21 21 22 23 24 25 26 27 28 29 30 31 32 33 33 34 35 36 37 38 39 40 42 43 43 43 43 42 42 41 41 41 40 39 38 38 39
23 22 22 21 22 22 23 24 25 25 26 27 28 29 30 31 32 33 34 35 35 36 37 38 39 40 41 42 43 44 44 45 45 45 45 44 43 42 42 41 40 40
24 23 23 23 24 24 25 26 26 26 27 28 29 30 31 33 34 34 35 36 36 37 38 38 39 40 41 42 43 44 45 45 46 46 46 45 44 43 43 43 43 43
25 24 24 25 26 26 27 28 28 28 28 29 30 31 33 34 35 36 36 37 37 38 39 40 40 40 41 42 43 44 45 45 46 46 45 45 44 43 43 44 44 45
26 25 26 27 28 28 29 30 30 30 30 31 32 33 34 35 36 37 38 39 40 40 41 42 42 42 42 43 44 45 46 46 46 46 46 45 44 44 44 44 45 46
27 27 28 29 30 30 31 31 31 32 33 33 34 35 36 37 38 39 40 41 42 43 43 44 45 45 44 45 45 46 47 47 47 46 46 46 45 44 44 44 45 47
29 29 30 31 32 33 33 33 33 34 35 35 36 37 38 39 40 41 42 43 44 45 46 47 47 48 48 47 47 48 48 48 48 47 47 46 46 45 44 45 46 47
32 32 32 33 34 35 35 35 36 36 37 37 38 39 40 41 42 43 44 44 45 46 48 49 49 50 51 51 50 50 49 49 49 49 48 47 47 46 46 46 47 48
34 34 35 36 36 37 36 37 38 39 39 39 39 40 42 43 44 45 45 46 47 48 49 50 51 52 52 53 53 52 52 51 51 50 50 49 48 47 47 48 49 49
36 37 37 38 39 39 39 39 40 41 41 41 41 42 43 44 45 46 47 48 49 50 50 50 51 52 53 54 55 55 54 53 53 52 51 49 49 49 48 49 51 51
39 40 40 41 41 41 41 42 42 43 43 43 43 43 44 45 47 47 48 49 51 52 52 52 53 53 54 55 56 56 56 55 55 53 52 51 50 50 50 51 52 52
42 42 43 43 43 43 43 44 44 44 44 44 45 45 46 47 48 49 49 51 52 53 53 53 54 55 55 56 57 57 57 57 56 54 53 52 52 52 53 53 54 54
45 45 45 46 46 45 46 46 46 46 46 45 46 47 48 50 50 50 51 52 53 54 54 54 54 56 56 56 57 58 59 58 56 54 54 54 54 54 54 54 56 56
47 47 48 48 48 48 48 48 49 49 48 46 46 47 49 51 52 53 53 54 55 56 56 55 56 57 57 56 56 56 57 56 54 53 55 55 55 55 55 56 56 54
50 50 50 50 50 50 51 51 51 51 50 49 48 49 49 51 53 55 55 56 57 58 58 58 58 59 58 57 56 55 55 55 54 54 56 56 56 56 57 56 55 54
52 52 52 52 52 52 53 53 53 52 51 51 51 51 52 52 53 55 57 58 59 59 60 60 61 60 60 59 58 56 55 55 56 57 58 58 57 57 58 58 57 56
54 54 54 54 54 55 55 55 54 54 53 53 53 54 54 55 55 57 59 61 61 61 62 63 63 63 62 61 61 59 58 57 58 59 59 59 59 59 59 59 57 55
57 56 56 56 56 57 57 57 56 55 55 55 55 57 57 57 58 59 61 63 64 64 65 66 66 66 65 65 64 63 62 60 61 62 61 61 61 61 60 59 56 55
59 58 58 58 59 59 59 59 58 57 57 57 58 59 59 60 61 62 62 64 65 67 68 69 69 69 68 68 67 66 65 64 64 64 64 63 64 63 62 61 59 60
61 61 61 61 61 61 62 61 60 59 59 59 59 60 61 62 63 64 64 65 67 68 70 71 72 71 70 70 69 68 67 67 67 67 66 66 66 65 64 64 64 66
64 63 63 63 63 64 64 64 63 62 61 61 61 63 64 64 64 66 67 68 68 70 71 73 74 74 72 71 71 70 69 68 68 68 68 67 67 67 67 67 68 69
67 66 66 66 66 67 67 67 66 64 63 62 63 65 66 66 67 68 69 70 71 72 73 75 75 75 74 73 72 72 70 69 68 68 69 68 68 68 68 70 71 72
70 69 69 69 69 70 70 69 69 68 66 64 65 66 67 68 69 70 72 73 74 75 76 78 79 77 76 75 74 72 71 70 69 69 69 69 69 69 70 71 73 74
73 72 72 72 72 72 72 71 71 71 68 66 66 67 68 69 71 72 74 76 76 78 79 81 81 79 78 76 74 73 71 71 70 70 70 70 70 72 73 74 75 76
75 75 74 74 74 73 73 73 73 71 69 68 69 70 70 71 72 74 76 77 78 79 81 81 80 80 79 77 75 73 72 71 71 71 71 71 73 74 75 76 77 78
78 77 76 76 75 75 75 75 75 73 73 73 74 73 73 73 74 75 76 78 79 80 81 81 80 79 78 77 75 74 73 73 73 73 73 74 75 76 77 78 79 80

ECMWFNIL_250_spd_024.txt.gz
Wind_Speed
15 17 19 20 21 22 21 21 20 20 19 20 21 22 23 24 25 26 28 29 30 31 32 33 34 35 35 35 35 35 35 36 37 38 39 40 40 39 39 38 38 38
16 18 20 21 22 23 23 22 21 21 21 22 23 23 24 25 27 28 29 30 31 32 34 35 36 37 37 37 37 36 37 37 38 40 41 42 42 42 41 40 39 39
17 19 21 23 23 24 24 23 23 22 22 24 24 25 25 27 28 29 30 31 32 33 34 35 37 38 38 39 39 39 39 39 40 41 42 43 43 43 43 42 41 40
19 20 23 24 24 25 25 25 25 25 25 26 26 26 27 28 30 31 32 33 34 34 35 36 37 38 39 40 41 40 40 41 41 42 43 44 44 45 45 43 42 41
21 22 24 25 26 26 26 26 27 27 27 28 29 28 29 30 31 33 34 35 35 36 36 37 37 38 39 40 41 42 42 42 42 43 43 44 45 46 45 43 42 42
24 24 25 26 27 28 28 28 29 29 30 31 31 31 31 32 33 34 35 36 37 37 37 38 38 38 39 39 41 42 43 43 43 43 44 44 45 45 44 43 43 43
26 26 26 27 28 29 29 30 31 31 32 33 33 33 33 34 35 35 36 38 39 39 39 39 39 39 40 40 41 41 42 44 44 44 45 45 46 46 45 45 45 44
28 28 29 28 29 30 30 32 33 33 34 35 35 35 36 36 37 38 38 40 40 41 42 42 42 42 42 42 42 43 43 44 45 45 45 46 47 47 47 47 46 46
32 31 31 31 31 32 33 34 35 36 37 37 37 37 38 38 39 40 41 42 43 43 44 45 45 44 45 45 45 45 45 46 46 46 47 48 49 49 49 49 48 49
34 34 34 34 34 34 35 36 37 38 39 39 39 39 40 40 41 42 43 44 45 46 46 47 47 47 48 48 48 48 48 49 49 49 49 50 51 51 51 51 51 52
36 37 37 37 36 36 37 38 39 40 41 41 41 41 41 42 43 44 45 46 48 49 49 49 50 50 51 51 51 51 51 51 51 51 51 52 52 53 53 53 53 53
38 39 39 39 38 38 39 40 41 42 43 44 43 43 44 45 46 46 47 49 50 51 51 52 53 53 54 54 54 54 53 52 53 53 53 54 54 54 54 54 55 55
40 41 41 41 41 41 41 43 43 44 45 46 45 45 46 47 48 48 49 51 52 53 54 55 55 55 56 57 57 57 56 55 55 55 55 56 56 56 56 56 56 57
42 42 43 43 43 43 44 44 45 46 47 47 47 47 49 50 50 51 52 53 54 55 56 56 56 56 58 60 60 60 59 58 58 57 57 58 59 59 59 59 58 59
44 44 45 45 45 45 46 46 47 48 49 49 49 49 51 52 52 53 54 55 56 57 58 58 58 59 61 62 62 62 62 61 61 61 61 61 62 62 62 62 61 61
46 47 48 48 47 47 47 48 49 50 51 51 51 51 52 53 55 56 57 58 59 59 60 61 62 62 63 64 64 65 65 64 64 65 65 65 65 65 65 65 65 64
50 50 50 49 49 49 49 50 51 52 53 54 53 53 54 55 57 58 59 60 61 61 62 63 64 64 64 65 66 68 68 68 68 68 68 68 68 68 68 68 68 67
51 52 51 51 51 51 51 52 53 54 55 55 55 55 56 57 58 60 60 61 62 63 64 65 66 65 64 66 69 71 71 71 71 71 71 71 71 71 71 70 70 70
52 53 53 53 53 53 53 53 55 56 57 57 58 58 58 59 60 61 62 62 63 64 65 67 67 67 67 69 72 74 73 73 73 73 73 74 74 74 73 73 72 72
53 55 56 55 54 54 54 55 56 57 58 60 61 61 61 61 62 63 63 63 64 65 67 68 69 69 71 73 75 75 75 74 74 74 75 76 76 76 75 75 74 73
53 54 55 55 54 54 55 56 58 60 61 62 63 64 64 64 65 65 65 65 66 67 69 70 71 72 73 74 75 75 75 75 75 76 77 77 78 78 77 76 74 73
53 54 55 56 56 56 58 59 61 63 64 65 66 67 67 67 68 67 67 67 68 69 70 71 72 74 74 74 73 74 75 76 77 78 79 79 78 78 77 76 75 75
56 56 57 58 59 60 62 63 64 65 66 67 69 69 70 70 70 70 69 69 70 71 72 72 73 74 74 72 72 74 77 78 79 80 80 80 79 78 77 77 76 76
58 58 60 61 63 64 66 67 67 68 69 70 71 71 72 73 72 72 71 71 72 73 73 73 73 74 74 72 73 76 79 81 82 82 81 80 79 79 78 77 77 76
61 62 63 66 67 68 70 70 71 72 72 73 73 74 75 75 75 74 73 73 74 75 75 75 74 75 75 75 76 79 81 82 83 83 82 80 79 79 78 77 77 77
64 67 68 70 72 73 73 73 74 75 75 75 75 75 76 77 77 76 75 75 76 77 78 78 77 77 77 78 79 81 81 83 83 83 82 81 80 79 78 78 77 77

ECMWFNIL_250_spd_027.txt.gz
Wind_Speed
17 17 16 14 13 12 11 11 12 13 15 17 19 20 20 21 22 23 24 25 27 28 29 30 30 31 32 33 33 34 34 34 35 35 35 36 37 37 38 38 38 38
19 19 18 17 16 15 13 12 12 13 15 18 20 21 21 22 23 24 25 26 28 29 30 31 31 32 33 34 34 35 35 35 36 36 36 37 38 39 39 40 40 40
21 21 20 20 19 18 16 14 14 14 16 19 21 22 22 23 25 26 27 28 29 30 31 32 33 33 34 35 35 36 36 36 37 37 37 38 39 40 41 42 42 43
23 23 23 22 22 21 19 17 16 16 17 20 22 22 23 25 26 27 28 29 30 31 32 33 34 35 36 36 37 37 37 38 38 38 39 39 40 41 42 44 45 45
24 25 25 24 23 23 22 20 19 19 19 21 23 24 24 26 28 29 30 31 32 32 33 34 35 36 37 39 39 39 40 41 41 41 41 41 42 43 43 45 46 47
26 26 26 25 25 25 24 23 22 22 21 23 25 26 26 28 29 30 31 32 33 33 34 35 37 38 39 41 41 42 43 44 43 43 44 44 44 44 45 46 47 48
27 27 27 27 27 26 25 25 25 25 25 26 28 28 29 30 31 31 33 34 34 34 35 37 38 39 41 42 43 45 45 46 45 45 46 46 46 46 47 47 49 50
28 29 29 29 29 28 27 27 27 28 28 30 31 31 31 32 33 33 34 35 36 36 37 38 39 41 42 43 45 46 47 47 47 48 49 48 48 48 49 50 51 52
30 31 31 32 32 31 29 29 29 29 30 32 33 33 33 35 35 36 36 36 37 37 38 39 41 42 43 44 46 47 49 49 50 50 51 51 50 50 50 52 53 54
31 31 32 33 33 32 30 30 30 31 31 34 35 35 36 37 38 38 38 38 39 39 40 41 42 43 44 46 47 48 49 50 51 52 52 52 52 52 53 55 56 56
31 32 33 33 33 32 31 31 32 32 33 35 37 37 38 39 40 40 40 40 40 41 41 42 43 44 45 47 48 49 50 51 52 53 53 54 54 55 57 58 58 57
33 33 34 34 33 33 33 33 34 34 35 37 39 39 40 41 42 41 41 41 42 42 43 43 44 46 47 49 50 51 52 53 53 53 54 55 56 57 60 60 59 57
35 35 36 35 35 35 35 36 37 37 38 39 40 41 42 43 43 43 42 42 43 44 44 45 46 47 49 51 52 53 54 55 55 55 56 56 57 59 61 61 60 57
37 38 38 38 38 38 38 39 39 39 40 41 42 44 44 45 45 45 44 44 45 45 46 47 48 49 52 53 54 55 56 56 58 58 59 58 59 60 61 62 60 58
39 40 40 40 40 40 41 42 42 42 42 43 45 47 46 46 47 47 46 46 46 47 48 49 50 52 54 55 56 57 57 58 60 61 61 61 62 62 62 63 62 60
42 43 43 42 42 43 43 44 44 44 44 45 48 49 48 48 48 48 48 48 48 50 51 51 53 54 56 58 58 58 58 60 62 63 63 64 64 63 64 65 63 62
45 45 45 45 45 45 46 46 46 46 47 48 50 51 50 50 51 51 50 49 50 51 53 54 55 56 58 59 60 59 60 62 63 64 65 65 65 65 66 67 66 65
48 47 47 47 47 48 48 49 48 48 49 50 52 53 53 52 52 52 51 50 52 54 55 56 57 58 60 61 61 61 62 64 65 65 66 66 67 67 68 68 68 67
50 49 50 50 51 50 51 51 50 51 51 52 54 56 55 54 54 53 52 53 55 57 57 58 59 60 61 62 62 63 64 65 67 67 67 68 69 69 69 68 68 67
52 52 53 54 55 53 52 52 52 53 54 55 57 58 57 56 56 56 55 56 58 59 60 60 60 61 63 63 63 64 65 67 68 68 68 69 71 72 71 69 68 67
56 55 56 57 58 57 55 54 54 55 57 57 59 60 59 59 59 58 58 59 60 61 62 63 63 64 65 64 65 66 67 68 69 69 69 70 72 73 71 69 68 66
59 60 60 60 60 59 57 56 56 58 60 61 62 63 62 61 61 60 60 61 62 63 65 65 66 66 66 67 68 68 68 69 70 70 70 72 73 73 70 70 68 65
62 63 63 62 61 59 59 59 60 61 62 63 64 64 63 63 63 62 62 63 64 65 66 68 68 69 69 70 71 71 71 71 72 71 71 72 73 71 69 68 65 63
65 65 65 63 61 60 60 62 63 64 64 65 66 66 65 65 65 64 64 65 66 67 69 70 70 71 72 73 74 74 73 72 72 72 71 70 70 69 66 64 62 63
67 67 66 64 63 62 62 65 67 67 66 67 68 67 67 68 67 66 65 66 68 69 70 72 73 74 75 76 76 75 74 74 73 71 68 66 65 63 61 60 62 63
70 69 68 66 65 65 66 68 70 69 68 69 70 70 70 70 69 68 68 68 69 70 72 73 75 75 76 77 79 78 76 73 68 64 61 60 58 57 58 60 62 63

ECMWFNIL_250_spd_030.txt.gz
Wind_Speed
15 14 13 13 11 10 10 10 10 11 13 14 14 13 12 11 12 12 13 14 16 17 17 17 18 19 20 22 23 25 26 27 28 29 29 30 31 32 33 34 34 34
17 17 16 16 14 13 12 12 12 13 15 17 17 17 16 15 15 15 15 16 17 18 18 18 19 20 21 22 24 25 26 27 28 30 30 31 32 33 34 36 36 36
19 19 19 18 17 16 15 14 13 14 16 18 19 20 19 18 18 19 19 19 19 19 19 20 20 21 22 23 24 25 27 28 29 31 31 32 33 34 36 37 38 39
19 20 20 20 19 18 17 16 15 16 18 20 21 22 22 21 21 23 23 22 21 21 21 21 22 22 23 24 25 27 28 29 31 32 33 34 35 36 37 38 40 40
20 20 21 21 21 21 20 18 17 17 19 21 22 24 25 24 24 26 26 25 24 23 23 23 23 24 25 26 27 28 29 31 32 34 35 36 37 38 39 40 41 42
23 22 23 23 23 23 23 20 19 20 21 22 24 26 27 26 26 27 27 27 26 26 25 25 25 26 27 28 29 30 31 32 34 36 37 38 39 40 40 41 43 44
26 26 26 26 26 26 25 23 21 22 23 24 26 28 29 29 29 29 29 29 28 28 27 27 27 28 29 30 31 33 33 34 36 38 39 40 41 41 42 43 45 46
29 29 29 29 28 28 27 25 24 25 26 28 29 30 30 31 30 31 31 31 30 29 29 29 29 30 31 32 34 35 36 36 37 39 41 42 43 43 44 45 47 48
32 32 31 31 31 30 29 28 26 27 29 31 32 31 32 32 32 33 33 33 32 32 31 31 31 32 33 35 36 37 38 38 39 40 42 43 44 45 46 47 49 50
33 33 33 33 32 31 31 30 28 28 30 32 32 33 34 34 34 34 35 35 34 34 34 34 34 34 35 37 38 40 40 40 41 42 43 44 45 46 47 47 50 51
35 35 35 34 34 33 32 31 30 31 31 33 34 35 36 36 35 36 38 37 36 37 37 37 37 37 37 39 40 42 42 42 43 44 45 46 47 48 48 49 51 53
37 37 36 36 35 35 34 33 32 33 34 35 35 37 38 38 37 38 40 39 39 40 41 40 40 40 40 41 43 44 44 44 45 46 47 47 48 50 50 50 52 55
38 38 38 38 37 36 36 35 35 36 36 37 37 38 40 40 40 40 42 42 42 43 43 43 43 43 43 44 46 46 46 46 48 49 49 49 50 52 53 53 54 56
40 39 39 39 39 39 38 38 38 38 39 39 39 40 41 43 43 42 43 44 45 45 45 45 46 46 45 47 48 47 47 48 51 52 51 51 52 54 55 55 55 58
40 40 41 41 41 41 41 41 41 41 41 41 42 42 43 45 46 45 46 47 48 47 46 47 48 48 48 49 48 48 50 51 53 54 54 54 55 57 57 57 58 60
42 42 43 44 44 44 44 43 44 44 44 44 45 45 45 48 50 49 49 50 50 49 48 49 50 50 50 50 50 51 53 54 56 57 57 57 58 59 59 59 61 62
45 46 46 47 47 47 47 46 47 47 47 47 48 47 48 50 52 52 52 53 52 51 51 52 52 52 52 52 52 54 55 57 58 59 60 60 61 62 62 61 63 63
49 50 50 50 50 50 50 50 50 50 50 51 51 50 50 51 54 55 55 54 54 53 54 55 54 54 55 55 55 56 57 59 60 61 62 63 63 64 64 64 64 62
54 54 54 54 54 53 53 53 53 53 54 54 53 53 52 53 55 57 57 57 56 56 56 57 57 57 57 57 57 57 59 60 61 63 63 64 65 66 67 67 66 60
58 58 58 57 57 56 56 55 56 57 57 57 56 55 54 55 57 59 59 59 59 59 58 59 59 59 59 59 58 59 60 61 63 64 64 65 66 67 67 67 61 51
62 62 62 61 60 59 58 58 59 60 60 60 59 57 57 57 59 60 61 62 62 61 61 61 61 62 61 60 60 60 61 63 65 65 65 66 67 66 64 59 49 39
66 66 65 64 63 61 61 62 63 64 64 63 61 60 59 60 61 63 63 63 63 63 63 63 64 64 63 62 62 62 62 64 65 65 65 67 67 63 56 48 40 35
69 68 68 67 65 63 63 65 66 66 66 66 64 62 61 61 63 64 65 64 65 65 65 65 65 65 64 64 64 63 64 65 65 65 65 66 65 58 49 42 38 38
72 70 69 68 67 67 67 67 67 68 68 67 66 64 62 62 64 65 66 66 67 67 66 66 66 66 66 66 66 65 65 66 66 65 65 65 63 55 46 41 41 42
75 73 71 71 71 71 70 70 69 69 69 68 66 65 65 64 65 66 67 68 68 69 67 67 67 67 68 69 68 67 67 67 66 65 64 64 62 53 45 42 44 47
78 76 75 75 74 74 74 74 73 73 71 69 67 67 67 67 67 69 69 70 70 70 69 69 69 69 70 72 70 69 70 70 67 65 65 63 58 51 47 46 50 56

ECMWFNIL_250_spd_033.txt.gz
Wind_Speed
15 14 13 12 12 11 10 11 11 12 12 11 10 10 10 10 11 12 13 13 14 15 15 15 14 13 13 14 14 15 16 18 19 20 22 23 24 26 28 30 31 33
17 16 15 15 14 14 14 14 14 14 14 14 13 12 11 11 12 13 14 15 16 17 17 17 17 16 16 17 17 17 17 18 20 22 23 24 25 27 29 30 32 34
18 18 17 17 17 17 17 17 17 16 17 17 16 15 13 13 14 14 16 17 17 18 18 18 19 19 19 20 20 20 20 20 22 23 24 25 26 28 29 31 33 35
20 19 19 19 19 19 19 19 18 18 18 19 19 18 17 16 17 17 18 19 19 20 20 20 21 21 22 23 23 23 23 23 24 25 26 27 28 29 30 32 34 36
20 20 20 19 19 20 20 20 19 19 20 21 22 22 20 20 20 20 20 21 22 22 22 22 23 23 24 25 26 26 26 26 26 27 28 29 30 32 32 34 36 37
21 20 20 20 21 21 22 21 20 20 21 22 23 24 24 23 23 23 23 23 23 24 24 24 25 25 26 27 28 29 29 29 29 30 31 31 33 34 34 36 38 39
23 23 23 23 24 24 24 24 23 22 22 23 25 26 26 26 26 25 25 24 25 25 26 26 26 27 28 29 30 31 32 32 32 32 33 34 35 36 36 38 40 42
26 26 26 26 27 27 27 26 26 26 25 26 27 28 28 28 28 27 26 26 26 27 27 28 28 29 29 30 31 33 35 35 34 34 35 36 37 38 38 41 43 45
29 29 29 30 30 30 29 29 28 28 28 29 30 30 30 30 30 29 29 28 28 29 30 30 30 31 31 32 33 34 37 37 36 36 37 38 39 39 41 43 45 47
31 31 31 32 32 32 32 31 30 30 30 31 32 33 33 33 32 32 31 30 29 30 32 33 33 33 33 33 34 35 38 38 38 38 39 40 41 41 42 45 46 48
34 34 34 34 34 34 34 33 32 32 32 33 34 34 35 34 34 33 33 32 32 32 34 36 36 36 36 36 36 37 39 40 39 40 41 41 42 42 44 46 47 48
38 37 36 36 36 36 35 35 35 34 34 34 35 36 36 35 35 34 34 34 34 34 37 39 39 39 39 38 38 39 40 41 41 42 42 43 43 44 46 47 48 49
41 39 38 38 38 37 37 37 37 36 36 36 36 37 37 37 36 36 36 37 37 37 39 41 42 42 42 41 41 41 42 43 43 44 44 44 45 46 47 48 48 49
42 41 40 40 40 39 39 39 38 38 38 38 38 38 38 38 38 38 39 39 39 40 41 43 44 45 44 44 44 43 44 45 45 45 45 46 47 48 48 49 49 50
42 41 42 42 42 41 41 40 40 40 40 40 39 39 39 40 40 41 41 41 41 42 44 45 47 48 47 46 46 46 46 47 47 48 47 48 49 49 49 49 49 51
44 43 43 44 43 43 42 42 42 42 42 42 42 41 41 42 42 43 43 43 43 44 46 48 49 50 49 49 49 49 49 50 50 50 50 50 50 50 50 50 50 52
46 45 45 45 45 45 44 44 44 44 44 44 45 44 44 44 45 46 46 46 46 47 49 50 52 52 51 51 52 52 52 52 52 52 52 52 52 52 52 51 51 52
49 48 48 48 48 47 47 47 47 47 48 48 48 48 47 47 47 48 48 49 49 50 51 52 53 54 53 54 55 55 55 55 55 54 54 54 54 53 53 52 52 53
53 53 52 51 51 51 50 50 50 51 51 51 51 51 50 50 50 50 51 52 53 53 53 54 55 56 56 56 57 58 57 57 57 57 57 56 56 55 55 54 54 54
56 57 57 56 55 54 54 54 54 55 55 55 55 54 53 54 54 53 54 55 56 56 56 56 58 58 59 59 60 61 60 59 59 59 59 59 58 58 57 56 55 56
59 61 62 60 58 57 57 57 58 58 58 58 58 58 57 57 57 56 57 57 58 58 58 59 60 61 61 61 62 63 62 60 60 61 61 61 61 60 59 58 58 58
62 64 64 64 62 60 59 60 61 61 62 61 61 60 60 60 59 59 59 59 59 60 60 61 62 63 63 63 64 64 63 62 61 63 64 64 63 62 61 60 60 61
65 66 67 67 66 64 62 62 63 64 64 64 64 63 62 62 62 62 61 60 61 62 62 63 64 65 65 65 66 66 65 64 63 64 65 66 66 65 64 63 63 64
69 69 70 70 70 68 67 66 67 67 67 66 66 66 65 65 65 65 64 63 62 63 64 65 66 66 67 68 68 68 68 67 66 66 67 68 68 67 66 65 65 66
68 70 71 72 72 71 71 71 71 70 69 69 69 69 69 69 69 69 68 67 66 66 67 68 69 69 70 71 71 71 71 69 68 69 70 71 70 70 68 67 66 67
61 63 66 68 70 70 71 72 72 72 72 72 72 72 72 73 72 72 71 70 70 70 71 72 72 73 73 74 74 74 74 72 71 72 73 72 72 71 70 69 68 68

ECMWFNIL_250_spd_036.txt.gz
Wind_Speed
16 14 14 12 11 11 10 10 10 9 7 6 6 5 5 6 6 7 7 8 8 10 11 12 13 14 14 15 16 16 16 17 19 20 22 24 25 26 27 29 30 30
18 17 16 15 13 13 13 13 13 12 11 10 9 9 9 9 9 9 10 11 12 13 14 15 15 16 16 17 17 18 18 18 19 21 22 24 26 27 28 30 30 31
20 20 19 17 16 16 16 16 16 15 14 14 13 12 12 12 12 12 13 14 15 16 17 17 18 18 18 18 19 20 19 19 20 22 23 24 26 28 29 30 31 32
21 21 20 19 19 18 18 18 18 17 17 17 16 16 15 14 15 15 16 16 17 19 19 19 20 20 20 20 21 22 22 21 22 23 24 25 27 28 29 31 32 33
22 21 21 20 20 20 20 20 19 19 18 18 19 19 18 18 18 18 19 19 19 20 21 21 21 21 21 21 23 24 24 24 24 24 25 26 28 29 30 32 33 34
23 23 22 22 22 22 22 20 19 18 19 19 20 20 21 21 21 21 22 22 22 22 23 23 23 23 23 23 24 26 26 26 26 26 27 28 29 30 31 32 33 34
24 24 23 23 22 22 21 19 19 19 19 20 22 23 23 23 24 24 25 26 26 26 26 26 25 25 25 25 26 27 28 28 28 28 29 30 30 31 32 33 34 35
25 25 24 23 22 22 21 21 21 21 22 23 24 25 26 26 27 27 28 29 29 29 28 28 28 27 27 28 28 29 30 30 30 30 30 31 32 33 34 34 35 36
27 26 25 24 24 23 23 23 24 24 25 26 27 28 28 29 29 29 30 30 31 31 30 30 29 29 29 30 30 31 31 32 32 32 32 33 33 34 35 36 37 38
30 28 27 27 26 26 26 26 26 27 27 28 29 29 30 30 30 31 31 31 32 31 31 31 31 31 31 31 32 33 33 34 34 34 34 34 35 36 36 37 39 40
32 31 30 29 29 29 29 29 29 29 29 30 30 30 31 32 32 32 32 32 32 32 32 33 33 33 33 33 34 35 35 35 36 36 36 36 37 37 38 39 40 41
35 34 33 32 32 32 32 32 32 32 32 32 32 33 33 33 33 33 33 33 33 33 33 34 35 35 36 36 36 37 37 37 38 39 38 38 39 39 40 41 42 42
38 37 35 34 35 35 36 35 35 35 35 35 35 35 35 35 35 35 35 35 34 34 34 35 36 38 38 38 38 39 39 39 40 41 41 40 41 41 42 43 44 44
41 39 38 37 38 38 39 39 38 38 38 38 38 37 37 37 37 37 37 37 36 36 36 36 38 40 41 41 41 41 42 42 42 43 43 43 43 43 44 45 46 47
42 41 41 40 41 41 42 42 41 41 41 40 39 39 39 38 38 39 39 39 38 38 38 38 39 42 43 43 43 43 44 45 45 45 45 45 45 46 46 47 48 49
45 45 44 43 44 44 44 44 43 43 42 42 41 41 40 40 40 40 40 40 40 39 39 40 41 43 45 45 45 46 47 48 48 48 48 48 48 48 48 49 50 51
47 47 46 46 46 45 45 45 44 44 43 43 43 43 42 42 42 42 41 41 41 41 42 42 44 45 47 47 48 48 50 51 51 50 50 50 51 50 50 51 52 53
48 48 48 48 47 46 46 46 45 45 45 45 45 44 44 44 44 44 44 44 44 44 45 45 46 48 49 50 50 51 52 53 54 53 53 53 54 53 53 53 54 55
49 49 49 49 48 47 47 47 47 47 47 48 47 46 46 47 47 46 47 48 48 48 48 48 49 51 52 52 53 53 54 55 56 56 56 56 56 56 56 56 56 57
51 51 51 51 50 50 49 50 50 50 51 51 50 50 50 50 50 50 50 51 51 52 52 52 53 54 54 55 55 56 56 57 58 58 58 58 59 58 58 59 59 59
54 54 53 54 54 53 53 53 53 54 54 54 53 53 53 53 53 53 53 53 54 54 55 55 56 56 57 57 58 58 58 59 59 60 60 61 61 61 61 61 62 62
56 56 56 56 56 56 56 57 57 57 57 56 56 55 56 56 56 57 57 56 56 56 57 58 59 59 60 61 60 60 60 61 62 63 63 63 64 64 64 65 65 64
59 59 59 59 59 60 61 61 61 60 60 59 59 59 59 60 60 60 60 59 59 60 60 61 62 63 64 64 64 64 64 64 65 65 66 66 67 67 67 67 68 67
58 58 58 59 60 61 63 63 63 63 63 62 62 63 63 64 64 63 63 63 63 64 64 64 65 66 67 68 68 68 67 67 68 68 69 69 70 70 70 70 70 69
52 52 53 54 55 56 58 59 60 60 61 60 61 61 62 63 63 63 62 63 63 64 64 65 65 66 68 69 70 70 69 69 69 70 70 70 71 72 72 71 70 70
46 47 48 48 49 50 51 52 53 54 54 54 55 55 56 57 57 57 57 58 58 59 59 60 61 62 63 65 66 66 67 67 67 67 67 68 69 70 69 69 68 67

ECMWFNIL_250_spd_039.txt.gz
Wind_Speed
14 13 12 11 10 9 7 7 7 6 5 5 5 5 5 6 5 4 4 5 6 7 9 10 11 12 13 14 14 14 14 15 17 19 20 21 22 23 23 24 24 25
16 15 14 13 11 10 9 10 9 8 7 7 8 8 9 9 9 8 8 9 10 11 12 12 13 14 15 16 16 16 16 17 18 19 21 22 23 23 24 25 25 25
19 18 17 15 14 13 13 13 11 10 10 10 10 11 12 12 12 12 12 12 13 14 15 15 15 16 17 18 18 18 18 18 19 20 21 22 23 24 25 26 26 27
21 20 19 18 17 17 16 15 13 13 13 13 13 14 14 14 14 14 14 14 15 16 17 17 18 18 19 20 21 21 20 20 20 20 22 23 23 24 25 26 27 27
21 21 20 20 20 19 18 17 16 15 16 16 17 17 16 16 16 16 16 17 18 18 19 20 20 20 21 22 22 23 22 22 22 22 22 23 24 25 26 27 27 28
20 20 20 20 21 21 20 19 18 18 18 18 18 18 17 17 17 17 18 19 21 21 22 22 23 23 23 23 24 24 24 24 24 24 24 24 25 26 27 28 28 29
21 20 21 21 22 22 21 20 19 19 19 19 19 19 18 19 19 19 20 21 23 24 24 25 25 24 24 24 25 25 26 25 26 26 25 26 26 27 28 29 30 30
24 23 22 22 22 22 22 21 21 20 20 20 20 20 21 21 21 22 22 23 24 25 26 26 26 26 25 25 25 26 27 27 27 27 28 27 28 29 29 30 31 32
28 27 25 23 23 23 23 23 22 22 22 22 22 22 23 24 24 24 24 24 25 26 27 28 28 28 27 27 26 27 28 28 28 29 30 30 30 31 32 32 33 34
32 31 28 26 25 25 25 25 24 24 25 25 25 25 25 25 25 26 26 26 26 27 28 29 29 30 30 29 28 28 30 30 31 31 32 32 33 33 34 35 36 36
34 33 32 29 27 26 27 27 27 27 27 27 27 27 27 27 27 28 28 28 28 28 29 30 31 32 32 32 30 30 31 32 32 33 33 35 36 36 36 37 38 38
36 35 34 31 29 29 29 29 30 30 29 29 29 29 29 30 30 30 31 31 31 31 31 32 33 33 34 34 33 32 32 32 34 35 35 37 38 39 39 40 40 40
38 37 35 33 32 32 32 32 32 32 31 31 31 32 32 32 33 33 33 34 34 33 34 34 34 35 35 36 35 33 33 33 35 37 38 39 40 41 42 42 43 43
40 38 36 34 34 34 35 35 34 34 34 34 34 34 35 35 35 36 36 37 36 36 36 36 36 36 36 37 36 35 35 35 36 38 40 41 42 44 45 45 46 46
40 38 37 35 35 36 37 36 36 36 36 36 36 37 37 38 38 39 39 39 39 39 38 38 38 38 38 38 38 37 37 38 39 40 42 43 44 46 47 48 49 49
38 37 37 36 36 37 37 37 37 38 38 39 39 40 40 40 41 41 42 41 41 41 40 40 40 40 40 40 40 40 40 41 42 43 45 46 47 48 50 50 51 51
39 38 38 37 38 38 39 39 39 40 41 42 42 43 42 43 43 43 43 43 42 42 42 42 43 43 43 43 43 43 43 44 45 46 47 49 50 51 52 52 53 53
41 41 40 40 41 41 42 42 42 43 44 45 45 45 45 45 45 45 45 44 44 44 44 45 45 45 46 46 46 46 47 47 48 49 50 51 52 53 54 54 55 56
43 42 42 44 44 44 45 45 45 46 46 47 47 47 47 47 47 47 46 46 47 47 47 48 48 49 50 49 49 49 49 50 51 51 52 53 55 55 56 57 58 59
44 44 44 45 46 46 46 46 47 47 47 48 48 48 49 48 48 48 48 49 49 50 51 51 52 53 53 53 52 52 53 54 54 55 56 57 58 58 59 60 61 62
45 45 45 46 47 47 47 48 48 48 49 49 50 50 50 50 50 51 51 51 52 52 53 55 55 56 56 56 56 57 57 58 58 60 61 62 62 62 62 63 63 65
47 47 47 48 49 49 50 50 51 51 51 51 51 52 53 53 53 53 54 54 55 55 56 57 58 59 60 61 61 61 61 61 62 62 63 64 64 63 63 63 63 64
49 49 50 51 51 52 53 54 54 54 53 53 54 55 55 56 56 56 57 57 58 58 58 59 60 61 62 63 63 63 62 61 61 60 59 60 60 59 59 59 59 59
52 53 53 54 55 56 56 56 56 56 56 56 57 57 57 57 58 58 58 59 59 59 59 59 59 60 60 60 60 60 59 57 55 54 53 53 54 54 55 55 55 56
54 54 55 55 56 57 57 56 56 56 56 56 56 55 55 55 56 56 56 55 55 55 55 55 54 54 54 55 55 55 55 53 51 50 49 50 51 51 52 53 53 55
51 51 51 52 52 52 52 51 51 51 51 51 51 51 51 51 51 50 50 50 50 50 50 50 50 50 50 51 51 52 53 52 51 50 49 49 49 49 49 51 52 54

ECMWFNIL_250_spd_042.txt.gz
Wind_Speed
17 16 15 13 13 11 10 9 9 8 7 6 6 5 4 4 4 3 2 3 3 4 6 7 7 8 10 11 13 14 14 14 14 15 16 16 18 19 20 21 22 23
18 18 16 15 14 12 11 11 10 8 7 6 5 5 5 5 4 4 5 6 7 8 8 9 10 11 12 13 14 15 16 16 16 16 16 17 17 18 19 20 22 23
20 19 18 16 15 14 13 12 10 9 8 7 7 7 8 7 7 8 8 8 9 10 11 11 12 13 14 14 15 16 17 18 18 17 17 17 18 18 19 20 21 23
21 19 18 17 16 16 15 13 12 11 10 10 10 10 10 10 10 10 10 10 11 11 11 12 13 14 15 16 16 16 17 18 19 18 18 18 19 19 20 21 22 23
23 21 20 19 18 18 17 16 15 14 14 14 13 13 13 12 12 12 12 12 12 12 12 13 14 15 16 17 17 17 17 18 19 20 20 20 20 21 21 22 23 24
25 23 22 21 21 20 20 19 18 18 18 17 16 16 15 15 14 13 12 12 13 14 15 15 16 17 18 18 18 19 19 20 20 21 22 22 22 23 23 24 24 25
27 25 24 23 23 23 23 22 21 21 20 19 19 18 18 17 16 14 13 13 14 16 18 18 19 19 19 19 20 20 21 22 22 23 24 24 24 24 25 25 26 27
29 28 27 26 25 25 24 23 22 22 22 22 22 21 20 19 17 15 15 16 17 18 19 20 21 21 22 22 21 22 24 25 25 25 26 26 26 27 27 27 28 29
31 30 29 28 27 26 24 23 23 24 25 25 24 23 22 21 19 17 18 18 19 20 20 21 22 23 24 25 25 25 26 27 28 28 28 28 29 29 29 30 30 31
32 31 30 29 28 26 24 23 24 25 26 26 25 25 24 22 21 20 20 21 20 21 21 22 24 25 26 28 28 28 28 29 30 31 31 31 31 32 32 33 34 34
34 32 31 30 29 27 26 26 26 26 27 27 27 26 25 24 24 24 24 23 22 22 23 24 25 27 28 30 31 31 30 31 31 33 34 34 34 34 35 36 37 38
35 34 33 31 30 29 29 29 29 28 28 28 28 28 27 27 27 27 27 26 25 25 26 26 28 29 31 32 33 33 33 33 33 34 35 36 37 37 38 39 40 41
37 36 34 33 32 31 32 32 32 31 29 29 30 30 30 30 30 30 30 29 29 29 29 30 31 32 33 34 35 35 35 35 36 36 37 38 39 40 40 41 43 44
39 37 36 35 34 34 34 34 34 33 32 32 32 32 32 32 32 32 32 32 32 32 33 33 34 34 35 36 37 37 38 38 38 39 39 40 41 42 43 45 46 47
41 39 39 37 36 36 36 35 34 34 34 34 34 34 34 34 34 34 34 35 35 35 36 37 37 37 38 39 39 40 40 41 41 41 42 43 44 45 47 48 49 50
42 41 40 39 38 38 37 36 36 36 36 36 36 36 35 35 36 36 36 37 37 38 39 39 40 40 41 41 42 42 42 43 44 44 45 47 48 49 50 51 51 52
43 43 42 40 40 40 39 39 38 38 38 38 38 37 37 37 38 38 38 38 39 40 41 42 42 43 43 43 43 44 44 45 46 48 49 50 51 52 52 53 54 55
44 43 43 42 42 41 41 40 40 40 40 40 39 39 39 39 39 39 40 40 41 42 42 43 43 44 44 44 45 45 46 47 49 51 52 53 53 54 55 56 57 58
44 44 44 43 43 42 41 41 41 41 41 40 39 39 39 40 40 41 41 41 42 43 44 44 45 45 46 46 47 48 49 50 52 54 55 56 57 57 58 59 60 60
45 45 44 44 43 42 41 41 41 41 40 40 40 40 41 42 42 42 43 43 43 44 45 46 46 47 48 49 50 51 51 53 55 56 58 59 60 60 60 60 59 59
45 44 44 44 43 43 42 42 42 41 41 41 42 42 42 43 43 43 43 44 44 45 47 48 49 50 51 52 53 54 54 56 57 58 59 60 60 59 58 56 55 53
45 44 44 43 43 43 43 43 43 42 42 42 42 43 43 43 43 44 45 46 47 48 49 50 52 53 55 56 56 57 57 57 57 56 55 55 55 54 53 52 51 50
44 43 43 43 43 43 43 43 43 42 42 42 42 44 44 45 45 46 47 49 50 51 52 53 55 56 58 58 58 57 55 53 51 49 48 48 49 49 49 50 50 50
43 43 43 43 44 44 44 44 43 43 43 43 44 46 47 47 48 49 50 52 53 54 55 55 56 56 56 55 53 51 48 46 44 43 44 44 44 45 45 47 48 49
45 45 45 45 45 46 46 45 46 46 47 47 47 48 50 50 51 52 53 54 54 54 54 53 52 50 49 48 46 45 43 41 40 40 41 41 41 41 41 42 44 45
47 47 47 47 47 48 48 48 49 49 50 50 51 51 51 52 53 53 53 52 51 50 48 47 45 44 43 42 42 41 41 40 39 40 39 39 39 39 40 41 42 43

ECMWFNIL_250_spd_045.txt.gz
Wind_Speed
22 21 20 19 18 18 17 16 15 14 13 12 10 9 9 8 7 7 6 5 5 4 4 4 4 5 6 7 9 10 11 12 12 13 14 15 15 16 17 18 19 20
23 22 22 20 20 19 18 17 16 15 13 12 10 9 9 8 7 7 7 6 6 6 6 6 6 7 7 8 10 11 12 13 14 15 15 16 17 17 18 18 20 21
25 24 23 22 21 20 19 17 16 14 13 12 11 10 9 9 8 8 8 8 8 8 8 8 8 8 9 9 11 12 13 14 15 16 17 17 18 19 20 20 21 21
26 25 23 22 21 20 19 17 16 15 14 13 12 12 10 10 9 9 9 10 10 10 10 9 9 9 10 10 11 12 13 15 16 17 18 19 19 20 21 22 22 23
26 25 24 22 21 20 18 17 16 16 15 14 13 12 12 11 11 11 11 12 12 12 11 10 10 11 11 11 12 12 14 15 17 18 19 20 21 22 23 24 24 25
27 26 24 24 23 21 20 19 18 17 16 15 15 14 14 14 14 14 14 14 14 14 13 12 12 12 13 13 13 13 14 16 18 20 21 22 23 24 25 26 27 27
28 27 26 26 25 24 23 22 21 19 18 18 17 17 17 17 17 17 16 16 16 16 15 15 15 15 15 15 15 15 16 17 19 21 23 24 25 26 27 28 28 29
30 30 30 29 27 25 24 23 22 21 21 20 20 20 21 20 20 19 18 18 18 17 17 17 17 17 17 17 17 18 18 19 21 23 25 26 27 28 29 30 30 31
34 33 31 29 28 26 24 23 23 22 22 22 22 23 23 22 22 21 20 20 19 19 19 19 19 19 19 19 19 20 22 23 24 25 27 28 30 31 32 33 33 34
36 34 32 30 28 26 25 25 24 23 23 23 24 24 24 23 23 23 22 22 21 21 21 21 21 21 21 22 22 23 24 26 27 28 29 30 32 33 34 35 36 36
37 35 33 31 30 28 27 26 25 25 24 24 25 25 24 24 24 25 24 24 23 23 23 24 24 23 24 24 25 26 27 29 30 31 32 33 34 35 36 37 37 38
39 37 35 33 32 30 29 28 27 26 26 26 26 26 25 25 26 26 26 26 25 25 24 25 26 26 27 27 28 29 30 31 33 34 35 36 37 37 38 38 39 40
40 38 37 35 33 32 31 30 29 28 28 28 28 28 28 27 27 27 27 27 27 27 27 27 28 29 30 30 30 31 32 33 35 37 38 39 39 39 39 40 41 43
41 39 38 37 35 34 33 32 31 30 30 30 30 30 31 31 30 29 28 28 29 29 30 30 31 32 31 32 32 33 34 36 37 39 40 41 41 41 41 42 44 46
41 40 39 38 37 36 35 34 33 32 32 32 32 33 34 34 33 32 31 31 31 32 33 33 33 33 33 33 34 36 37 38 40 41 41 42 42 43 44 45 46 48
42 40 39 39 38 38 37 36 35 35 35 35 35 35 35 35 34 33 33 33 34 34 35 35 35 34 35 35 36 38 39 40 41 42 42 43 44 45 46 48 49 51
43 41 39 39 39 39 38 37 37 37 37 37 37 37 37 36 35 35 35 36 36 36 36 35 35 36 36 37 38 39 40 42 42 43 44 45 46 47 49 50 52 54
44 42 41 40 40 40 39 39 38 39 39 39 39 38 38 38 37 37 37 38 38 37 37 36 37 37 38 38 39 40 41 42 43 44 45 47 48 50 51 52 53 54
44 44 43 42 42 41 41 40 41 41 41 40 40 40 40 39 39 39 39 39 38 37 37 37 38 38 38 39 39 40 41 43 45 46 48 49 50 52 53 53 52 50
44 44 44 44 43 42 42 42 43 43 42 41 41 41 40 40 39 39 39 39 38 38 38 38 39 39 39 39 40 40 42 44 47 49 50 51 52 52 51 49 46 44
44 44 44 43 43 43 43 44 44 43 42 41 41 41 40 40 39 39 39 38 38 39 40 39 39 39 40 40 41 42 44 46 49 51 52 52 51 49 46 43 41 40
44 44 43 43 43 43 44 44 43 42 42 41 41 41 40 40 40 39 39 39 39 40 40 40 40 40 41 42 43 44 46 48 50 51 51 49 47 44 41 40 39 38
45 44 43 43 43 43 44 44 43 42 41 41 41 41 41 40 39 39 39 39 39 40 40 41 41 42 43 44 45 47 48 49 48 47 46 43 41 39 38 39 38 38
45 44 43 42 42 43 43 43 42 42 41 40 41 41 41 40 39 39 39 40 40 41 42 43 44 45 47 48 49 49 49 47 45 42 39 37 35 35 37 38 39 39
44 44 42 42 43 43 43 43 42 41 41 40 40 40 40 39 39 39 40 41 42 43 45 46 46 48 49 49 49 48 46 43 39 37 35 33 33 35 37 39 40 40
43 43 43 43 43 44 43 42 42 41 40 40 40 40 40 41 41 42 42 43 45 46 47 48 49 49 49 48 45 43 40 37 35 35 34 34 34 36 37 39 40 41

ECMWFNIL_250_spd_048.txt.gz
Wind_Speed
25 24 24 23 23 22 22 21 20 18 17 16 16 16 15 14 13 12 12 11 10 9 7 6 5 6 6 6 7 8 9 11 12 13 14 15 16 18 19 20 21 22
26 25 24 24 23 23 23 21 20 19 18 17 16 16 15 15 14 13 13 12 11 10 9 8 8 8 8 8 8 9 10 11 12 13 13 15 16 18 19 21 22 23
26 26 25 25 24 24 23 21 20 19 18 18 17 17 16 15 15 14 13 13 13 12 11 10 10 9 9 9 9 9 10 11 12 12 13 15 17 18 20 21 23 24
27 27 26 26 25 25 23 22 21 20 20 19 19 18 17 16 16 15 15 14 14 13 13 12 11 10 10 9 9 10 11 11 12 13 14 16 17 19 21 22 24 25
28 27 27 26 26 25 23 23 23 22 22 21 20 19 18 17 17 16 16 16 15 14 13 12 12 12 11 9 9 11 12 12 13 14 15 17 18 20 22 23 25 26
30 29 27 26 26 25 25 25 25 25 24 23 21 20 19 18 18 18 17 16 14 14 13 13 13 13 12 11 11 11 12 13 14 16 17 18 20 21 23 25 26 28
31 29 28 27 27 27 27 28 27 26 25 23 22 21 20 20 19 18 17 16 15 14 14 14 15 15 14 13 13 13 13 14 16 18 19 20 21 23 25 27 29 30
31 29 29 30 30 30 30 30 28 27 26 24 24 23 22 20 19 18 17 17 17 16 16 16 17 17 16 15 15 15 16 16 18 19 21 22 24 25 27 29 31 33
32 32 32 33 33 33 32 31 29 28 27 26 25 23 22 21 21 20 19 19 19 19 18 18 18 18 18 17 17 18 18 20 21 21 23 24 26 27 29 31 33 35
35 35 35 35 35 35 33 32 31 29 28 26 25 24 24 23 23 22 21 21 20 20 19 19 19 19 19 19 20 20 22 23 23 24 25 26 28 30 31 33 35 36
37 37 37 37 36 36 34 33 32 31 29 28 27 26 26 25 24 23 22 22 21 20 20 20 20 20 21 22 23 24 25 25 25 26 28 29 31 32 34 36 37 38
39 39 39 38 38 37 36 35 34 32 31 30 29 29 28 27 25 24 22 22 21 21 21 21 21 22 23 25 26 27 28 27 28 28 30 32 33 35 36 37 38 38
42 41 40 40 39 38 38 37 35 34 33 32 31 30 29 27 26 24 23 22 22 21 21 22 22 24 25 27 28 30 30 30 31 31 32 34 35 37 38 39 39 39
44 43 42 41 41 41 40 38 37 36 35 34 33 32 30 28 27 26 25 24 23 23 24 24 25 26 27 29 30 31 32 33 34 34 35 35 36 38 39 40 40 41
46 45 44 43 43 43 42 40 39 38 37 36 34 33 32 30 29 28 27 26 26 26 27 27 28 29 29 30 31 32 33 35 35 36 37 37 37 38 39 40 41 43
47 45 45 45 45 44 43 42 41 40 39 38 36 35 33 32 30 29 28 28 28 28 29 30 30 31 31 32 33 33 34 35 36 37 38 38 39 39 39 40 42 44
47 46 45 45 45 45 45 44 43 42 41 40 38 37 35 33 32 31 30 30 30 30 31 32 32 32 32 33 34 35 35 35 36 37 38 39 40 40 40 42 44 46
48 47 46 45 45 45 45 45 44 44 43 42 40 39 37 35 34 33 32 32 32 33 33 33 33 34 34 35 35 36 36 36 36 37 39 40 40 41 42 44 46 47
49 48 46 46 45 45 44 44 44 44 43 42 41 40 39 37 36 35 35 34 34 34 35 35 35 35 35 35 35 36 36 37 38 38 39 40 41 42 44 46 48 49
48 47 46 46 46 46 45 45 45 43 42 41 40 40 39 38 37 37 37 37 36 36 36 36 35 35 34 34 35 37 38 38 38 39 39 40 42 44 46 48 48 48
46 45 45 45 46 47 47 48 47 45 43 41 40 40 39 39 39 39 39 38 38 38 37 36 35 34 34 35 36 38 39 39 39 40 41 42 44 46 47 48 47 46
44 44 44 44 44 46 47 48 48 46 44 42 41 41 41 41 41 41 40 39 39 38 37 36 35 35 35 36 36 37 38 39 40 41 43 44 46 46 47 46 45 42
41 43 43 43 44 45 47 47 47 46 45 44 43 43 43 43 42 41 40 40 39 38 37 36 36 36 36 35 35 36 38 40 42 44 45 46 47 47 46 44 42 39
37 40 41 43 44 45 46 46 46 45 44 44 44 44 44 43 42 41 40 40 39 38 37 37 36 36 35 35 36 37 39 41 44 46 47 47 46 45 44 41 38 36
32 36 39 41 43 45 45 46 45 44 44 44 44 44 44 43 41 41 40 40 39 39 38 37 36 36 37 37 38 39 41 43 45 46 46 45 43 41 39 37 36 35
31 33 36 39 42 44 45 45 45 45 44 44 44 44 43 42 42 41 41 40 40 39 38 38 38 38 39 40 40 41 43 45 46 46 45 43 40 38 36 34 34 34

ECMWFNIL_250_spd_051.txt.gz
Wind_Speed
25 24 23 22 21 21 20 20 19 18 17 16 16 16 15 15 14 14 13 13 12 11 10 8 6 6 5 6 7 8 8 9 10 10 11 12 14 15 16 18 20 21
25 24 24 23 21 21 20 20 19 19 19 18 17 17 17 16 16 15 15 14 13 12 11 10 8 8 8 8 8 8 8 8 9 10 11 12 14 15 17 18 20 22
26 25 24 23 21 21 20 21 20 20 20 19 19 19 18 17 17 17 16 15 14 13 12 11 11 11 10 10 10 9 9 9 9 10 11 13 14 16 17 19 21 23
27 26 25 24 23 23 22 22 21 21 20 20 20 20 19 19 18 17 17 15 14 13 13 12 12 12 13 12 12 11 10 9 10 11 12 13 15 17 18 20 21 23
29 27 26 26 25 25 24 22 22 22 21 22 22 21 21 19 18 18 17 16 15 14 14 14 14 14 14 14 14 13 12 11 11 12 13 15 16 17 19 21 22 24
31 30 29 28 27 26 25 24 24 23 23 23 23 22 22 20 19 18 17 16 15 15 15 15 15 15 15 15 15 15 14 14 14 14 15 16 17 18 19 21 24 25
33 32 31 30 29 27 26 26 26 26 25 25 25 24 23 22 21 19 18 17 17 16 16 16 15 15 15 15 15 15 15 15 16 16 17 18 18 19 21 23 24 26
34 33 32 31 29 29 28 28 28 28 28 27 26 25 24 23 22 21 20 19 18 17 17 16 16 15 15 15 16 16 16 16 17 18 18 19 19 20 22 24 26 28
35 34 33 32 31 31 31 31 30 30 29 28 27 26 25 25 24 23 21 20 19 18 18 18 17 17 17 17 17 17 18 18 19 20 20 20 21 22 24 26 28 29
36 35 34 33 32 33 34 33 32 32 30 29 28 27 26 26 25 24 22 21 20 20 19 19 19 19 20 20 20 20 20 21 21 22 22 23 23 25 26 28 30 31
39 38 36 35 34 35 35 35 34 33 31 31 30 29 28 27 27 25 24 23 22 22 21 21 21 21 21 21 21 21 22 22 23 23 24 25 26 28 29 30 31 32
40 40 38 37 36 36 36 36 35 34 32 32 31 30 30 29 28 27 25 25 24 24 23 23 22 22 22 22 22 22 22 23 23 24 25 27 28 29 30 31 32 33
42 41 40 38 38 38 37 37 36 35 34 33 32 32 31 31 30 28 27 26 26 26 25 24 23 23 22 23 23 23 23 24 25 25 26 28 29 30 31 32 32 33
42 42 41 40 40 40 40 39 38 37 35 35 34 33 33 32 31 30 29 28 27 27 26 25 25 24 24 25 25 25 25 25 26 27 28 29 31 31 32 32 32 33
42 42 43 43 43 43 42 41 39 38 37 36 36 35 34 33 33 32 30 30 29 28 27 27 26 26 26 26 26 26 26 27 27 29 30 31 32 32 32 32 33 34
42 43 44 45 45 45 43 41 40 39 38 38 37 36 36 35 34 33 32 31 30 29 28 28 28 28 28 28 28 28 29 29 30 31 32 32 32 32 33 33 33 34
43 45 45 46 46 45 44 43 42 40 40 39 38 38 38 37 36 34 33 32 31 30 30 30 30 30 30 30 30 31 31 32 32 33 33 33 32 32 33 34 34 35
44 45 46 47 47 46 46 45 43 42 42 41 40 39 39 38 37 35 34 34 33 33 32 32 32 32 32 32 32 33 33 34 34 34 34 33 33 33 34 35 35 35
44 45 46 47 47 47 47 47 46 45 44 43 42 40 40 39 38 37 36 36 35 35 35 34 34 34 34 34 34 34 35 35 35 35 34 34 34 34 35 35 35 35
44 44 46 47 47 47 47 48 48 48 46 45 43 42 42 41 39 38 38 38 37 37 37 36 36 36 36 36 36 36 36 36 36 35 35 35 35 36 36 36 35 36
43 43 44 45 46 47 48 49 49 49 48 47 45 45 43 41 40 39 39 38 38 38 38 38 38 38 38 38 38 38 38 37 37 36 36 37 36 36 37 36 36 37
40 40 41 42 45 47 49 50 50 50 50 48 47 46 44 42 40 40 39 38 38 39 39 39 39 39 39 39 39 40 40 39 38 38 37 37 37 37 38 38 38 39
36 37 39 40 43 46 49 50 51 51 50 49 48 47 45 43 41 40 40 39 40 41 41 41 40 40 40 40 40 41 41 40 39 39 38 38 38 38 39 39 40 41
34 35 36 38 40 44 47 49 51 51 51 51 50 49 47 45 44 43 43 43 44 44 44 42 41 41 42 41 40 41 42 41 40 40 39 38 38 39 40 40 41 42
32 33 34 35 37 41 44 47 50 51 51 51 51 50 48 47 45 44 45 45 46 46 45 44 42 42 42 41 40 41 42 42 41 41 39 39 39 41 41 42 43 42
32 32 33 34 36 39 42 45 48 49 50 51 51 49 47 46 45 45 46 46 47 47 46 44 43 42 42 41 41 41 42 42 42 42 40 40 41 42 43 44 44 42

ECMWFNIL_250_spd_054.txt.gz
Wind_Speed
25 24 24 23 22 21 20 19 17 16 15 14 13 12 11 10 10 10 10 9 8 8 7 6 5 4 4 5 7 9 9 10 10 10 11 12 13 14 15 17 19 21
25 25 24 24 23 22 21 20 18 17 16 16 14 13 12 12 12 12 12 11 10 9 9 8 7 6 6 6 8 9 10 11 11 11 11 12 13 14 15 17 19 21
26 25 25 24 23 23 22 21 19 18 18 17 15 14 14 13 13 13 13 12 12 11 10 9 9 8 7 8 9 11 12 12 12 11 12 13 14 15 15 17 19 22
27 26 25 24 24 23 23 22 21 20 19 18 17 16 16 15 15 15 14 13 13 12 11 10 10 9 9 10 11 12 13 13 13 12 12 13 15 16 17 17 20 22
27 26 26 26 25 25 25 23 23 22 21 20 19 18 18 17 17 16 15 15 14 13 12 11 10 10 10 11 12 13 13 13 13 13 13 14 16 17 18 19 20 23
28 28 27 27 27 27 26 25 24 23 23 22 22 21 20 19 19 18 17 16 14 13 12 12 11 11 11 12 12 13 13 13 14 14 15 15 16 17 18 19 21 24
30 29 29 29 29 29 27 26 26 25 25 24 24 23 22 21 20 19 18 17 15 14 13 12 12 12 12 12 13 13 13 14 15 15 16 16 17 17 19 20 22 25
32 30 30 30 31 30 29 28 28 27 27 26 25 24 23 22 21 20 19 17 16 15 14 14 13 13 14 14 14 14 15 15 16 17 17 18 18 19 20 21 23 25
32 32 32 32 32 31 30 30 30 29 28 27 26 26 25 23 22 21 19 18 17 16 15 15 15 15 15 15 16 16 16 17 18 18 19 19 19 20 20 21 23 25
34 34 33 33 33 32 32 32 31 31 31 29 29 28 26 24 23 22 21 19 18 18 17 17 16 16 17 17 17 17 17 18 18 18 18 19 19 20 21 22 24 25
36 36 36 34 33 32 32 32 32 33 32 31 30 29 27 26 25 24 22 21 20 20 19 18 18 18 18 17 17 18 18 18 17 18 18 19 20 21 22 24 25 26
38 39 38 36 33 33 33 33 33 33 33 32 31 29 28 27 26 25 24 23 22 22 21 20 20 19 18 18 18 18 18 18 18 19 19 20 21 22 23 25 26 27
39 40 39 36 34 34 34 34 33 33 33 33 32 30 30 29 28 27 26 25 25 24 23 22 22 21 19 19 18 19 19 19 20 20 21 22 23 24 25 26 27 28
40 40 39 37 36 35 35 35 35 34 34 34 33 32 32 31 30 29 28 28 27 26 25 24 23 22 21 20 20 20 20 20 21 21 22 24 25 25 26 27 28 28
40 40 39 39 38 37 37 37 36 35 35 35 35 34 33 32 31 31 31 30 29 28 27 26 25 23 23 22 22 22 22 21 21 22 24 25 26 27 27 28 28 27
39 39 39 39 40 40 39 38 37 36 36 36 35 35 35 34 33 33 33 32 31 30 29 28 27 25 25 24 24 24 23 23 23 24 25 26 27 28 28 29 29 28
39 39 39 40 41 42 41 40 39 38 37 36 36 36 36 35 35 35 34 33 33 32 31 30 28 27 27 26 26 26 25 25 25 25 27 28 28 29 29 29 29 29
40 40 40 40 42 43 42 41 41 40 38 38 37 37 37 37 37 37 36 35 35 34 33 32 31 30 29 29 28 28 28 27 27 27 28 29 30 30 30 30 30 30
40 41 41 41 41 42 43 43 43 42 41 40 39 38 38 38 39 39 38 37 37 37 35 34 33 33 32 31 31 31 30 30 29 29 30 30 31 31 31 31 31 31
38 40 41 41 42 41 42 44 45 45 43 42 41 40 40 41 40 39 39 39 39 38 37 37 36 35 34 33 33 33 33 32 31 31 31 32 32 33 32 32 32 32
37 38 39 40 41 42 43 44 46 46 46 45 44 43 42 42 41 40 40 41 40 40 40 39 38 37 36 35 35 35 35 33 32 32 33 33 33 34 33 33 33 32
38 37 37 37 39 41 43 44 45 46 46 46 46 45 44 44 43 43 42 42 41 41 41 41 40 38 38 38 37 36 35 34 33 34 34 35 35 34 34 34 34 33
40 39 38 37 37 39 42 43 43 44 45 46 47 47 46 46 45 44 43 43 43 43 43 42 41 41 40 40 38 37 36 35 35 36 36 36 36 35 35 35 34 34
42 41 40 38 37 38 40 41 42 43 43 45 48 49 49 48 47 45 45 44 45 45 45 44 43 43 42 41 40 39 38 38 38 38 38 38 36 36 36 36 35 34
43 42 41 40 38 38 38 39 41 42 42 44 46 49 50 50 49 48 47 46 46 46 46 45 45 45 44 43 42 42 42 41 41 41 40 38 37 37 38 37 36 35
46 44 42 40 39 37 37 38 40 40 41 43 45 47 48 49 50 50 50 49 48 48 47 47 47 47 47 46 45 44 44 44 43 43 41 39 38 38 39 38 37 36

ECMWFNIL_250_spd_057.txt.gz
Wind_Speed
26 26 25 24 23 22 20 18 17 16 15 13 13 12 10 9 8 7 6 5 4 4 3 3 3 3 3 4 6 8 9 9 9 9 9 10 11 13 14 16 18 20
25 25 25 25 24 23 21 20 19 18 16 16 15 13 12 11 10 8 7 7 6 5 5 4 4 4 4 4 6 7 9 9 9 9 9 10 11 13 14 16 18 19
25 25 25 25 24 23 22 21 20 19 18 17 16 14 13 13 11 10 9 8 8 7 6 6 6 6 5 5 6 7 8 9 9 10 10 11 12 13 15 16 17 19
25 25 25 24 24 24 24 23 21 21 20 19 17 17 16 15 14 12 11 10 9 9 8 8 7 7 7 6 6 7 8 9 9 10 11 12 13 14 15 16 18 20
24 24 24 25 25 25 25 24 23 22 21 20 20 19 18 17 16 14 13 12 11 10 9 9 9 8 8 7 6 7 7 8 10 10 11 13 13 14 15 17 19 20
24 24 25 26 26 26 25 24 24 24 23 23 22 21 20 19 18 16 15 13 12 11 11 10 10 9 9 8 7 7 8 9 10 11 12 13 14 15 16 18 19 20
27 25 25 26 27 27 26 25 26 25 25 25 24 23 21 21 19 18 17 15 13 13 12 12 11 10 10 9 8 8 9 10 11 12 12 13 14 15 16 17 19 20
29 27 26 26 27 27 27 27 27 27 27 26 25 24 23 22 21 20 18 17 15 14 14 13 13 12 11 10 9 10 11 12 13 12 12 12 13 14 16 17 19 20
30 30 29 28 28 28 27 28 27 27 28 27 27 26 25 24 23 21 20 18 17 16 16 16 15 14 12 11 11 11 12 14 14 12 11 11 12 14 16 18 19 21
32 32 31 30 29 28 28 28 28 28 28 28 27 27 26 25 25 23 21 20 19 18 18 18 17 15 14 13 12 12 13 14 14 12 11 11 13 14 16 18 20 21
33 34 33 32 31 30 29 29 29 29 29 28 28 28 27 27 26 25 23 22 21 21 21 20 19 18 16 15 14 14 15 15 14 13 12 13 14 15 17 18 20 21
33 35 35 34 32 31 30 30 30 30 29 29 29 29 28 28 28 26 24 23 23 23 23 22 21 20 18 17 16 16 16 16 15 14 15 15 16 16 18 19 20 22
35 36 36 35 33 32 32 32 31 31 30 30 30 29 29 29 28 27 26 25 26 26 25 24 23 22 21 20 19 18 18 17 16 16 16 17 18 18 19 20 21 22
36 36 36 35 34 33 33 33 33 32 31 30 31 31 30 29 28 28 27 28 28 28 27 26 25 24 23 22 21 21 20 19 18 18 18 19 20 20 21 21 22 23
36 35 35 35 34 34 34 35 35 35 33 32 32 32 31 30 29 29 29 30 30 29 29 28 27 26 25 25 24 24 23 21 20 20 20 21 21 22 22 23 23 24
35 35 34 34 35 36 36 37 37 37 36 35 34 32 31 30 30 30 31 31 31 31 31 30 29 28 28 27 26 26 25 24 23 22 23 23 23 24 24 24 24 25
35 35 34 34 35 36 38 38 38 38 38 37 35 34 33 32 31 32 32 31 32 32 32 31 31 30 30 29 29 28 28 26 25 25 25 25 25 25 26 26 26 26
35 35 35 35 35 36 37 39 40 39 39 39 38 37 35 34 34 33 32 32 33 34 34 33 32 32 32 31 31 31 30 29 28 27 28 28 27 27 28 28 27 27
36 35 35 36 36 35 36 38 40 40 40 40 40 39 38 37 36 35 34 34 34 35 34 34 34 34 34 33 33 33 32 31 31 31 31 30 30 30 30 29 28 28
37 36 36 36 36 36 36 37 39 40 41 41 40 40 40 40 39 37 36 36 36 36 35 35 36 36 36 35 35 35 34 34 34 34 34 33 32 32 31 30 30 29
39 38 37 36 36 36 37 38 39 39 40 39 39 40 41 41 40 40 39 39 38 37 37 37 37 37 37 37 37 37 37 36 36 36 36 36 35 34 33 32 31 31
41 40 39 38 37 36 37 38 38 38 38 38 39 39 40 41 42 42 42 41 41 40 39 39 38 38 39 39 39 39 39 39 39 38 38 37 36 35 34 33 32 32
43 42 41 40 39 38 38 37 37 36 36 37 38 39 40 41 42 43 43 43 44 43 43 42 41 40 40 40 40 41 41 40 40 39 39 39 38 37 36 36 35 35
45 44 43 41 40 39 38 37 37 36 35 36 37 39 40 41 41 42 43 45 46 46 46 45 44 43 42 42 42 43 43 42 41 40 41 40 39 39 39 38 38 38
46 45 44 43 42 41 39 38 37 36 35 35 36 37 39 40 41 42 44 45 46 48 48 47 46 46 45 45 44 45 44 43 42 42 42 42 41 41 41 41 41 41
47 47 46 45 44 42 40 39 38 37 37 37 37 37 38 40 42 43 44 45 46 47 48 48 48 47 47 47 46 47 47 46 45 44 44 43 43 43 44 44 44 43

ECMWFNIL_250_spd_060.txt.gz
Wind_Speed
27 25 23 22 21 19 18 17 15 14 12 11 9 9 8 7 5 4 4 3 3 3 3 3 3 2 1 1 3 4 5 7 7 8 9 10 11 12 13 15 17 19
27 26 25 24 22 20 18 18 17 16 14 13 12 11 10 9 8 6 6 5 5 5 4 5 4 4 3 3 3 4 5 7 8 9 10 10 11 12 13 15 17 18
26 26 26 25 23 21 20 19 19 18 17 16 14 13 12 11 10 9 8 7 7 6 6 6 6 5 5 5 4 5 6 6 7 8 9 10 11 11 13 14 16 17
27 27 26 26 25 24 23 22 21 20 19 18 16 15 15 14 13 12 11 10 8 8 7 7 7 7 7 6 6 6 7 7 7 8 9 10 11 12 12 13 15 16
27 27 27 26 26 26 26 25 24 22 21 20 19 18 17 16 15 14 13 12 10 9 9 8 8 8 8 8 8 8 8 8 7 8 10 11 12 11 11 12 14 15
26 27 27 27 28 28 27 26 25 24 23 22 22 21 19 18 17 16 15 14 13 11 10 10 10 10 9 9 9 9 9 9 8 9 10 11 11 10 11 12 13 14
26 27 27 28 29 29 29 28 26 26 25 24 23 23 22 20 19 18 17 16 15 13 12 12 12 12 11 11 11 11 11 10 10 10 10 11 10 10 10 12 13 14
27 27 27 28 29 30 29 29 28 27 26 26 25 24 23 22 21 20 19 18 17 16 14 14 14 14 14 13 13 13 12 12 11 11 11 11 10 10 11 12 13 14
27 28 28 29 29 30 30 29 29 28 27 27 26 25 24 23 23 22 21 20 19 18 16 16 16 16 15 15 15 15 14 14 13 12 12 11 11 11 12 13 14 14
27 29 29 29 30 30 30 29 29 28 28 27 26 26 25 24 24 23 22 21 20 19 19 19 18 18 17 17 17 16 16 16 14 13 13 13 12 12 13 14 14 15
27 29 30 30 30 31 30 30 29 29 28 28 27 27 26 25 25 24 24 23 22 21 21 21 20 19 19 19 19 18 18 18 17 15 15 14 14 14 15 15 16 16
28 30 31 31 30 30 31 31 31 30 29 28 28 27 27 26 26 25 25 24 23 23 23 23 22 21 20 21 21 20 20 20 19 18 17 16 16 16 16 17 17 17
30 31 32 31 29 29 30 32 33 32 31 30 29 29 28 28 27 26 25 25 25 25 25 25 24 22 22 22 22 23 22 22 21 20 19 19 18 18 18 18 19 19
31 32 33 32 30 29 29 32 34 34 33 32 31 31 30 29 28 27 26 26 26 27 27 26 25 24 23 23 24 25 25 24 24 23 22 21 20 20 20 20 20 20
32 32 32 33 32 31 30 31 33 34 34 34 34 33 32 31 30 28 27 27 27 28 28 28 27 25 25 25 26 26 26 26 26 25 24 24 23 22 22 22 22 22
33 32 32 32 33 33 33 33 33 34 35 36 36 35 34 33 32 30 29 28 28 29 29 29 28 26 26 27 27 27 28 28 28 27 27 26 25 25 24 24 24 23
34 34 33 33 33 34 35 35 34 34 35 37 37 37 37 36 35 33 31 30 29 30 30 30 28 27 27 28 28 29 29 30 30 29 29 28 28 27 27 26 26 26
34 35 35 34 34 35 35 36 36 35 36 37 38 39 38 38 37 35 34 32 31 31 32 31 29 28 29 29 30 30 30 31 31 31 31 30 30 30 29 29 28 28
35 36 36 36 36 35 35 36 36 37 38 38 39 39 39 39 38 37 36 34 33 33 33 31 30 29 30 30 31 31 32 32 33 33 33 33 32 32 31 31 30 30
35 36 37 37 37 36 35 36 37 38 38 38 39 39 40 40 40 38 37 36 36 35 34 33 32 31 31 32 32 32 33 34 35 35 35 35 34 34 33 33 32 32
37 37 38 39 39 38 37 37 38 39 39 39 39 39 40 41 40 39 38 37 37 37 36 36 35 34 33 33 33 33 34 35 36 36 36 36 36 35 35 34 34 34
39 39 40 40 41 40 39 38 39 39 39 39 39 39 39 40 39 39 38 38 37 37 37 38 37 36 36 36 35 35 36 37 37 37 37 37 37 37 37 36 36 36
40 41 41 42 42 42 42 41 41 40 39 38 38 38 38 37 37 38 39 39 39 39 40 40 40 39 39 39 38 38 39 39 39 38 38 38 38 38 38 38 38 38
41 42 42 43 43 45 45 44 43 41 39 38 38 38 37 36 36 37 39 40 41 41 42 42 42 41 41 41 42 41 41 42 41 40 40 40 40 40 40 40 40 40
42 42 43 43 45 46 47 46 45 43 41 40 39 38 37 37 37 37 39 41 42 43 44 44 43 43 43 43 43 44 44 44 44 43 43 43 42 42 42 42 43 43
42 43 44 45 46 46 47 47 47 45 44 42 41 40 39 38 38 38 38 39 41 42 43 44 43 43 43 44 44 45 46 46 46 46 46 45 45 45 45 45 46 46

ECMWFNIL_250_spd_063.txt.gz
Wind_Speed
22 21 19 18 17 15 14 12 11 10 9 7 6 5 4 4 4 3 3 2 2 2 3 3 3 4 5 5 4 5 7 8 9 10 10 11 12 13 14 15 16 17
24 22 21 19 18 17 15 14 13 12 11 10 8 7 7 6 6 6 5 5 4 4 4 4 4 5 6 6 6 6 7 8 9 9 10 11 12 13 14 15 16 17
25 24 23 21 20 18 17 17 16 15 14 12 11 10 9 8 8 8 8 7 6 5 5 5 6 7 7 8 8 8 8 8 8 9 9 10 12 13 14 14 16 16
26 26 25 23 22 20 20 19 19 17 16 14 13 13 12 11 10 10 10 9 8 7 6 7 7 8 9 10 9 9 9 9 9 9 9 11 12 13 13 14 15 16
27 26 26 25 24 24 23 22 21 19 18 16 15 16 15 14 13 13 12 11 10 9 8 8 8 9 11 11 11 11 10 10 10 10 10 11 12 12 12 13 14 15
26 26 26 26 26 26 25 24 23 22 20 19 18 18 18 17 16 15 15 14 12 11 11 10 10 11 12 12 12 12 12 12 11 11 11 11 12 12 12 13 13 14
27 26 26 27 27 27 27 26 26 25 24 22 21 21 20 19 18 17 17 16 15 14 13 12 12 12 13 14 14 13 13 13 13 12 12 12 12 12 13 13 13 14
27 27 27 27 28 28 28 28 28 27 26 25 24 23 22 21 20 20 19 18 17 16 15 14 14 14 14 14 15 15 15 15 15 14 14 13 13 13 13 13 13 14
27 27 27 28 29 29 29 29 29 28 28 27 26 25 24 23 22 21 21 20 19 18 16 16 16 16 16 16 16 16 16 16 16 16 15 15 14 13 13 14 14 15
27 28 27 28 29 30 30 30 30 30 29 29 28 27 26 25 24 23 23 22 20 19 18 18 18 18 18 17 17 17 18 18 18 18 17 16 16 15 14 15 15 16
27 28 29 29 29 29 30 30 30 30 30 30 29 28 27 26 25 25 24 23 22 21 21 20 20 20 19 19 19 19 19 19 20 20 19 19 18 17 16 16 16 17
27 28 29 30 28 28 29 29 30 30 30 30 29 29 28 27 26 26 25 24 23 23 23 22 22 21 21 20 20 20 20 20 21 21 21 21 20 19 19 18 17 18
29 29 30 30 29 28 28 29 30 30 29 29 29 29 29 28 28 27 26 25 24 24 24 24 24 23 22 22 22 22 22 22 22 22 23 22 22 22 21 20 19 19
30 30 30 30 30 29 28 29 31 31 31 30 30 29 29 29 29 28 27 26 26 26 26 26 25 24 23 23 23 24 24 23 22 23 23 24 24 24 24 23 22 21
28 29 30 31 32 31 30 30 30 31 31 31 31 31 31 30 30 29 28 28 27 28 28 27 27 26 25 25 25 25 26 25 24 24 24 25 26 26 26 26 25 24
27 28 29 31 32 33 33 32 32 31 31 32 32 32 32 32 32 31 31 30 29 29 29 29 29 28 27 27 27 27 27 26 25 25 25 26 27 27 28 28 27 27
27 28 29 30 32 33 34 34 33 33 32 33 34 33 33 33 33 33 33 32 31 31 31 31 31 30 29 29 29 29 28 27 27 26 26 27 27 28 29 29 29 29
27 28 29 30 32 33 34 35 35 34 34 35 35 35 35 34 34 34 34 33 33 33 33 33 32 31 31 30 30 30 29 29 28 28 28 28 28 29 29 30 31 31
28 29 30 30 32 33 34 35 36 36 36 36 36 36 37 36 36 36 35 35 35 35 35 35 33 32 32 32 32 31 31 30 30 30 30 29 29 29 30 31 32 32
29 30 31 32 32 33 34 35 37 38 39 38 37 37 38 39 39 38 37 36 36 37 37 36 35 34 34 34 34 33 32 32 32 32 32 31 30 31 31 32 33 33
30 31 32 33 33 34 34 35 37 39 40 40 39 39 39 38 39 39 40 39 38 38 38 37 36 36 36 35 35 35 35 35 35 35 34 33 32 32 33 33 34 35
32 32 33 34 34 35 35 36 38 40 41 41 41 41 41 39 38 38 38 38 38 39 39 38 38 38 38 37 38 38 38 38 38 38 37 36 35 34 35 35 35 36
34 34 35 36 36 36 37 37 39 40 41 42 42 42 42 42 41 39 38 36 36 37 38 39 39 39 39 39 39 41 41 41 41 41 39 38 37 37 37 37 38 37
36 36 37 37 37 38 39 39 40 41 42 42 43 43 43 43 42 41 40 38 36 35 37 39 40 40 41 41 42 43 43 43 43 43 42 41 40 40 40 40 40 40
37 38 38 38 39 40 40 41 41 42 42 42 43 43 44 44 43 41 40 40 38 36 37 39 39 41 42 43 44 45 45 45 45 45 44 43 42 42 42 43 43 43
38 39 40 39 40 41 42 42 42 42 42 42 43 44 45 45 44 43 42 40 39 38 39 39 40 41 44 45 45 46 47 47 47 47 46 44 43 44 44 45 44 44

ECMWFNIL_250_spd_066.txt.gz
Wind_Speed
22 21 20 19 17 15 14 12 11 10 9 7 6 5 4 3 2 1 2 2 3 4 4 4 4 5 5 6 7 7 8 9 10 11 12 13 14 15 16 17 17 18
23 22 21 20 18 16 14 13 12 11 9 8 7 6 5 4 4 3 3 4 4 5 6 6 6 6 6 7 7 8 8 9 9 10 11 12 13 14 15 15 16 17
24 24 22 21 19 17 16 15 13 12 11 10 9 8 8 7 6 5 5 5 6 6 6 7 8 8 8 8 8 8 9 9 9 10 11 12 13 13 14 14 15 16
26 25 24 22 21 20 19 18 16 14 13 11 11 11 10 9 8 8 7 7 7 7 8 8 9 9 10 10 9 10 10 10 9 9 10 11 12 13 13 13 14 15
27 26 25 24 24 23 22 21 19 17 16 14 13 14 13 12 11 10 10 9 9 9 9 10 10 11 11 11 11 11 11 11 10 10 10 11 11 12 13 12 13 14
27 27 27 27 26 25 24 23 21 20 18 17 17 17 16 14 14 13 12 11 11 11 11 11 12 12 12 12 12 12 12 12 12 12 11 11 11 12 12 12 12 13
28 28 28 28 28 27 26 25 24 23 22 21 20 20 18 17 16 15 15 14 14 13 13 13 13 13 13 13 13 13 13 13 14 13 13 13 12 12 12 13 13 13
27 28 28 29 29 29 28 28 27 26 25 24 23 22 21 20 19 18 18 17 16 16 15 15 15 14 14 14 14 14 14 14 15 15 15 15 14 14 13 13 13 13
25 26 27 28 29 30 29 29 29 28 28 27 26 25 24 23 22 21 21 20 19 18 18 17 16 16 16 15 15 15 15 15 16 16 16 16 16 16 15 15 14 14
25 26 26 26 27 28 28 28 29 29 29 28 27 26 26 25 24 23 23 23 21 20 20 19 19 18 18 17 16 16 17 17 17 17 18 18 18 18 18 17 17 16
26 27 27 26 26 26 26 27 28 28 28 28 27 27 27 26 26 26 25 24 23 22 22 21 21 21 20 19 18 17 18 19 19 19 19 19 19 20 20 20 19 18
27 28 28 27 26 25 25 25 26 27 27 27 27 27 27 27 27 27 26 26 25 24 24 24 23 22 22 21 20 19 19 20 21 20 20 20 21 21 21 22 21 21
28 28 28 28 26 25 24 25 26 26 26 26 27 27 28 28 28 28 28 27 27 26 26 25 25 24 23 23 22 21 21 22 22 22 22 22 22 22 22 23 23 23
28 28 28 28 27 26 25 26 27 27 27 26 26 27 27 27 28 28 28 28 28 28 27 27 27 26 25 24 24 23 23 24 24 24 24 24 24 24 24 24 24 24
26 28 28 29 29 28 27 27 28 29 29 28 27 27 27 27 28 28 28 28 28 28 28 28 28 28 27 26 25 25 26 26 25 25 25 26 26 25 25 25 25 25
26 27 28 29 30 30 29 29 29 30 30 30 30 29 28 28 29 29 29 29 29 29 29 30 30 29 29 28 28 28 28 28 27 27 27 28 28 27 27 27 27 27
28 28 28 28 29 30 31 31 30 30 31 32 32 31 30 30 30 31 31 31 30 31 31 32 32 32 31 30 30 30 30 30 30 29 29 29 30 29 29 29 29 29
31 30 29 29 29 30 31 31 31 31 32 33 34 34 33 33 33 33 33 33 32 33 33 34 34 34 33 33 32 33 33 33 32 31 31 31 31 31 31 30 30 30
33 32 31 30 30 30 31 31 32 33 33 34 34 34 34 35 35 35 35 35 35 35 35 35 36 36 35 35 35 35 35 35 34 34 33 33 33 32 32 32 32 32
35 34 34 33 32 32 32 32 33 34 34 34 34 33 34 35 36 36 36 36 36 36 36 37 37 38 37 36 37 37 37 37 37 36 36 35 34 34 34 34 34 34
37 36 35 34 34 33 33 33 33 34 34 35 35 34 34 35 35 36 37 37 37 37 38 38 39 39 39 38 38 38 39 39 39 39 38 38 37 36 35 36 36 36
40 38 37 36 36 35 35 34 33 34 34 35 35 35 35 35 35 36 37 37 37 38 38 39 41 41 41 40 40 40 40 41 41 41 41 40 39 38 37 37 38 39
42 40 39 38 38 37 36 35 34 34 35 35 36 36 36 36 36 37 37 37 38 38 39 39 40 41 42 41 41 42 43 43 44 43 43 42 41 39 39 40 40 40
44 42 41 40 40 39 38 36 35 35 36 36 36 37 37 38 37 37 38 38 39 40 40 41 40 41 41 40 39 41 43 45 45 45 45 44 42 41 41 42 42 42
45 44 43 42 41 40 39 38 37 37 37 37 37 37 38 38 38 38 39 40 40 40 41 41 42 42 42 42 41 41 43 44 46 46 46 44 42 42 43 43 43 43
47 46 45 44 43 42 40 39 39 38 38 38 37 37 38 38 39 39 39 40 40 40 41 41 42 43 44 44 43 43 43 44 44 45 44 42 40 40 42 43 44 43

ECMWFNIL_250_spd_069.txt.gz
Wind_Speed
25 24 23 21 19 17 15 14 13 11 10 8 7 6 5 3 2 1 1 1 2 3 4 5 6 7 7 8 9 9 9 9 9 10 11 12 14 15 15 16 17 19
24 24 23 21 20 18 16 15 13 12 11 9 8 7 5 4 3 2 2 2 3 4 4 5 6 7 7 8 9 9 9 9 9 8 9 10 11 12 13 14 15 16
24 24 23 22 20 19 18 16 15 13 12 11 9 8 7 6 5 4 4 4 5 5 6 6 6 7 8 8 9 9 9 9 9 8 8 8 9 10 11 12 13 14
25 24 23 22 21 20 19 18 17 15 14 12 11 10 9 8 7 7 6 6 6 7 7 8 8 8 8 9 9 10 10 9 9 8 8 7 7 8 9 10 11 12
26 25 24 23 22 21 20 19 17 16 15 14 13 12 11 11 10 10 9 8 8 8 9 9 9 9 9 9 10 10 10 10 10 9 9 8 7 8 8 9 10 11
28 28 27 26 25 23 22 20 19 18 17 16 15 14 14 13 13 12 12 11 11 11 11 11 11 11 11 11 11 11 11 11 10 10 10 9 8 8 8 8 9 10
31 30 29 28 27 26 24 22 21 20 19 19 18 18 17 16 16 15 15 14 14 14 14 14 14 14 13 13 13 13 13 13 12 11 11 11 10 9 9 9 9 9
32 31 31 30 29 29 27 26 25 23 22 22 21 20 20 19 19 18 18 17 16 16 16 16 16 16 16 16 15 15 15 15 14 14 13 12 12 11 10 10 11 10
30 31 31 31 31 30 30 29 27 26 25 24 23 22 22 22 22 21 20 20 19 19 19 19 19 19 19 19 18 18 18 17 17 16 15 15 14 13 13 12 12 12
27 29 29 30 30 31 30 30 29 28 27 26 25 25 24 24 24 24 23 22 22 21 21 21 22 22 21 21 20 20 20 20 19 19 18 17 17 16 15 14 14 14
24 26 26 26 27 28 29 29 29 29 28 27 27 26 26 27 27 26 26 25 24 24 24 24 24 24 24 23 23 23 23 22 22 21 20 20 19 18 18 17 16 16
23 24 25 24 23 23 25 26 27 27 27 27 27 27 27 28 28 28 27 27 26 26 27 27 27 27 26 26 25 25 24 25 25 24 23 22 21 20 20 19 19 18
21 23 24 23 21 21 22 23 24 25 25 25 25 25 26 27 28 28 28 28 28 28 28 29 29 29 28 27 27 26 26 27 27 26 25 24 23 23 22 22 21 20
20 22 23 23 22 21 21 22 23 24 24 23 23 24 25 25 26 27 28 28 29 29 29 30 31 30 29 29 28 27 28 29 29 28 27 26 25 25 24 24 24 23
20 21 23 24 23 22 22 22 23 23 24 24 24 24 24 24 25 26 27 28 29 29 30 31 31 31 31 30 29 29 29 30 30 30 29 28 27 27 26 26 26 25
22 22 23 24 25 24 23 22 22 23 24 25 25 25 25 25 25 26 28 28 29 29 30 31 32 32 31 30 30 31 31 31 32 32 31 30 29 29 28 28 28 27
24 24 24 25 26 25 25 24 23 23 24 25 26 26 26 26 26 27 28 29 30 30 31 32 33 32 32 32 31 32 32 33 33 33 33 32 32 31 30 30 29 29
28 26 26 26 27 27 27 26 25 25 25 26 26 26 27 27 27 28 28 29 31 32 33 34 34 34 34 33 33 33 34 35 35 35 35 34 33 33 32 32 31 31
33 30 28 28 28 28 28 28 27 27 27 26 26 25 26 28 29 29 29 30 31 32 34 35 35 36 35 35 35 35 36 37 37 36 36 37 36 35 34 33 33 33
38 35 32 30 30 30 30 30 29 29 28 27 26 25 26 27 29 30 30 31 31 32 34 35 36 36 36 36 36 36 37 38 39 39 38 38 38 37 36 35 35 36
39 37 35 33 32 32 32 31 30 29 28 28 28 27 26 26 27 29 30 32 32 33 34 35 36 36 36 36 36 37 38 39 40 41 41 40 40 39 39 38 37 37
38 38 38 36 34 34 34 33 32 30 29 28 28 29 28 27 27 28 30 31 33 33 34 35 36 37 37 37 36 36 38 39 41 41 41 41 40 40 39 39 38 39
42 42 42 39 37 36 35 34 33 31 30 29 29 30 30 29 28 28 29 30 32 34 35 36 36 37 38 38 38 38 39 40 40 40 40 40 40 38 37 36 36 38
45 45 45 43 39 38 37 35 35 33 32 31 30 30 31 30 30 29 30 31 31 33 35 36 36 37 38 39 39 39 40 41 42 41 41 42 42 40 38 36 36 36
44 43 44 44 42 39 37 36 35 35 34 33 33 32 32 31 31 31 31 32 32 32 34 35 36 37 38 38 39 40 40 41 42 42 43 43 43 42 40 38 37 37
44 40 41 41 40 38 37 36 36 36 36 36 35 34 34 33 33 32 32 32 33 33 33 35 36 37 37 38 38 39 40 41 42 43 43 43 43 43 41 39 38 38

ECMWFNIL_250_spd_072.txt.gz
Wind_Speed
20 21 21 20 18 17 16 15 14 13 12 11 10 9 8 7 6 5 4 3 2 2 2 3 4 5 6 7 7 8 8 8 8 9 10 11 12 14 15 16 18 19
21 22 22 21 19 18 17 16 15 14 13 12 11 9 8 7 6 5 4 3 2 1 0 1 2 3 4 5 6 7 7 8 8 8 9 10 10 12 13 15 16 17
22 23 23 22 20 19 18 17 16 15 14 13 12 11 10 8 7 6 5 4 4 3 2 2 3 3 4 4 5 6 7 8 8 8 9 9 10 10 11 12 14 15
22 24 24 23 22 21 19 18 17 16 16 15 14 13 11 10 10 8 7 6 6 5 5 4 4 5 5 5 6 6 7 7 8 8 9 9 9 10 10 11 12 13
23 24 25 24 23 22 21 19 18 17 17 17 16 15 14 13 12 11 10 9 8 8 7 7 7 7 7 7 7 7 8 8 9 9 9 10 10 10 10 10 11 11
26 26 26 26 25 24 22 21 19 19 19 18 18 17 16 15 14 13 12 11 11 11 10 10 10 9 9 9 9 10 10 10 10 10 11 11 11 11 12 12 11 11
29 29 28 27 26 25 23 22 21 20 20 20 19 18 18 17 16 15 15 14 14 13 13 13 13 12 12 12 12 12 12 12 12 12 12 12 12 12 13 13 13 13
31 31 30 29 28 27 26 25 24 22 22 21 21 20 19 19 19 18 17 17 16 16 16 16 15 15 15 14 14 15 15 15 15 15 15 15 14 14 14 14 14 14
30 31 31 31 30 29 28 27 26 25 24 23 23 22 21 21 21 20 20 19 18 18 18 18 18 18 17 17 17 17 17 17 17 17 17 17 17 16 16 16 16 16
32 32 31 31 31 30 29 28 28 27 26 25 25 24 24 23 23 22 21 21 20 20 21 21 21 21 20 19 19 19 19 20 20 20 19 19 19 19 18 18 17 17
33 33 32 31 30 30 29 29 29 29 28 27 27 27 26 26 26 25 23 22 22 23 23 24 24 23 23 22 21 21 21 22 22 22 21 21 21 21 20 20 19 18
30 32 32 30 29 28 28 29 29 29 29 29 29 29 29 28 28 27 26 25 25 25 25 25 26 25 25 23 22 22 23 23 23 23 22 22 22 22 22 22 21 20
27 28 28 27 25 25 26 27 28 28 28 28 29 29 29 29 29 28 27 26 26 25 25 26 26 26 25 24 24 23 24 25 25 24 23 23 23 23 23 23 22 22
26 25 25 24 23 23 23 24 25 24 24 25 26 27 28 28 27 27 26 26 25 25 25 25 25 25 25 25 24 24 24 25 26 25 25 24 23 23 24 24 24 23
24 24 24 24 23 23 23 23 22 21 21 21 22 23 24 24 25 25 25 25 24 24 24 25 24 24 24 24 24 24 24 25 25 26 26 25 24 24 24 24 25 25
22 23 24 24 23 23 23 23 22 21 20 20 20 20 21 22 23 24 24 24 24 24 24 24 24 23 23 23 24 24 25 26 26 26 27 26 26 26 25 25 26 26
22 22 22 23 23 22 21 21 22 22 21 21 21 20 21 21 22 23 24 24 24 24 25 24 24 23 23 23 24 25 25 26 27 27 27 27 27 27 27 26 27 27
24 23 23 23 24 23 22 21 21 21 22 22 22 21 21 21 22 23 23 24 24 25 25 24 24 23 24 24 25 25 25 26 27 28 28 28 28 28 27 27 27 28
27 27 26 25 25 25 25 24 24 23 22 22 21 21 21 22 22 22 23 23 24 24 24 24 24 24 25 25 25 26 26 27 27 28 29 29 29 28 28 28 28 29
29 28 28 27 26 26 27 27 27 26 24 22 20 20 21 21 21 22 22 23 23 23 24 24 24 24 25 25 26 27 27 28 29 29 30 31 30 30 30 29 29 29
31 31 30 29 28 27 27 27 28 28 26 23 21 20 19 19 19 20 21 21 22 22 23 23 24 24 24 25 26 26 27 28 29 29 30 31 32 32 31 31 31 30
34 33 33 33 32 31 29 28 28 28 27 25 23 21 20 20 20 20 20 20 21 21 22 23 23 23 24 24 25 26 27 27 28 28 29 30 31 32 33 33 32 32
38 37 35 35 35 34 33 31 29 28 26 25 23 22 22 22 22 22 22 21 21 21 22 23 22 22 23 23 24 25 26 27 28 28 29 29 30 32 32 33 33 33
41 39 37 36 36 35 34 33 31 29 27 25 23 22 22 23 24 24 24 24 24 23 23 23 23 23 23 23 23 24 26 27 28 29 29 30 30 31 32 32 33 33
43 41 38 37 36 35 34 33 30 29 29 28 26 24 23 23 24 26 26 27 27 26 25 25 25 24 24 24 24 24 26 27 28 29 30 30 30 31 31 31 32 33
44 43 41 39 37 36 35 33 30 29 30 31 29 26 25 25 25 27 28 29 29 29 28 27 26 26 25 25 25 25 26 27 28 29 30 30 30 31 31 30 31 32

ECMWFNIL_250_spd_075.txt.gz
Wind_Speed
20 19 18 17 16 14 13 12 12 12 11 11 10 9 8 8 7 6 5 4 4 3 3 3 4 5 6 7 8 9 10 10 11 11 12 12 13 14 15 15 16 17
21 20 20 19 18 16 14 14 13 13 12 11 10 10 9 8 8 7 5 4 3 2 1 1 2 3 5 6 7 8 9 10 11 11 12 12 13 13 14 14 14 15
22 22 21 20 19 17 15 15 14 14 13 12 11 11 10 9 8 7 6 5 4 3 2 1 2 3 4 6 7 8 9 9 10 11 12 13 13 13 13 13 13 13
23 22 21 22 21 20 18 17 16 14 13 13 12 11 11 10 9 8 8 7 6 5 4 3 3 4 5 6 7 8 9 10 11 11 12 13 13 13 13 14 14 14
22 21 22 23 23 22 20 18 17 15 14 14 13 12 12 11 11 10 9 9 8 7 7 6 6 6 7 7 8 9 10 11 12 12 13 13 13 13 14 14 15 15
23 22 23 24 25 24 22 20 18 17 16 15 14 14 14 13 13 12 11 11 10 10 9 9 8 8 9 9 10 11 12 12 13 14 14 14 14 14 14 15 15 15
26 25 25 25 26 25 23 22 20 19 18 17 16 16 16 15 15 14 13 13 13 12 12 12 11 11 11 12 12 13 13 13 14 14 15 15 15 15 15 15 15 16
28 27 27 27 27 27 26 24 22 21 20 19 18 17 17 17 16 15 15 15 15 15 14 14 14 14 13 14 14 15 15 14 14 14 15 15 15 15 15 15 15 16
29 29 28 28 28 28 28 27 25 23 22 21 19 19 18 18 17 17 16 16 17 17 17 17 16 16 16 16 16 16 16 16 15 15 15 15 15 15 15 15 15 16
31 30 30 29 28 28 28 28 27 26 24 23 22 21 20 19 19 19 18 18 18 19 19 19 19 19 19 19 18 18 18 17 17 16 16 16 16 16 15 15 15 16
32 31 31 30 28 27 27 27 27 27 26 25 24 23 22 21 21 21 20 20 20 21 21 22 22 22 21 21 20 19 19 18 17 17 17 16 16 16 16 15 15 16
31 31 31 30 28 27 27 26 27 27 26 26 25 24 24 24 24 23 22 22 22 23 24 24 24 23 22 21 20 20 19 19 18 17 16 16 16 16 16 16 16 16
29 30 29 27 27 27 27 27 27 27 27 27 27 26 26 26 26 25 24 24 24 24 24 24 24 23 22 20 20 19 19 19 18 17 16 16 16 16 16 16 16 17
26 26 25 24 24 25 26 27 27 27 27 27 27 28 28 27 26 26 25 24 24 23 23 23 23 22 21 19 19 19 19 19 18 17 17 16 16 16 16 16 17 17
24 24 23 22 22 23 25 27 27 26 25 25 27 27 27 26 25 24 24 23 22 21 21 21 20 20 19 18 18 18 19 19 19 18 18 17 17 17 17 17 18 18
24 24 23 23 23 24 25 26 25 24 23 23 25 25 24 24 23 23 23 21 20 19 19 19 19 18 18 18 19 19 20 20 20 19 19 19 18 18 18 18 19 19
26 26 26 25 25 25 26 26 25 24 24 24 23 23 24 23 23 22 22 20 18 18 18 18 17 17 17 19 19 19 20 20 20 20 20 20 19 19 19 19 20 20
28 28 27 26 25 25 25 25 25 25 25 25 24 24 24 24 23 23 21 20 18 17 16 15 15 16 17 18 18 19 19 19 19 19 19 19 19 19 19 19 19 20
31 29 28 27 26 25 25 25 25 26 26 25 24 23 23 23 23 21 20 18 17 15 13 12 12 13 15 16 17 17 18 18 18 18 18 18 18 18 19 19 20 20
35 32 30 29 27 26 25 25 25 26 25 23 22 22 22 21 19 18 17 16 15 13 12 11 10 10 12 13 14 15 16 17 18 18 18 18 18 18 19 19 20 21
38 36 33 31 29 28 27 27 26 25 24 21 20 20 19 17 16 16 16 15 14 13 12 12 10 10 10 11 12 14 15 17 18 18 18 19 18 19 19 20 20 21
40 38 35 33 31 31 31 30 28 26 24 21 19 18 17 16 16 16 16 15 14 14 14 13 11 10 11 12 12 13 15 17 18 18 19 19 19 19 19 20 20 21
42 39 37 35 34 34 34 33 31 29 26 22 21 20 18 17 17 17 17 17 17 17 16 14 11 11 12 13 13 14 15 17 18 18 19 20 19 19 19 20 20 21
43 41 39 37 36 36 35 34 33 32 29 25 23 21 20 19 19 19 19 19 19 19 17 14 13 13 13 14 14 14 16 18 18 19 20 20 19 19 19 20 20 21
45 43 41 40 39 38 36 34 33 32 31 29 27 24 22 22 22 21 22 21 20 19 18 16 14 14 14 15 15 15 17 19 19 20 21 20 19 19 20 21 21 22
47 46 44 43 41 39 37 35 34 33 32 31 30 27 24 24 25 25 24 23 22 21 20 19 17 15 15 16 16 17 19 20 21 22 22 21 20 21 21 22 22 23

ECMWFNIL_250_spd_078.txt.gz
Wind_Speed
20 19 17 15 15 14 12 11 11 11 11 10 9 8 7 6 5 4 4 4 5 6 7 8 9 10 11 12 12 13 14 15 15 16 16 16 16 17 16 16 16 16
21 20 18 17 16 15 13 12 12 12 12 11 10 9 8 7 5 4 3 3 3 4 5 7 8 9 10 11 11 12 13 14 15 15 16 16 16 16 16 16 16 16
21 20 19 17 16 15 14 13 12 12 12 11 10 9 8 7 6 4 3 1 2 3 4 6 7 8 9 10 11 12 13 13 14 15 16 16 16 15 15 15 15 15
21 20 19 18 17 17 16 15 14 13 12 12 12 10 9 8 6 5 3 2 1 2 4 6 7 8 9 10 11 12 12 13 14 15 15 16 16 16 15 15 15 15
22 20 19 19 19 19 18 17 15 13 13 13 12 11 10 8 7 6 5 3 2 3 4 6 7 8 9 10 11 12 12 13 14 14 14 15 15 16 16 15 15 15
23 22 21 21 20 20 19 18 16 15 14 13 12 12 10 9 8 7 6 5 4 4 5 6 7 8 9 10 11 12 12 13 14 14 14 15 15 16 16 16 15 15
24 24 23 22 22 21 20 20 18 17 16 14 13 12 11 10 9 8 7 6 5 5 5 6 7 8 9 10 11 12 13 14 14 15 15 15 15 16 16 16 16 15
25 25 25 24 23 22 21 21 20 19 17 15 14 13 12 11 10 10 9 8 6 6 6 7 8 9 10 11 12 13 14 14 15 15 15 16 16 16 16 15 15 15
25 26 26 25 25 24 23 23 22 21 19 17 16 15 14 13 12 11 10 9 8 8 8 8 9 10 11 12 13 14 15 15 15 15 15 16 16 16 15 15 15 14
28 27 27 26 25 24 24 24 24 23 21 19 18 17 16 15 13 12 11 11 11 11 11 11 12 12 13 14 15 15 15 15 15 15 15 15 15 15 15 15 14 14
30 30 29 28 26 25 24 24 24 24 23 21 19 18 17 16 15 14 13 13 13 14 14 15 15 15 15 15 15 15 15 14 14 14 14 14 14 14 14 14 14 14
31 31 31 29 27 26 24 24 23 23 23 22 21 19 18 18 17 16 15 15 16 17 17 17 18 17 16 15 15 14 14 13 13 13 13 13 13 14 14 14 15 15
31 31 30 29 27 26 25 24 24 23 23 23 22 21 21 20 19 18 17 17 18 19 19 19 19 18 16 15 13 13 12 12 12 12 12 13 14 14 15 15 16 16
28 28 27 26 26 26 25 25 25 24 24 23 23 23 23 22 21 20 19 20 20 20 20 19 18 17 15 13 12 12 12 12 12 12 13 14 15 16 16 17 17 17
26 26 24 23 23 25 26 27 26 26 25 24 25 25 24 23 22 21 20 20 20 20 19 19 17 15 13 12 11 11 11 11 11 12 13 14 15 16 17 17 18 18
24 24 23 21 22 24 26 26 26 26 25 25 26 25 24 23 22 21 20 20 19 19 18 18 16 13 12 12 11 11 11 10 11 11 12 14 14 15 16 17 18 18
23 24 23 22 22 23 25 26 26 25 25 25 26 25 24 23 22 21 20 19 18 17 17 16 14 12 11 11 11 10 10 9 10 11 11 12 13 14 15 16 17 18
24 24 24 24 23 23 24 25 25 25 25 25 25 24 23 22 21 20 18 17 17 16 15 13 11 10 11 11 10 9 9 9 9 10 10 11 11 12 13 14 16 17
27 26 26 26 24 23 23 23 24 24 24 23 23 22 21 21 20 18 16 15 15 15 13 11 9 9 10 10 10 9 9 9 9 9 9 9 9 10 11 13 15 17
30 29 28 28 26 25 23 23 23 24 23 22 21 20 20 20 18 16 14 13 13 13 12 11 9 9 10 10 10 9 9 9 9 9 9 9 9 9 10 11 13 15
31 30 29 28 28 27 25 24 24 24 22 21 20 19 18 17 15 14 14 13 13 12 11 11 10 9 11 11 11 10 10 10 10 9 9 9 9 9 10 11 12 15
32 31 31 30 29 28 27 27 26 25 23 22 21 20 18 16 15 14 13 12 12 12 12 12 11 10 12 13 12 11 12 11 10 10 10 10 10 10 11 12 13 15
36 35 34 33 32 32 31 30 28 26 25 23 23 22 21 20 18 16 13 13 13 14 15 15 13 12 13 15 14 14 13 13 12 11 12 11 11 11 12 13 14 15
40 40 39 36 35 35 35 33 30 28 26 25 25 24 23 22 21 19 17 17 17 17 17 17 15 14 15 16 16 15 15 15 13 13 13 12 11 11 13 15 15 16
44 44 43 40 38 37 37 36 34 31 29 28 27 27 25 24 23 22 21 21 21 20 19 18 17 16 17 18 17 16 17 17 16 15 14 12 11 12 14 16 17 17
48 47 46 44 42 39 37 37 36 34 33 32 31 30 28 26 25 24 24 24 24 23 22 21 20 18 19 19 18 17 18 18 17 17 16 13 12 13 15 17 18 18

ECMWFNIL_250_spd_081.txt.gz
Wind_Speed
24 23 21 18 15 14 13 11 9 8 7 6 5 3 3 4 4 5 7 7 8 9 10 11 12 13 14 15 15 16 16 16 16 16 16 16 16 16 16 16 16 15
20 21 20 18 17 15 13 12 10 10 8 7 5 4 3 3 3 4 5 6 7 8 9 10 11 12 13 14 14 15 15 15 15 15 16 16 16 15 15 15 15 15
18 19 18 18 17 16 14 14 12 10 9 8 7 5 4 3 3 3 3 4 5 6 7 9 10 11 12 13 13 14 14 15 15 15 15 15 15 15 15 14 14 14
17 18 18 19 18 17 16 15 13 10 9 9 9 7 5 4 4 3 2 2 4 5 6 7 8 9 10 11 12 13 13 14 15 15 15 15 15 15 14 14 14 13
18 19 20 20 19 18 16 16 14 11 10 10 9 8 7 5 4 3 2 1 2 3 4 6 7 8 9 10 11 12 13 14 14 15 15 15 14 14 14 14 13 12
20 21 21 21 20 18 17 16 15 13 12 10 9 9 7 6 5 4 3 1 1 2 3 4 5 7 8 9 10 11 13 14 14 15 15 14 14 14 13 13 12 12
22 23 23 22 21 19 17 16 16 15 13 11 9 9 8 7 6 5 4 3 2 1 0 2 3 5 7 8 10 11 12 13 14 14 14 14 14 14 13 12 11 11
21 23 24 24 22 20 19 18 16 16 14 12 10 9 8 8 7 7 6 5 4 3 1 1 3 4 6 8 10 11 13 13 14 14 13 13 13 13 13 12 11 10
20 22 23 24 24 22 21 19 17 17 16 14 12 11 10 9 8 8 7 6 5 4 4 3 4 6 7 9 11 12 13 14 14 13 12 12 12 12 12 12 12 11
21 21 22 23 23 22 21 20 19 19 18 16 15 14 13 11 10 9 8 7 7 6 6 6 7 8 9 10 12 12 13 14 13 13 12 11 11 11 11 11 12 12
22 22 22 22 21 20 20 19 19 19 19 18 17 16 15 14 12 11 10 9 8 8 8 9 9 10 11 12 13 13 13 13 13 12 12 11 11 10 11 11 11 12
22 23 23 22 21 20 19 19 18 19 19 18 18 17 17 16 14 13 12 11 11 11 11 11 12 13 13 14 14 14 13 13 13 12 12 11 11 10 10 11 11 11
23 24 24 22 21 21 20 20 19 19 19 18 18 18 18 17 16 14 13 13 14 14 14 14 14 14 14 14 14 14 14 13 12 11 11 11 11 11 10 10 11 11
23 23 23 22 22 22 22 22 21 20 19 18 18 19 18 18 17 16 15 16 17 17 16 16 15 14 14 14 14 14 14 13 12 11 11 10 10 10 10 10 11 11
22 21 20 21 21 22 23 24 23 22 20 20 20 20 19 18 18 17 17 18 18 18 18 17 16 15 14 14 14 14 14 14 12 11 10 10 9 10 10 10 11 11
22 21 20 20 21 23 24 24 24 23 23 23 23 22 21 20 19 19 19 19 18 19 19 18 17 15 14 14 14 14 14 13 12 11 10 9 8 9 9 10 10 11
24 23 22 22 23 24 24 25 25 25 25 25 25 24 23 22 21 21 20 19 19 18 18 18 16 14 13 14 14 13 13 13 12 11 10 8 8 8 9 9 10 10
27 27 26 25 26 26 26 27 26 26 26 26 27 26 25 24 23 23 21 20 19 18 18 17 15 14 13 14 13 13 13 13 12 12 10 8 8 8 9 9 10 10
29 28 27 27 27 27 27 27 27 27 27 27 27 26 25 25 24 23 22 20 19 18 17 15 14 13 13 13 13 13 13 13 13 13 11 9 8 8 9 9 10 11
28 27 26 25 24 23 23 23 24 24 24 23 23 23 24 24 24 23 22 21 19 18 16 15 14 12 12 13 13 13 13 14 15 14 12 10 9 9 9 10 10 11
28 28 27 25 22 19 19 20 21 21 20 19 18 19 20 21 21 21 21 21 19 17 16 16 14 13 13 14 14 14 14 16 16 14 12 11 10 10 10 11 11 11
32 31 29 26 23 20 19 19 20 20 20 19 18 18 19 19 20 21 21 20 18 17 17 18 16 14 14 15 15 15 16 17 16 14 13 13 12 11 11 11 12 12
36 33 31 30 28 26 24 21 19 18 18 19 19 20 20 21 21 21 20 19 19 19 20 20 18 17 17 17 18 17 18 18 17 15 14 14 13 11 11 12 12 12
40 37 34 31 30 30 29 25 22 21 20 19 20 21 22 23 23 22 22 22 22 22 22 22 21 20 20 20 20 19 19 18 17 16 16 15 13 11 12 12 12 11
41 40 37 34 32 32 32 31 29 26 23 22 22 23 24 25 26 26 25 25 25 25 25 24 23 22 22 22 21 20 20 19 18 17 16 14 12 11 12 13 13 12
44 43 41 38 37 36 34 34 34 32 28 26 26 27 28 29 29 29 28 28 28 28 27 27 25 24 23 23 22 22 22 21 19 18 16 13 11 11 12 13 13 13

ECMWFNIL_250_spd_084.txt.gz
Wind_Speed
25 23 21 20 18 15 13 10 8 6 4 4 4 4 6 7 8 9 10 11 12 13 13 14 14 14 14 14 15 15 16 16 17 17 17 17 16 16 15 15 15 15
27 26 24 22 19 16 14 12 10 7 6 6 5 5 6 7 8 8 8 9 10 11 12 12 12 12 12 12 13 14 14 15 15 16 16 16 16 15 15 14 14 13
26 25 23 20 18 16 15 14 12 9 8 7 7 6 6 7 8 7 7 8 8 8 9 10 10 10 10 11 11 12 13 13 14 14 14 15 14 14 13 13 13 12
24 22 20 18 18 18 17 15 14 11 9 8 8 7 6 7 7 7 7 7 6 6 6 7 8 8 8 9 10 11 11 12 12 12 13 13 13 13 12 11 11 11
23 21 19 19 19 19 18 17 15 13 11 10 9 8 7 6 7 7 7 6 6 5 5 5 6 6 7 7 8 9 10 11 11 11 11 11 11 11 11 10 10 9
23 22 20 20 21 20 19 17 16 14 13 11 10 9 8 6 6 6 6 6 6 4 4 3 3 4 4 5 7 8 9 10 10 10 10 10 10 10 9 8 8 8
23 22 22 22 22 21 20 18 17 16 15 13 11 10 9 8 7 7 7 7 6 5 4 2 1 2 3 5 7 9 10 11 11 10 9 9 8 8 8 7 7 7
22 23 23 24 23 23 22 20 18 17 16 14 12 11 10 9 8 8 7 7 6 5 4 3 1 1 4 6 8 10 11 12 12 11 10 9 8 8 7 7 7 7
22 23 24 25 25 24 24 22 20 18 17 16 14 13 12 11 10 9 8 7 7 6 5 4 3 3 4 6 8 10 12 12 12 11 10 10 9 8 8 7 7 7
23 23 24 25 25 25 25 24 22 21 19 17 16 15 13 12 12 10 9 8 7 7 6 5 4 4 5 7 9 10 11 12 12 12 11 10 10 9 8 8 7 7
25 25 25 25 24 24 25 24 23 23 21 19 19 17 16 14 13 12 10 9 8 8 7 6 5 6 7 8 9 10 11 12 12 11 11 10 10 9 9 9 8 8
27 27 27 26 25 24 24 24 23 23 22 21 20 19 18 17 16 14 12 10 9 9 8 8 7 7 8 8 9 10 10 11 12 11 10 10 10 9 9 9 9 8
29 29 29 27 26 25 25 24 24 23 22 21 21 21 20 20 18 17 15 13 12 11 10 10 10 9 9 9 9 9 10 11 11 11 11 10 10 9 9 9 9 9
30 31 31 30 28 27 27 27 26 25 24 23 22 22 22 21 20 19 17 16 15 13 12 12 11 11 10 10 9 9 9 10 11 11 10 10 10 10 9 9 9 9
31 32 32 32 31 30 30 30 29 27 26 24 24 23 22 22 22 21 20 19 18 16 15 15 14 13 11 10 9 8 9 10 10 10 10 10 10 10 10 10 9 9
31 32 33 34 34 34 33 32 31 30 28 27 26 24 24 23 22 22 22 21 20 19 18 17 16 14 12 11 9 8 8 9 10 10 10 10 10 10 10 10 9 8
32 32 33 34 35 36 35 35 34 32 31 30 29 27 26 25 25 24 24 23 22 21 21 19 18 15 13 11 10 9 9 9 10 10 11 11 10 11 11 11 10 9
34 32 31 33 35 36 37 37 36 35 33 32 31 30 29 28 27 27 26 24 23 23 22 21 19 16 14 13 12 11 10 10 10 11 11 11 11 10 10 11 10 10
35 33 32 32 34 35 37 37 37 36 35 34 33 32 31 30 29 29 27 25 24 24 23 22 20 17 16 15 14 13 12 12 12 12 12 12 11 10 9 9 10 10
35 35 34 33 33 34 36 38 38 39 38 37 35 33 32 32 31 29 28 26 24 24 23 22 21 19 18 17 16 15 14 14 13 14 13 13 11 9 9 9 9 10
37 37 36 34 33 33 35 36 38 39 39 39 37 36 35 34 32 30 29 27 25 24 23 23 22 20 19 18 18 17 16 16 16 16 15 13 11 10 9 9 9 9
38 39 38 36 34 34 34 35 37 38 38 37 37 37 36 35 34 32 31 28 26 24 23 23 23 21 21 21 20 19 18 18 18 17 15 14 12 11 10 9 9 9
42 43 42 40 38 37 36 36 37 38 37 36 36 36 36 35 35 34 32 29 27 25 25 25 24 23 22 22 22 21 21 21 19 17 16 15 13 12 10 10 9 9
47 45 44 43 42 40 38 37 37 37 36 35 34 34 34 33 33 32 31 29 27 27 27 26 25 24 24 24 24 23 23 21 19 17 16 15 13 12 11 10 10 9
48 47 45 45 44 42 40 37 37 37 37 36 34 33 31 30 29 29 28 27 27 27 27 27 26 26 25 25 25 24 23 21 19 17 16 14 12 11 11 11 10 9
51 49 47 47 47 45 42 39 38 39 39 38 35 32 30 29 28 27 27 26 26 27 27 27 27 27 26 26 25 24 24 22 19 18 16 13 12 12 12 12 10 9

ECMWFNIL_250_spd_087.txt.gz
Wind_Speed
21 20 18 16 12 10 8 6 5 4 4 5 5 5 7 7 7 8 9 9 9 9 9 10 11 12 12 12 13 13 12 13 12 12 12 12 12 12 12 12 12 12
23 22 21 19 15 13 12 9 7 6 6 6 6 6 7 8 8 8 8 8 8 7 7 7 8 9 10 10 10 10 10 10 10 10 10 10 10 10 10 10 10 11
24 24 23 21 18 17 15 12 9 9 9 8 8 8 9 9 9 8 8 8 7 7 6 5 6 6 7 9 9 9 9 8 8 8 8 8 8 8 8 9 9 9
25 24 24 23 21 20 17 14 12 11 11 10 10 10 10 10 10 9 8 8 7 6 5 4 3 4 5 7 8 9 8 8 7 7 7 8 7 6 7 7 7 7
24 25 25 25 24 22 19 16 14 13 14 12 11 11 11 11 11 10 9 8 7 6 4 3 2 2 4 6 8 9 9 8 8 7 7 7 6 5 6 6 5 6
24 25 25 25 25 23 20 18 16 16 16 14 13 13 12 12 12 11 10 9 8 6 5 3 2 1 3 6 7 8 9 9 8 8 7 7 6 6 6 5 5 5
24 24 24 25 25 24 22 20 18 18 18 16 14 14 14 13 13 12 12 11 10 8 6 5 3 0 3 5 6 7 8 8 8 8 7 7 7 6 6 6 6 5
24 23 24 25 25 25 23 22 20 20 20 18 16 15 15 14 14 13 13 12 11 9 8 7 5 2 1 4 5 6 7 7 7 7 7 7 6 6 6 6 6 6
26 25 24 24 26 26 25 24 22 22 21 20 18 16 16 15 15 14 14 13 12 10 9 8 6 4 1 2 4 5 6 6 6 7 6 7 6 6 6 6 7 6
27 26 25 25 26 27 26 25 24 23 22 21 20 18 17 16 16 15 14 13 12 11 11 10 8 6 3 2 3 5 6 6 6 6 6 6 6 6 6 6 7 7
29 27 26 25 26 26 27 26 25 25 23 22 21 20 19 18 17 16 15 14 13 13 13 12 10 7 5 4 3 4 5 6 6 6 6 6 6 6 6 6 7 7
31 28 27 26 26 26 27 27 27 26 25 23 23 22 21 20 19 18 17 16 15 14 14 13 11 9 7 6 5 5 5 5 6 6 6 5 5 6 6 6 7 7
32 30 28 27 27 26 26 27 27 27 26 25 24 24 23 22 21 20 19 18 17 16 15 15 13 11 9 7 7 7 7 7 6 6 6 6 6 6 6 6 7 7
33 31 28 27 28 28 28 28 28 28 27 26 26 25 25 24 23 22 21 20 19 18 17 16 15 13 11 9 9 8 8 8 8 7 7 7 6 6 6 6 6 7
33 31 29 28 28 29 29 30 30 29 29 28 27 26 25 25 25 24 23 22 22 20 19 18 16 14 12 11 10 10 10 10 10 9 9 8 7 7 7 7 7 6
31 31 30 28 28 28 30 30 30 31 30 29 29 27 26 25 25 25 24 24 23 22 21 19 18 16 14 13 12 12 12 12 12 11 11 10 9 8 8 7 7 7
29 30 30 29 27 27 29 31 31 32 32 32 31 30 28 27 27 26 26 25 25 24 23 22 20 19 17 15 15 14 14 14 14 14 13 12 11 10 9 8 7 7
28 28 29 28 27 27 27 29 31 32 33 33 33 33 31 30 29 29 28 27 27 26 26 25 23 22 20 18 17 17 16 16 16 16 15 14 13 11 10 9 8 8
29 29 30 28 27 27 26 27 30 33 34 35 35 34 34 33 33 32 31 30 29 29 29 27 26 25 23 21 20 19 19 18 18 18 18 17 15 13 12 11 10 9
32 33 33 29 27 28 26 26 29 32 35 36 36 35 36 37 36 35 34 33 32 32 32 30 29 28 26 24 22 22 21 21 21 21 20 19 17 15 13 12 11 10
34 33 34 32 30 30 29 28 29 32 34 36 38 38 38 38 38 37 36 36 35 34 34 32 31 30 29 26 25 24 24 23 23 23 22 21 18 16 14 13 12 11
39 37 36 36 37 38 36 34 33 33 35 36 38 40 41 41 40 39 38 37 37 36 35 34 33 32 30 28 26 26 25 25 25 24 22 21 18 16 15 14 13 12
45 43 42 41 42 44 44 42 41 38 37 36 38 40 42 44 44 43 41 40 39 38 37 36 34 33 32 30 28 27 27 27 26 24 21 19 18 16 15 14 13 12
50 48 47 44 44 47 48 47 46 43 41 38 37 40 42 45 46 46 45 43 42 41 40 38 36 35 34 32 30 29 29 29 27 24 21 19 18 16 15 14 14 13
54 52 51 48 46 47 48 48 47 45 42 39 38 39 41 43 46 47 46 45 44 43 41 40 39 37 35 34 32 31 31 30 29 26 23 20 18 16 15 15 14 14
56 54 53 51 49 47 47 48 48 46 42 39 38 39 40 43 46 47 46 46 45 43 41 40 40 37 36 35 34 32 31 30 29 28 25 21 17 16 16 17 16 15

ECMWFNIL_250_spd_093.txt.gz
Wind_Speed
12 10 11 11 10 8 6 3 1 1 1 1 1 0 1 2 2 3 3 4 5 7 9 11 12 14 15 15 15 15 14 14 15 15 16 16 16 16 16 17 16 16
15 12 12 13 13 12 10 7 4 2 1 1 2 2 2 2 2 2 2 2 3 5 7 9 10 12 13 14 14 14 14 13 14 14 15 15 15 14 15 16 16 16
18 14 13 14 15 15 14 11 8 6 4 3 3 3 4 4 4 3 2 1 1 3 5 6 8 10 11 12 12 13 13 13 13 14 14 14 14 14 13 14 15 15
19 17 15 15 16 17 16 14 12 10 8 6 5 5 6 6 6 6 4 3 1 1 2 4 5 7 8 10 11 12 12 13 13 13 13 13 13 14 13 13 14 15
20 19 17 16 16 17 18 17 15 13 12 10 8 7 8 8 8 8 7 6 4 3 1 1 2 4 6 7 9 10 11 12 12 13 12 12 13 13 13 14 14 15
18 20 19 18 17 17 18 19 18 16 15 14 12 11 10 11 11 10 10 9 8 6 4 2 1 1 3 5 7 8 9 10 11 12 11 11 12 12 12 13 14 15
17 20 21 20 18 18 19 20 20 19 18 16 15 14 13 13 14 13 12 12 11 9 8 6 4 3 1 2 4 6 7 8 9 10 10 10 10 11 12 13 13 14
16 18 20 21 20 19 19 19 20 20 20 19 18 18 17 16 16 15 15 14 13 12 10 9 7 6 4 2 2 3 5 6 7 8 8 9 9 10 11 12 13 13
17 18 20 22 22 21 19 18 18 19 21 21 20 20 20 19 18 17 17 16 15 14 12 11 9 8 7 5 4 3 4 5 6 6 7 7 8 8 9 10 11 12
22 20 20 22 24 23 20 18 16 17 19 21 22 22 23 22 20 19 18 18 17 16 14 13 11 10 9 8 7 6 6 6 6 6 6 6 6 6 7 8 10 11
22 22 22 22 23 24 22 19 16 14 16 19 21 22 24 25 23 21 20 20 19 18 16 15 13 12 11 10 9 8 8 8 8 7 6 6 6 6 6 7 8 10
20 20 22 23 24 24 23 21 17 14 14 16 19 21 23 25 26 24 22 22 22 20 19 17 15 14 14 13 12 10 10 10 10 10 9 8 7 6 6 7 8 9
21 22 24 27 27 25 23 22 19 15 14 15 18 21 23 25 27 26 24 23 23 23 21 19 18 16 15 14 13 13 12 11 11 11 11 10 9 8 7 7 8 8
26 27 29 32 32 27 23 23 22 17 15 14 16 20 23 25 27 28 27 25 25 25 24 22 20 18 17 15 14 14 14 13 13 12 12 11 10 9 8 7 7 8
27 29 31 33 34 31 26 24 23 20 17 15 15 18 22 26 28 29 29 28 27 26 26 25 23 20 18 16 15 15 15 15 14 13 13 13 12 11 9 8 7 7
32 33 35 35 35 33 30 26 24 21 19 18 17 18 20 23 27 30 31 30 29 28 27 26 25 23 20 18 16 16 16 16 16 15 14 14 14 12 11 9 7 6
38 39 39 37 36 36 34 31 28 25 22 21 20 19 19 21 24 27 30 31 31 30 29 28 26 24 22 20 18 17 17 17 17 17 16 15 15 14 13 11 9 7
41 40 39 38 38 37 36 35 33 29 26 25 23 22 22 22 24 25 27 29 30 30 30 29 27 26 24 22 20 18 18 18 18 18 18 17 17 16 14 13 10 8
40 40 40 39 40 39 38 38 37 32 29 28 26 24 24 25 25 25 26 27 29 30 30 29 28 27 26 24 22 21 21 20 20 20 20 19 19 18 16 14 12 10
42 43 42 41 41 40 38 39 38 36 33 31 29 27 28 27 26 25 26 28 29 30 30 31 30 29 28 26 24 23 23 22 22 22 22 22 21 20 18 16 14 12
46 45 43 42 41 40 40 40 39 38 37 34 32 31 31 30 27 26 25 26 28 30 30 31 31 30 29 28 26 25 24 24 24 24 24 23 22 21 20 19 17 14
51 48 45 43 42 41 42 42 41 40 39 36 34 33 34 33 31 29 27 25 25 27 29 30 30 30 30 30 28 26 26 25 25 24 24 24 24 23 22 20 19 17
55 53 49 46 44 43 43 43 43 41 39 38 36 35 35 35 35 34 31 28 26 26 28 29 29 29 30 30 29 28 27 27 27 26 26 26 25 24 23 22 21 19
55 55 52 50 48 47 47 46 45 43 40 39 38 37 37 37 37 36 36 34 32 30 29 29 29 29 28 29 29 28 28 28 28 28 29 29 28 26 25 24 23 21
56 56 55 53 52 51 51 50 49 47 45 43 41 40 39 39 39 39 39 38 36 34 32 32 31 29 27 27 27 27 26 27 28 29 31 32 31 28 26 26 25 24
58 58 58 57 56 56 55 54 53 51 48 46 45 43 42 41 41 42 42 41 40 38 36 36 35 31 27 27 27 27 27 29 32 34 33 32 31 29 28 27 27 26

ECMWFNIL_250_spd_096.txt.gz
Wind_Speed
9 7 8 8 8 8 7 6 5 4 3 2 1 1 1 0 1 2 3 4 6 8 8 9 11 12 13 13 13 13 13 13 14 14 14 14 15 15 15 15 15 15
8 6 7 9 10 10 9 8 8 7 6 4 3 3 3 2 2 1 1 2 4 5 6 7 9 10 11 12 12 13 12 12 13 13 14 14 14 14 14 15 15 15
8 6 6 8 10 10 10 10 10 10 9 7 6 5 4 4 4 3 3 2 2 3 4 5 6 8 10 11 11 12 11 11 12 12 13 13 14 14 14 14 14 15
9 6 5 7 9 10 11 11 12 12 11 10 9 7 6 6 6 5 5 4 3 2 2 3 5 6 8 9 10 10 11 10 10 11 12 12 13 13 13 13 14 15
12 8 5 5 7 9 11 12 13 14 13 12 11 10 9 8 7 7 7 6 5 4 3 3 3 4 6 7 8 9 10 10 10 10 10 11 12 12 13 13 14 14
12 10 8 7 8 9 11 12 14 14 14 14 13 12 12 11 9 9 9 9 8 6 5 4 4 4 5 6 7 8 9 9 9 9 10 10 11 12 12 13 14 15
12 9 8 9 9 10 12 13 14 15 15 15 15 14 13 13 12 11 10 10 10 9 8 7 6 6 6 6 7 8 8 9 9 9 9 10 11 11 12 13 14 15
15 12 10 9 10 11 12 13 13 14 15 16 17 17 16 14 14 13 13 12 12 12 11 10 9 8 8 8 8 8 9 9 9 9 9 10 10 11 12 13 14 15
18 18 17 14 13 13 14 13 13 14 16 16 18 19 18 17 15 15 14 14 13 13 13 12 11 10 10 9 9 9 9 9 9 9 9 9 10 11 12 13 13 14
19 20 21 21 19 19 18 16 15 16 16 17 18 19 19 19 18 17 16 15 15 15 15 15 14 13 12 11 11 10 10 9 8 8 8 8 9 9 10 11 12 13
21 20 21 22 23 23 22 19 17 17 18 18 19 19 20 20 20 20 18 17 17 17 17 17 16 15 14 13 12 12 11 10 9 8 7 7 8 8 8 9 10 11
24 24 22 23 24 24 24 21 19 18 18 19 19 19 20 20 20 21 21 20 20 19 19 19 18 17 16 15 14 13 13 11 10 8 7 7 7 7 7 7 8 9
26 26 26 26 26 25 25 25 23 21 20 19 20 20 19 19 20 21 22 23 22 21 21 21 20 19 18 17 17 15 14 13 11 9 7 7 6 6 6 6 6 7
29 29 30 30 28 26 27 27 26 24 22 20 20 21 20 18 19 21 23 24 24 23 22 22 21 21 19 18 18 17 16 15 13 11 9 7 6 5 5 4 5 5
36 35 35 33 29 28 29 29 27 25 24 23 21 21 21 20 19 20 22 24 25 24 23 23 23 22 21 19 19 19 18 17 15 13 11 9 7 5 4 3 3 3
40 39 37 35 31 29 30 29 27 26 27 27 25 23 22 22 21 20 20 22 24 25 25 24 24 24 23 21 20 19 19 18 17 16 14 11 9 6 4 3 2 2
41 40 39 38 35 32 31 30 30 29 28 29 29 26 24 23 22 21 21 21 23 25 26 26 26 25 25 24 22 21 20 19 19 18 16 14 11 9 6 4 3 3
43 42 41 40 39 37 35 33 33 32 31 31 32 30 26 24 24 24 23 22 23 25 26 26 26 26 26 26 25 23 21 21 21 20 19 17 15 12 9 7 5 4
45 44 42 41 41 41 40 37 36 35 35 36 36 34 31 29 29 29 27 24 23 24 26 26 26 26 26 27 26 25 23 22 22 22 21 20 18 16 13 10 8 6
46 47 45 42 42 42 42 41 40 39 40 40 41 39 37 35 34 33 31 28 25 25 25 26 25 24 25 26 26 26 24 24 24 23 23 23 22 20 18 15 13 10
46 46 46 44 43 44 44 44 44 43 43 43 43 42 40 38 37 37 34 31 28 26 25 25 24 22 23 23 24 25 26 26 25 25 25 25 24 24 22 20 17 15
46 44 44 43 42 44 47 48 48 47 46 45 44 43 42 41 40 39 37 34 31 29 26 24 22 21 21 22 23 25 26 27 28 28 27 26 25 24 23 22 20 18
51 45 41 39 36 37 42 45 47 48 47 46 45 44 44 44 43 42 40 36 34 33 30 26 23 21 22 23 24 25 26 28 29 29 29 28 25 23 22 20 19 17
60 50 40 35 31 33 37 39 40 43 45 46 46 46 45 46 46 45 43 40 38 36 33 30 27 24 24 24 25 26 27 28 29 30 29 27 24 22 20 19 18 17
64 55 46 42 38 37 39 38 37 38 41 44 47 48 48 48 47 46 45 43 41 38 36 33 30 29 28 28 28 27 27 27 29 29 28 25 22 20 19 19 19 18
66 61 56 53 49 45 44 44 42 39 40 43 47 50 50 50 50 48 47 45 43 41 39 37 34 33 32 32 32 30 29 28 29 29 27 25 24 25 24 23 22 20

ECMWFNIL_250_spd_099.txt.gz
Wind_Speed
8 8 10 11 11 11 11 11 11 11 11 11 11 11 11 10 9 9 8 9 10 11 12 14 15 17 17 15 14 12 12 11 11 11 11 11 10 10 9 9 8 9
8 7 8 10 11 11 11 11 11 11 11 11 11 11 11 12 11 10 9 9 9 10 12 13 14 15 17 17 15 14 13 13 12 12 12 11 11 11 10 10 10 9
8 6 7 9 10 11 11 12 12 11 11 12 12 11 11 12 12 12 11 10 10 10 11 12 13 14 15 17 17 16 15 14 14 13 13 13 13 12 12 12 12 12
6 4 4 7 9 10 11 12 12 12 12 12 12 12 12 11 11 12 12 12 11 10 10 11 12 12 14 15 17 17 16 16 15 15 14 14 14 14 14 14 14 14
6 3 2 4 6 7 9 11 12 13 12 13 13 13 13 12 11 11 12 13 12 11 10 10 11 11 12 14 15 16 17 16 15 15 15 15 15 15 15 15 16 16
9 4 1 2 2 4 7 9 10 12 12 13 13 13 14 13 13 12 12 12 13 13 11 10 10 10 11 12 13 14 15 16 15 15 15 15 15 15 15 15 16 17
9 4 2 1 1 2 5 7 9 11 12 13 14 14 15 15 15 14 13 12 13 14 14 12 11 10 10 10 11 12 13 14 14 14 14 14 14 14 14 15 15 16
9 6 6 5 6 6 6 7 8 10 12 14 15 15 15 16 17 17 17 15 14 14 15 14 13 11 10 10 10 10 10 12 13 13 13 13 13 13 13 14 15 15
13 11 11 11 11 11 10 10 10 11 13 15 16 16 16 16 18 18 19 19 17 16 15 15 14 13 11 10 10 10 10 10 11 12 12 12 12 12 12 13 13 14
18 18 16 14 14 14 13 13 13 13 14 15 16 17 17 16 17 18 19 20 20 19 17 16 16 15 13 12 11 11 10 10 10 10 11 10 10 10 10 11 11 12
22 23 19 16 14 15 15 15 15 15 14 14 15 17 18 18 17 17 18 19 20 20 19 18 17 17 15 14 12 12 11 10 10 9 9 9 9 8 8 9 9 10
25 24 20 16 15 17 18 18 17 17 16 16 16 17 17 17 18 18 18 19 20 19 19 19 18 18 17 15 13 12 11 10 9 9 8 8 8 7 7 7 7 7
25 24 20 16 16 19 20 20 19 19 20 20 20 19 18 17 17 18 19 20 20 20 19 18 18 18 18 16 15 13 12 11 9 8 8 7 7 6 6 6 6 6
26 24 24 23 20 20 22 23 21 20 22 24 24 23 21 18 17 18 19 20 21 20 19 18 17 17 18 17 16 14 13 11 10 9 8 7 6 5 5 5 5 5
28 26 27 27 25 23 24 25 24 24 25 27 27 25 23 22 20 19 19 21 22 22 21 19 17 16 16 16 16 15 14 13 11 10 9 8 7 6 5 4 4 4
31 28 26 26 26 26 26 26 27 28 28 29 30 29 26 24 23 22 21 21 22 23 22 21 19 16 15 15 15 15 14 13 13 12 11 10 9 8 6 5 4 3
31 28 27 27 27 27 27 27 28 29 29 29 31 32 31 28 25 24 23 22 23 25 24 23 22 19 17 16 15 15 15 14 13 13 13 12 11 10 8 6 5 4
33 30 30 30 29 29 28 26 27 29 30 30 32 33 34 33 30 27 25 24 24 26 27 26 25 22 20 18 16 16 16 15 14 14 14 14 13 12 10 8 7 6
37 34 32 31 31 31 29 29 30 31 32 33 34 35 36 37 35 32 29 27 27 28 30 30 27 25 23 21 19 17 17 17 16 15 15 14 13 12 11 9 8 7
38 38 36 35 36 35 31 30 32 34 35 36 37 38 38 38 38 36 33 31 30 31 32 32 30 28 25 23 20 19 18 18 18 17 16 15 14 13 11 10 8 7
36 39 40 40 40 40 37 35 37 41 42 41 41 41 42 41 39 38 37 36 34 34 35 35 33 30 27 24 21 19 19 18 18 18 18 17 15 14 13 12 11 10
35 36 39 38 37 39 41 42 43 43 41 40 40 42 44 43 42 40 40 40 39 37 37 38 36 34 30 26 22 19 19 18 18 18 18 18 16 15 14 14 13 12
43 42 40 36 33 35 39 44 47 45 42 40 39 40 42 43 43 42 41 42 43 42 40 40 39 36 34 29 25 22 20 19 18 18 18 18 17 15 15 15 15 15
50 49 44 38 37 38 40 43 47 48 46 44 42 42 42 41 41 41 41 41 43 43 42 42 41 39 36 33 29 26 24 22 20 19 18 17 16 16 17 17 17 18
54 53 49 46 47 48 47 45 45 46 46 46 46 46 43 39 38 40 41 42 43 42 41 42 42 41 39 37 34 31 29 26 24 23 22 19 17 17 18 20 20 19
58 56 54 54 55 56 55 53 51 50 50 49 50 50 48 44 43 43 44 45 45 44 42 43 43 42 40 39 38 36 34 31 29 28 27 24 22 20 20 20 20 18

ECMWFNIL_250_spd_102.txt.gz
Wind_Speed
13 11 10 9 9 9 9 10 11 12 12 13 14 14 15 15 16 16 17 18 18 18 18 19 21 22 23 22 21 20 20 20 19 19 19 19 18 17 17 16 15 15
13 11 9 8 7 7 7 8 9 10 11 11 12 12 13 14 14 15 15 16 18 18 18 18 19 20 22 22 22 21 20 19 19 19 19 19 19 18 18 17 17 16
12 10 9 8 6 6 7 7 8 8 9 10 11 11 12 12 13 14 14 15 16 18 18 18 18 19 20 21 21 21 20 19 19 19 19 19 19 18 18 18 18 18
11 9 8 7 5 5 6 7 7 8 8 9 10 11 11 12 12 13 13 14 15 16 17 18 18 18 19 20 20 20 20 19 19 18 18 18 18 18 18 18 18 18
13 9 5 6 5 4 7 8 8 9 9 9 9 10 11 11 12 12 13 14 14 15 16 17 17 18 18 18 19 20 19 19 18 18 18 18 18 18 18 18 18 18
13 11 5 5 3 4 7 9 9 10 10 10 9 10 11 12 12 13 13 14 14 15 16 16 16 16 17 17 18 18 19 19 18 17 17 17 17 17 17 17 18 18
13 11 7 5 4 5 8 9 10 11 11 11 10 10 11 12 13 13 14 14 14 15 15 16 15 15 15 15 15 16 17 18 18 17 16 16 15 15 15 16 16 17
14 12 9 8 7 8 8 9 10 10 11 11 11 11 11 12 13 13 14 14 14 14 14 15 15 14 13 13 13 14 14 15 16 16 16 15 14 14 14 14 15 15
17 15 13 12 12 12 11 9 8 9 10 11 10 11 11 12 12 13 13 14 14 14 14 13 14 13 12 11 11 11 12 12 13 13 14 14 13 13 13 13 13 14
18 18 16 15 16 16 14 10 8 8 9 10 10 10 11 12 12 12 12 13 13 14 14 13 12 12 11 10 9 9 9 10 10 10 11 12 12 12 11 12 12 12
19 20 19 18 19 18 15 11 9 8 8 10 10 9 11 12 12 12 12 12 12 13 13 13 12 11 10 8 7 7 7 7 8 8 9 9 10 10 10 10 10 10
22 22 20 19 21 20 15 12 12 11 10 10 10 10 10 11 12 13 13 12 11 11 12 13 13 12 9 7 6 5 5 5 6 6 6 6 7 8 8 8 8 7
24 23 22 22 23 22 18 16 15 14 13 11 11 12 12 10 10 12 14 15 13 11 10 11 12 12 11 8 6 3 3 3 3 4 4 4 4 5 6 6 5 5
27 27 27 27 25 24 22 20 18 18 17 14 12 13 14 12 10 11 14 16 16 14 12 10 10 11 11 10 8 5 3 1 1 2 3 3 3 2 2 3 3 3
31 31 31 30 27 26 24 23 21 20 19 16 14 14 16 16 14 13 13 15 16 16 15 12 10 9 10 10 10 9 6 4 3 3 3 4 3 3 2 2 2 3
34 34 33 30 28 26 25 24 23 22 21 19 18 17 18 19 18 16 16 15 15 16 16 15 12 10 9 10 11 12 11 8 7 6 5 5 5 5 4 4 3 4
38 37 34 31 29 28 28 27 26 25 23 22 21 20 20 20 20 19 18 18 18 17 17 16 14 12 12 11 11 12 14 13 11 9 8 6 6 6 6 5 5 5
39 38 35 34 32 30 30 29 28 26 24 24 24 24 23 22 21 21 20 20 21 21 19 18 16 15 15 14 13 13 14 15 14 12 10 8 7 6 6 6 6 6
37 36 34 35 34 32 31 31 31 29 26 25 25 27 28 24 22 25 26 26 25 24 23 21 18 17 17 16 16 15 14 16 16 14 13 11 9 8 8 8 8 8
36 34 34 36 35 34 32 31 31 31 30 29 28 31 32 29 27 29 30 30 28 26 26 25 22 20 19 19 18 17 16 17 17 16 14 13 12 11 10 10 10 10
42 39 38 38 37 35 34 34 34 34 34 34 33 34 34 32 32 32 30 30 30 28 28 28 26 24 22 21 21 20 19 19 18 18 16 14 14 13 13 12 13 13
51 47 43 40 38 38 38 37 36 36 36 36 36 35 34 33 34 34 32 32 33 31 30 31 29 27 26 24 24 23 23 22 20 20 19 17 15 15 15 15 15 15
55 49 44 41 40 41 41 39 38 39 40 39 38 38 37 36 36 36 35 35 36 34 32 33 32 31 29 27 27 27 27 27 24 23 23 21 18 16 17 17 17 17
56 51 46 44 44 45 43 40 40 42 43 42 41 41 40 40 40 40 39 39 39 36 33 32 32 31 30 29 29 29 30 30 28 27 26 25 22 19 18 18 19 20
57 53 50 50 51 51 48 44 42 44 46 44 41 40 40 42 44 44 43 42 40 36 34 33 32 30 29 29 30 30 30 31 31 31 30 29 27 24 22 21 20 21
58 57 56 56 56 57 56 54 51 49 47 42 36 35 35 38 43 47 47 46 43 40 38 37 34 32 31 31 32 33 32 32 33 33 33 32 32 30 28 26 23 22

ECMWFNIL_250_spd_105.txt.gz
Wind_Speed
13 11 10 10 11 12 12 13 14 15 15 15 16 17 18 19 19 20 20 20 20 21 22 23 24 23 22 21 21 20 20 21 21 21 21 20 20 19 19 18 18 18
14 11 9 9 11 12 12 13 14 15 16 15 14 15 16 18 19 19 20 20 19 20 20 21 22 22 22 21 21 20 20 20 20 21 21 21 20 20 20 20 20 20
15 13 9 7 10 12 12 13 14 15 16 16 14 14 14 16 18 19 19 19 19 19 19 19 19 20 21 21 21 20 20 20 20 20 20 20 20 20 20 20 21 21
13 14 12 8 8 12 12 12 14 15 15 16 15 14 14 14 16 18 18 18 19 18 18 18 18 18 19 19 20 20 20 19 19 19 19 20 20 20 20 20 21 22
9 11 13 10 6 9 12 12 13 14 14 14 15 14 14 13 14 15 16 17 17 17 17 17 17 17 17 17 18 19 19 19 18 18 18 18 19 19 19 20 21 23
6 6 9 11 7 6 11 11 11 12 12 12 13 14 13 13 12 12 14 15 15 16 16 15 15 15 15 15 15 16 17 17 17 17 17 17 18 18 19 20 21 22
6 5 6 9 7 4 7 10 9 8 9 9 11 13 13 12 12 11 11 12 13 14 14 14 14 13 14 14 14 14 14 15 15 15 15 15 16 16 17 18 19 21
9 8 7 8 7 5 5 8 8 7 6 6 8 10 12 13 12 11 10 10 11 12 12 12 11 11 11 12 12 12 12 13 13 14 14 14 14 14 15 16 17 18
11 11 9 7 7 7 7 8 8 7 5 3 5 7 9 11 12 12 11 10 10 10 10 11 10 9 9 9 10 10 10 10 11 11 12 12 12 12 12 13 14 15
15 14 12 10 8 9 11 11 10 8 6 4 4 5 6 9 11 12 11 10 9 9 9 9 9 8 7 7 7 8 8 8 8 9 9 10 10 9 10 10 11 12
20 18 15 13 11 10 12 13 13 11 8 6 6 5 5 6 9 11 11 10 9 8 8 8 9 8 6 5 5 5 6 6 6 6 7 7 7 7 7 7 8 9
25 22 18 16 14 13 13 13 14 12 10 9 8 7 5 5 8 10 10 9 8 7 7 7 7 7 6 5 3 3 3 4 4 4 4 5 5 5 5 5 5 6
27 24 21 19 17 16 15 15 15 14 13 13 12 9 7 5 7 10 11 9 6 5 5 5 5 6 6 6 4 2 1 1 2 2 3 2 2 2 2 3 3 4
28 26 24 22 21 19 18 18 17 16 16 17 17 14 10 7 7 10 12 11 8 5 3 4 4 3 4 5 5 3 1 2 2 2 2 2 2 1 1 1 2 3
30 29 27 25 24 22 22 21 19 18 19 20 20 18 15 13 11 11 12 11 10 8 7 7 6 4 2 2 4 4 3 2 3 4 4 4 4 3 3 2 2 3
32 30 29 28 27 25 25 23 21 21 22 23 22 20 18 18 17 15 14 13 13 11 10 11 11 9 5 4 2 1 3 3 3 4 5 6 6 5 5 5 5 5
36 34 32 32 31 29 27 26 24 24 24 24 23 21 20 21 21 19 18 16 15 14 12 12 13 13 10 7 6 4 1 1 2 3 5 7 7 7 7 6 7 7
38 37 35 35 34 32 30 30 28 27 27 26 25 23 22 23 23 21 21 20 18 17 16 14 13 15 14 12 9 8 6 4 2 2 4 7 9 10 10 9 9 9
40 40 38 38 36 34 34 33 31 30 30 29 29 28 27 26 25 23 22 23 22 19 19 19 17 17 17 16 13 11 10 9 7 5 5 6 9 12 13 13 13 13
43 43 40 38 35 33 34 34 33 32 33 33 34 34 32 30 29 27 25 26 26 24 23 23 21 20 20 19 18 17 16 14 12 9 8 8 9 12 15 16 16 16
45 46 44 39 34 31 33 36 35 35 36 37 37 37 36 34 33 31 29 29 29 29 29 27 24 22 21 21 21 21 21 20 17 14 11 10 11 12 14 17 19 20
48 49 48 42 36 33 34 38 39 39 39 40 39 39 38 36 35 34 32 31 31 32 34 32 29 26 24 23 23 23 24 25 23 21 17 14 13 13 14 16 19 21
51 53 53 48 42 40 39 40 41 42 43 42 41 41 40 38 36 35 35 34 34 35 36 35 32 29 27 26 26 25 26 27 28 27 23 19 16 16 17 17 18 19
53 53 54 53 50 48 48 47 46 47 47 46 45 45 43 41 40 38 37 37 37 38 38 35 32 32 32 30 29 29 29 30 31 30 27 22 19 19 21 21 20 19
59 56 55 56 55 54 54 53 51 50 50 49 48 48 47 45 44 42 39 39 39 40 40 37 34 34 36 35 33 32 32 33 34 34 30 23 20 21 23 24 24 22
64 64 61 59 59 59 58 57 54 52 52 52 51 50 49 49 48 45 42 42 42 42 42 40 37 37 38 39 37 36 36 36 37 36 33 26 21 21 23 25 27 26

ECMWFNIL_250_spd_108.txt.gz
Wind_Speed
11 11 13 15 15 15 14 13 14 15 16 16 17 18 17 16 16 17 17 18 19 20 20 20 20 20 19 20 19 20 21 21 20 20 20 20 19 19 19 19 19 20
12 10 10 13 15 15 14 13 13 14 14 15 16 17 17 17 16 16 16 16 17 18 19 19 19 19 19 19 19 19 20 21 21 21 21 21 20 20 20 20 20 21
10 10 9 9 12 15 15 14 14 13 12 13 14 15 16 16 16 15 15 15 15 16 17 17 18 19 18 18 18 19 19 19 20 22 22 22 22 21 21 22 22 22
5 8 8 7 8 12 14 13 13 12 11 11 12 13 14 15 15 15 14 14 14 14 15 15 16 17 17 18 18 18 18 18 19 21 22 23 23 23 23 24 24 24
0 3 6 6 5 7 10 11 11 11 11 9 10 11 12 13 14 14 13 13 14 13 13 13 14 15 16 17 17 17 17 17 18 20 21 22 23 24 25 25 25 25
3 2 2 4 3 3 5 8 8 8 9 9 9 9 9 11 13 13 12 12 12 12 12 11 12 12 13 14 15 15 16 16 16 18 19 20 22 23 24 25 25 25
6 5 4 1 1 1 1 4 6 6 6 7 8 9 8 8 11 11 11 11 10 10 10 10 10 10 11 11 12 13 14 14 15 16 17 18 19 21 22 23 24 24
10 9 8 6 3 2 2 2 5 5 3 3 6 8 7 7 9 10 10 10 9 9 9 8 8 8 8 8 9 10 11 12 13 13 15 16 17 18 19 21 21 22
14 13 11 10 7 5 4 3 4 5 4 2 3 5 6 7 8 9 9 8 8 8 7 7 7 6 6 6 6 7 8 9 10 10 11 12 13 14 16 17 18 19
18 17 15 13 11 10 7 6 5 5 6 4 2 2 3 5 7 8 8 7 6 6 6 6 6 5 5 4 4 5 5 6 6 7 8 9 10 11 12 13 14 15
19 19 18 16 15 13 11 10 7 6 8 8 5 3 3 1 3 6 7 6 5 4 4 4 5 4 4 3 2 2 3 3 3 4 4 5 6 8 9 9 10 11
20 21 21 20 18 16 14 13 11 9 10 10 9 7 6 4 1 2 5 5 5 3 2 3 3 3 3 2 1 1 1 1 2 1 1 2 3 4 5 6 7 8
23 23 23 23 21 20 18 16 14 12 11 12 12 10 10 9 7 3 2 3 4 4 2 1 2 2 2 2 1 1 2 1 1 0 0 1 1 1 2 3 3 5
25 25 26 25 24 23 22 20 18 16 15 14 13 12 13 14 13 9 5 3 2 3 2 1 1 1 1 1 1 1 2 3 3 2 2 2 3 3 2 2 2 3
28 27 28 28 27 27 26 24 22 20 19 18 15 13 15 16 17 16 11 7 6 5 4 3 2 2 2 2 2 2 3 3 4 5 4 4 4 4 5 5 4 4
30 29 30 29 29 29 29 28 26 23 22 21 18 16 16 17 18 18 16 13 11 10 8 7 6 5 5 4 4 4 4 5 6 6 6 6 6 6 7 7 7 7
34 32 32 32 30 31 32 32 30 27 24 23 22 21 20 19 19 18 18 18 17 15 14 12 10 9 8 8 7 7 7 7 7 8 8 8 9 9 9 10 10 10
38 37 36 35 33 32 34 35 32 30 28 27 25 24 23 22 22 21 21 21 21 21 19 16 15 13 12 11 11 10 11 10 10 10 9 10 10 11 12 12 12 13
42 41 40 39 36 34 35 37 35 33 33 31 29 28 27 26 25 25 25 24 23 22 22 20 18 17 16 14 13 13 14 14 14 13 12 11 11 12 13 14 15 15
46 45 43 43 43 40 38 39 38 36 36 35 33 32 31 30 29 29 30 30 27 24 23 22 21 21 20 19 18 17 17 17 17 16 15 14 13 13 13 14 16 17
50 49 47 46 47 45 42 42 41 39 37 37 37 36 35 34 33 33 33 33 31 30 29 27 26 25 25 25 24 22 21 20 19 19 19 18 16 15 15 15 16 17
53 52 49 47 48 47 45 44 44 42 40 39 39 39 38 38 37 37 37 36 35 34 33 32 31 31 31 30 29 28 26 24 22 22 21 21 20 19 19 19 19 18
55 54 51 49 48 47 47 47 46 45 43 42 41 40 40 40 39 39 40 39 38 38 36 35 36 37 36 34 33 32 30 28 26 25 24 23 22 22 22 22 22 21
59 56 53 51 50 49 49 50 49 47 44 43 43 43 42 41 40 41 41 41 40 40 38 36 38 40 39 36 35 33 32 30 29 28 26 25 24 24 24 25 25 24
63 60 56 53 51 51 52 53 53 52 49 47 47 47 46 44 43 43 44 43 41 41 40 38 39 41 40 39 37 36 35 34 33 32 30 28 27 26 25 26 26 27
68 65 62 58 55 55 55 56 56 54 53 52 52 51 50 50 48 47 46 45 43 42 41 40 41 43 43 43 42 39 38 37 37 37 35 32 30 28 27 27 27 28

ECMWFNIL_250_spd_111.txt.gz
Wind_Speed
11 12 14 14 14 13 12 12 13 13 13 14 14 14 13 14 15 16 17 18 19 19 19 19 20 20 21 22 22 21 20 21 21 18 17 16 15 14 15 16 16 17
11 11 12 14 14 13 12 11 11 11 11 12 13 12 11 12 12 13 15 16 17 18 18 18 18 19 20 21 22 21 21 22 22 20 19 18 17 16 17 18 19 21
12 11 10 12 12 11 11 10 10 10 10 10 11 10 10 10 11 11 12 13 14 16 16 17 18 17 18 20 21 21 22 22 22 21 21 20 19 19 20 20 21 22
9 10 9 9 9 9 10 9 9 9 8 9 9 9 10 9 9 9 10 11 12 13 14 15 16 16 17 19 20 21 22 22 21 21 21 21 21 21 22 22 22 23
4 6 7 6 4 6 8 8 7 7 7 7 7 7 8 8 8 7 7 8 9 11 12 13 13 14 15 18 19 18 19 20 21 20 21 21 21 22 22 22 22 22
4 3 2 3 3 2 4 6 6 6 6 6 5 5 6 6 7 7 7 7 7 8 9 10 12 13 14 15 17 17 16 18 20 20 20 21 22 22 22 22 21 21
5 5 4 2 1 1 0 3 4 5 5 4 4 5 5 5 5 7 7 7 7 7 8 9 10 11 12 13 14 15 15 16 17 19 19 20 20 21 21 21 20 20
7 7 7 6 3 2 3 1 2 3 3 3 3 5 6 5 5 5 7 8 8 8 8 9 9 10 11 12 12 13 13 13 14 15 16 18 19 19 19 19 18 18
9 8 8 9 8 6 5 4 2 2 2 1 1 3 5 6 5 5 6 8 10 10 10 10 10 10 11 11 11 11 11 11 11 12 13 15 16 17 17 17 16 16
12 10 10 11 11 10 9 8 6 5 4 4 3 1 2 4 5 5 5 6 9 10 11 11 10 10 11 11 11 11 10 10 9 9 10 11 12 13 14 14 14 14
16 13 12 12 13 13 12 10 10 9 7 7 6 4 2 2 3 4 4 5 7 9 10 10 10 11 11 11 11 10 9 9 8 7 6 7 7 9 10 11 11 12
22 18 15 13 14 15 15 13 12 11 10 8 8 8 7 5 4 4 4 3 4 6 8 8 9 10 11 11 11 10 9 9 8 7 5 4 3 4 5 6 7 8
27 24 20 17 16 17 18 17 15 14 13 12 11 10 10 9 8 7 6 4 2 3 4 6 7 8 10 10 10 10 9 9 8 7 6 4 2 1 1 2 3 4
30 29 26 22 20 19 20 20 19 17 16 15 14 12 11 10 10 11 11 9 6 4 3 4 6 7 9 10 9 9 8 8 8 7 6 5 4 3 3 3 3 3
31 31 30 27 23 22 22 22 22 21 19 19 18 16 14 12 12 13 13 12 11 8 5 5 7 8 9 10 10 10 9 8 8 7 7 6 6 6 6 6 5 5
33 32 32 30 27 25 24 24 24 24 23 22 21 20 18 17 17 17 16 15 14 13 10 8 9 10 11 12 12 11 10 10 9 9 8 8 8 8 8 8 9 8
37 35 34 33 31 28 26 26 26 27 26 26 25 24 22 21 21 20 19 17 17 16 15 13 13 13 13 14 14 14 12 12 12 11 11 11 11 11 11 11 11 11
39 37 35 34 33 32 30 28 28 29 29 29 28 27 26 24 24 22 22 21 21 19 17 17 18 18 16 15 16 17 16 15 14 13 13 12 13 13 14 14 13 13
40 38 36 35 36 35 34 32 30 30 30 30 30 30 29 28 27 26 25 24 25 24 21 19 18 20 20 19 19 20 20 19 17 15 14 14 14 15 15 16 16 15
42 39 38 37 38 38 37 36 34 33 33 33 31 32 32 31 30 30 29 28 27 27 27 25 22 21 21 22 23 24 24 23 21 18 17 16 15 16 17 18 19 19
43 42 41 40 39 39 38 39 39 38 37 35 33 32 33 33 31 31 32 33 31 30 30 30 29 28 27 25 25 27 27 27 26 23 21 19 18 18 18 19 21 22
48 46 43 42 41 39 37 39 42 42 39 36 35 34 35 36 35 33 34 35 36 35 34 32 32 35 36 32 30 31 32 32 31 29 26 24 22 21 20 20 21 23
57 53 47 43 43 43 40 41 44 43 40 38 38 38 38 39 39 38 37 36 37 38 38 37 36 38 39 38 36 36 37 37 35 33 30 28 27 25 24 23 23 23
64 61 56 53 52 53 51 49 47 45 42 41 40 41 41 43 43 43 42 41 39 38 40 42 43 41 42 42 39 38 39 40 39 37 34 33 32 30 28 26 26 27
66 66 66 64 62 62 62 61 59 56 51 46 43 42 42 42 44 47 47 46 43 42 42 45 46 45 45 45 43 41 41 41 41 40 39 37 36 34 31 30 30 31
66 67 69 69 66 65 66 67 66 63 59 54 49 46 43 42 45 48 49 47 45 46 46 46 47 47 46 46 45 44 43 42 42 43 42 40 38 37 36 35 35 36

ECMWFNIL_250_spd_114.txt.gz
Wind_Speed
12 13 13 15 15 15 16 18 19 19 20 20 19 19 19 19 19 18 18 18 18 18 19 19 19 20 21 22 22 21 21 20 20 19 20 20 19 20 19 19 20 22
9 11 12 13 14 15 15 16 17 17 18 19 19 19 19 19 19 18 18 18 17 17 18 19 19 20 22 22 22 22 21 21 21 21 21 21 21 21 22 21 21 22
7 8 10 10 12 13 14 14 15 15 16 18 19 19 19 20 19 19 18 18 18 18 18 19 19 20 23 23 22 22 22 22 22 22 21 21 21 22 22 21 21 20
5 6 6 6 8 10 12 12 13 13 14 16 18 18 18 20 20 20 20 19 19 19 18 18 18 19 21 22 22 21 22 22 22 22 21 20 20 20 21 21 21 21
2 3 3 3 4 7 9 10 11 11 12 13 16 17 17 18 20 20 21 21 21 20 19 19 19 18 19 20 21 20 20 20 20 20 20 19 19 19 19 19 20 19
5 4 1 1 2 4 5 7 8 9 10 11 13 15 16 17 19 19 20 21 22 21 20 19 18 18 17 17 18 19 18 18 18 18 18 18 17 17 17 18 17 17
9 7 5 3 2 3 3 4 6 7 7 8 10 12 13 15 17 18 19 20 20 21 21 20 18 17 16 15 15 16 17 17 16 16 16 16 16 16 16 16 16 16
12 10 8 6 4 4 4 3 4 5 5 5 6 8 9 12 14 15 16 16 18 19 21 21 20 18 16 15 14 14 14 14 15 15 14 13 13 13 13 14 15 15
15 13 11 9 7 6 6 5 5 5 5 4 4 5 6 7 9 11 12 12 13 16 18 19 20 20 17 16 14 13 12 12 12 13 13 11 11 11 11 11 12 13
18 16 14 12 10 9 9 8 8 7 7 6 5 5 5 5 5 7 8 8 8 10 13 15 17 18 18 17 15 13 11 10 10 10 10 10 10 9 9 9 9 9
20 19 17 15 13 12 11 11 11 10 9 9 8 7 7 6 5 4 5 5 5 6 7 9 12 14 16 16 16 13 10 9 8 8 7 8 9 8 8 7 7 6
23 22 21 19 16 14 12 12 13 12 11 10 10 10 10 10 8 7 5 5 5 5 5 5 7 10 12 13 14 14 11 10 9 7 6 5 5 6 6 6 5 5
27 25 24 23 21 17 14 13 13 14 13 12 12 12 12 13 12 11 9 7 7 7 7 5 4 4 7 9 11 12 12 11 10 8 6 5 3 2 3 4 5 5
31 29 28 27 25 23 20 16 15 16 16 16 15 14 14 14 14 13 11 8 7 8 9 9 8 6 4 5 7 9 10 11 10 9 7 7 6 4 1 1 3 4
35 34 32 30 28 27 26 23 19 18 18 19 19 18 18 16 15 14 13 11 8 6 7 9 11 11 10 8 7 7 8 9 10 9 8 8 8 7 6 5 4 4
37 37 35 33 31 30 30 29 26 24 22 22 22 22 21 19 18 17 16 16 15 13 11 10 10 13 14 13 11 10 8 8 8 9 9 9 8 8 8 8 7 7
39 38 37 34 32 31 31 31 30 28 26 25 25 25 24 22 22 21 20 20 21 21 19 15 12 13 15 16 16 16 13 11 10 10 11 11 10 9 9 9 9 9
43 41 39 36 34 34 34 33 33 32 30 28 28 27 26 25 25 25 23 23 24 24 23 20 17 15 14 16 18 20 19 16 14 13 13 14 14 12 11 10 10 11
46 45 43 40 40 40 38 36 36 35 34 32 30 30 30 28 27 27 27 26 26 25 25 23 21 20 19 17 16 18 20 20 18 17 16 17 18 17 16 15 13 13
51 49 47 45 45 45 42 39 38 37 36 35 33 33 34 31 29 29 30 30 29 28 27 26 25 25 26 24 20 19 20 20 20 20 20 21 22 21 21 20 19 17
53 52 51 51 50 49 47 45 43 41 40 38 36 37 37 34 32 33 33 32 31 30 29 29 28 29 30 29 27 25 25 24 23 23 24 25 26 26 26 25 24 23
52 51 52 53 52 50 50 48 47 46 45 42 41 40 39 37 36 36 35 34 34 33 32 31 31 31 31 32 30 29 29 30 29 28 29 30 30 31 30 29 28 27
53 52 52 52 50 49 48 47 47 47 46 45 44 43 41 40 40 40 39 38 38 36 34 33 32 31 32 33 33 32 32 34 35 33 33 33 34 34 34 33 31 30
55 55 55 53 51 49 48 47 48 47 46 45 45 44 42 40 39 39 37 38 39 39 38 36 35 35 35 35 34 33 33 35 37 38 37 36 36 37 37 37 35 33
57 58 59 56 53 52 51 50 50 48 45 42 42 43 41 38 38 38 37 38 40 41 40 40 39 39 38 38 36 35 35 36 38 40 40 39 39 39 40 41 40 38
62 62 62 59 55 53 53 52 53 53 50 46 44 45 45 42 41 41 40 38 38 38 39 40 41 42 40 39 39 39 39 39 40 41 42 42 42 42 43 44 43 41

ECMWFNIL_250_spd_117.txt.gz
Wind_Speed
12 14 16 18 20 21 23 24 24 25 25 25 25 25 24 25 25 24 22 21 20 21 22 24 24 24 24 24 24 23 22 22 22 22 22 23 25 27 29 30 30 30
9 11 13 15 16 18 19 21 23 23 24 24 24 24 24 24 24 24 23 22 20 19 20 23 24 24 24 24 24 23 22 22 22 23 24 25 26 28 29 28 26 26
6 9 10 12 13 15 16 18 20 21 22 23 23 23 24 24 24 24 24 23 21 19 19 21 22 23 24 24 24 23 22 21 21 22 22 22 23 24 23 21 21 23
5 8 9 9 10 12 13 14 16 17 19 21 22 22 23 24 24 24 24 24 23 21 19 19 20 21 22 23 23 23 22 20 19 20 20 20 20 20 19 19 21 23
6 7 9 8 8 8 10 12 13 14 15 17 19 20 21 22 22 23 23 23 23 22 21 19 18 19 20 21 22 22 21 20 19 18 18 18 19 19 20 21 22 23
9 8 8 8 8 6 7 8 10 11 12 13 15 16 17 18 19 20 21 22 22 22 21 20 18 17 17 19 20 20 21 20 19 17 16 16 15 16 16 17 18 19
12 11 10 9 9 8 6 6 7 9 9 10 11 12 13 14 15 16 17 18 19 19 20 20 19 17 16 16 16 17 18 18 18 17 15 14 13 13 13 13 14 15
15 14 12 11 11 10 9 7 6 7 8 8 8 8 10 11 11 12 13 14 16 17 18 18 19 18 16 15 15 14 15 16 16 16 15 13 11 11 11 12 13 13
17 16 15 13 13 12 11 10 9 8 7 7 7 6 6 8 9 9 10 11 12 14 15 15 16 17 17 16 14 13 12 12 12 13 13 12 11 9 9 9 10 11
20 19 17 16 15 13 12 11 11 11 9 7 7 7 7 6 7 7 8 9 9 10 12 13 13 14 15 15 14 13 12 10 9 9 10 10 10 9 8 7 6 7
24 22 20 19 17 16 15 14 13 12 11 9 8 8 8 8 7 8 8 8 8 7 8 9 10 11 11 12 12 12 11 11 9 8 7 7 7 7 7 6 5 4
26 26 24 22 20 19 18 16 15 14 13 12 10 9 9 10 9 9 9 9 7 7 7 6 6 7 8 9 9 9 9 10 9 8 7 6 4 3 3 4 4 3
30 29 28 26 23 22 21 19 18 16 15 14 12 12 11 11 12 11 10 9 8 6 5 6 6 6 6 7 7 7 7 7 7 7 7 7 6 4 3 3 3 2
33 32 32 29 26 25 24 23 21 19 18 16 15 14 13 13 14 14 12 11 10 8 6 5 6 7 8 8 8 6 5 5 5 5 6 7 7 6 6 5 5 5
35 35 34 32 30 27 26 27 26 24 22 20 19 17 17 16 16 16 15 13 12 12 12 11 10 10 10 11 11 9 6 4 4 3 3 4 5 6 6 6 6 5
38 37 36 35 34 32 30 30 30 28 26 25 24 23 21 20 19 18 17 16 15 14 14 13 13 12 12 13 14 14 11 8 6 5 3 3 4 4 5 5 6 6
40 39 38 37 36 36 35 34 33 31 29 29 29 28 26 25 24 21 20 19 19 18 17 17 17 15 15 16 18 18 15 12 10 9 7 6 5 5 5 5 6 6
39 42 42 38 36 38 39 38 36 33 31 32 32 31 29 28 27 25 24 22 22 21 20 21 21 20 20 21 21 21 20 17 15 13 12 10 9 9 8 8 8 9
41 46 46 39 36 38 39 38 37 35 33 33 34 32 31 31 29 28 26 24 24 23 24 24 24 23 24 24 24 24 22 20 18 17 16 14 13 13 12 12 13 13
43 47 45 40 38 40 40 38 37 37 36 35 35 35 34 33 32 31 29 28 27 26 26 27 27 26 26 27 28 27 25 23 22 22 21 20 19 18 17 17 17 18
49 51 51 48 47 47 46 43 40 38 37 37 38 38 38 37 35 34 32 31 30 30 30 29 29 29 29 29 30 29 28 28 26 26 26 26 25 24 24 23 22 22
60 62 62 59 56 55 56 54 51 48 45 44 44 43 43 42 40 37 35 35 33 32 32 32 33 32 32 32 32 31 30 30 31 30 29 29 29 29 28 28 26 26
66 66 65 64 62 59 59 60 58 55 52 50 50 49 48 47 44 42 40 39 37 35 34 35 35 35 34 35 35 34 32 31 32 33 33 32 32 32 31 31 30 29
64 65 64 65 64 61 59 59 58 56 55 54 53 53 52 50 48 46 45 43 40 38 37 37 38 38 37 38 39 38 36 34 33 34 34 35 34 34 33 32 32 31
61 63 61 61 62 61 59 60 60 58 56 55 53 53 53 53 51 49 47 45 43 42 41 41 40 40 38 38 39 40 40 39 37 36 37 39 39 37 34 32 32 32
63 65 63 61 61 59 57 57 59 58 56 55 53 51 50 50 50 50 49 47 45 44 42 39 39 38 36 36 37 39 42 44 42 41 42 43 43 41 38 35 34 35

ECMWFNIL_250_spd_120.txt.gz
Wind_Speed
15 16 17 18 20 22 23 25 26 26 26 27 28 28 28 28 28 28 28 28 29 28 28 28 27 27 26 25 24 24 25 26 27 28 28 29 28 28 27 26 25 24
11 13 14 16 17 18 20 21 23 24 24 24 26 26 27 27 26 26 26 27 27 28 28 27 27 26 26 25 24 24 24 25 26 27 27 27 26 26 26 25 24 23
9 10 11 13 14 15 16 18 19 20 21 22 22 24 25 25 25 25 25 25 25 26 26 26 26 25 25 24 24 23 22 22 23 23 24 23 23 24 24 24 24 23
8 9 9 10 10 11 13 14 15 16 17 18 19 21 22 23 23 23 23 23 23 23 24 24 24 24 23 23 22 22 21 20 19 18 19 19 20 21 22 22 22 22
8 8 9 9 9 9 10 11 12 13 14 15 16 17 18 19 21 21 21 21 21 21 21 22 22 22 22 21 20 20 19 19 17 17 17 17 18 19 20 20 20 20
9 9 9 10 9 8 8 8 9 10 11 12 13 14 15 16 17 19 19 19 19 19 19 20 20 20 20 20 19 18 18 17 16 16 16 16 16 16 16 16 16 16
11 11 10 10 10 10 9 8 7 8 8 9 10 11 12 13 14 15 16 17 17 17 17 18 18 18 18 17 17 17 16 16 15 14 13 13 13 12 12 12 12 12
12 12 12 11 11 11 11 9 8 7 6 6 7 8 9 9 10 12 13 14 15 15 15 15 16 16 16 16 15 15 14 14 14 13 12 11 10 10 9 9 9 8
15 14 14 13 13 12 12 12 10 8 6 5 4 5 6 7 7 8 9 10 11 12 13 13 13 13 14 14 14 13 12 12 12 12 11 10 9 8 8 7 7 6
17 17 16 16 15 14 14 13 13 11 9 7 5 4 4 5 5 6 6 6 7 8 9 10 11 11 11 11 12 11 11 10 10 9 9 8 8 7 6 5 5 4
20 20 19 18 18 17 16 16 15 14 12 10 8 7 5 4 4 4 4 4 4 4 5 6 7 8 8 8 8 9 9 9 9 8 8 6 5 5 4 3 2 2
24 23 22 21 21 20 19 18 18 17 15 13 12 11 9 7 6 5 4 5 5 4 3 3 3 4 5 5 6 6 6 6 7 7 7 6 5 4 3 1 0 1
27 27 26 24 24 23 22 21 21 20 18 16 14 14 13 11 9 7 7 7 7 7 6 5 3 2 3 4 4 4 4 4 4 5 5 6 5 4 3 2 2 2
30 30 29 28 27 26 25 24 24 23 21 20 17 16 17 16 14 11 10 10 10 10 10 10 8 5 5 6 5 3 3 2 2 2 3 3 3 3 2 2 2 2
34 32 32 31 30 29 28 27 27 26 24 23 22 20 19 19 18 15 13 12 12 13 13 14 13 9 7 7 6 5 4 3 3 2 1 1 1 2 1 1 2 2
39 36 34 33 32 31 30 29 29 28 26 25 25 24 23 22 21 19 17 16 15 15 15 15 15 13 11 10 10 10 9 8 6 6 5 4 4 3 4 3 2 2
40 38 36 35 33 32 32 32 31 31 29 27 27 27 27 27 26 25 23 21 20 19 17 16 16 17 17 15 14 14 14 13 11 11 10 9 8 7 6 6 5 4
40 39 37 35 34 34 35 34 34 35 34 30 29 29 30 30 30 29 28 27 25 23 21 19 19 20 20 20 20 19 18 17 15 15 15 14 14 13 12 10 9 8
41 39 36 34 33 34 36 36 35 36 37 34 32 32 31 32 33 32 31 30 29 27 24 21 21 22 23 22 22 22 21 20 19 18 19 18 18 19 18 17 16 15
44 39 36 35 35 34 36 37 36 37 38 37 35 35 35 35 35 35 34 33 32 30 28 26 24 25 25 25 24 24 24 24 23 22 21 21 22 23 23 22 22 21
48 42 38 39 40 38 37 38 38 39 41 41 37 35 34 35 35 35 36 35 35 33 31 30 29 29 29 28 27 27 27 27 26 25 23 23 24 26 26 26 26 25
49 46 43 43 45 43 40 40 40 40 40 40 39 36 32 32 33 35 36 36 36 36 35 34 34 33 32 31 29 29 29 29 29 29 27 26 26 27 28 29 29 29
53 50 48 47 47 46 43 41 42 41 38 40 44 42 35 33 35 36 37 37 37 37 37 36 37 37 36 34 33 33 33 32 31 31 31 30 30 30 30 30 31 30
57 54 53 51 49 49 47 45 45 44 42 43 48 46 41 40 39 39 39 40 40 40 40 39 39 40 41 40 38 37 37 37 35 33 33 34 34 34 34 32 32 32
59 56 56 56 54 53 52 52 51 50 48 48 50 51 50 49 47 45 44 43 44 45 45 44 41 41 43 44 44 42 41 40 39 35 34 36 37 37 37 35 34 34
62 60 60 61 59 55 54 56 57 57 57 56 55 55 55 54 53 52 51 52 54 55 54 52 49 46 45 45 45 44 43 42 41 38 37 37 37 36 37 37 38 37